GFSSGP_sfc_temp_000.txt.gz
Temp
65 65 62 62 53 47 42 48 47 51 52 55 58 56 56 55 57 51 57 61 62 64 66 70 74 76 76 76 75 75 76 76 77 77 76 76 76 75 74 75 75 75 75 75 74 73 73 72 72
63 66 62 54 46 39 43 46 52 54 54 54 55 55 53 58 56 57 56 61 63 65 65 67 73 75 75 75 75 75 76 76 76 76 75 75 74 74 74 74 74 75 74 74 73 72 71 71 71
65 64 59 49 41 40 44 50 52 54 54 54 53 55 55 58 55 56 59 61 62 62 64 66 71 74 74 75 75 75 76 76 75 75 75 74 74 74 72 72 73 73 73 72 72 71 70 70 70
63 61 55 48 43 48 50 54 52 52 54 55 54 55 57 59 59 59 59 60 60 60 62 67 71 73 74 74 74 74 75 75 75 74 74 74 73 72 71 71 72 71 71 71 70 70 70 70 69
58 54 47 41 43 50 51 54 54 52 51 52 54 55 55 56 55 56 57 60 59 58 60 63 70 72 74 74 74 74 74 75 74 74 73 73 71 71 70 70 70 70 70 70 70 69 69 68 67
55 52 43 39 43 51 53 54 52 51 51 51 51 50 57 52 53 54 57 57 58 58 59 62 67 70 71 72 73 73 73 74 73 73 72 71 70 70 70 70 70 69 69 69 69 68 67 67 66
52 48 41 39 43 49 53 52 50 51 51 56 54 50 57 54 56 54 55 55 56 57 58 59 61 64 67 69 70 71 72 72 72 71 71 70 69 69 69 69 69 69 69 68 67 67 66 66 65
52 50 40 40 43 49 53 52 54 55 57 53 57 55 56 52 52 52 52 52 54 55 56 57 58 59 60 61 66 67 69 70 70 69 68 66 66 67 67 66 68 69 68 67 66 65 65 64 63
52 46 40 45 45 51 53 51 55 54 53 52 58 56 55 49 50 50 48 49 51 53 54 54 55 56 56 57 59 63 66 66 66 64 63 57 51 53 55 59 66 67 66 65 64 63 61 60 60
51 43 47 51 49 52 54 54 56 52 54 52 55 57 50 48 48 49 49 51 51 53 54 53 53 53 53 56 55 55 57 56 54 53 51 49 47 48 52 57 63 64 64 64 63 61 57 51 45
50 48 50 55 56 55 55 53 55 52 54 56 58 60 54 49 48 49 51 54 55 56 55 54 52 51 51 52 51 50 50 49 49 49 47 46 46 46 45 45 45 45 50 45 47 45 44 44 44
47 53 54 55 57 54 54 55 54 55 65 63 61 60 53 51 49 51 52 53 53 52 54 54 52 50 49 49 50 48 49 46 46 46 45 43 42 42 42 41 41 41 40 41 41 41 42 43 44
48 51 55 56 53 55 55 56 54 53 61 60 59 57 56 53 51 53 55 55 52 51 54 52 51 52 51 48 47 47 47 48 46 44 44 43 42 41 41 40 39 39 40 40 40 40 41 42 43
51 52 53 53 55 55 55 59 54 59 56 60 55 56 55 53 55 50 49 54 51 55 53 53 51 52 51 51 49 50 48 45 44 42 44 43 42 41 40 39 39 39 39 39 39 40 40 40 41
51 50 50 50 52 51 51 50 48 61 52 58 57 55 54 54 53 54 59 56 57 56 55 51 52 52 51 51 50 49 48 45 44 44 42 42 42 41 40 39 38 38 38 38 38 38 38 39 40
45 42 41 49 47 50 53 45 60 59 52 55 56 56 56 58 56 57 58 58 57 56 53 53 54 51 51 52 50 50 46 46 46 43 43 42 42 41 39 38 37 37 37 37 37 37 37 37 38
39 38 38 44 52 50 48 45 55 54 52 54 55 57 57 63 63 59 58 59 56 56 55 52 51 50 50 51 50 49 46 46 45 42 43 41 42 41 40 38 37 37 36 36 37 35 37 36 37
38 35 38 39 50 45 43 45 54 56 54 53 55 59 61 62 64 69 61 55 56 55 56 54 51 52 50 50 46 42 41 43 40 42 42 41 42 40 39 37 36 36 35 35 35 35 34 34 34
40 39 39 43 50 43 50 51 53 56 53 57 60 59 59 62 65 66 60 56 52 49 51 52 49 50 49 46 43 42 44 42 41 42 43 42 41 40 40 38 36 35 35 35 35 34 34 33 32
41 41 43 48 50 43 45 46 53 55 56 58 59 61 61 61 63 64 55 51 49 51 50 49 49 49 50 49 49 45 48 42 45 40 39 42 39 39 40 38 37 36 34 34 34 34 32 32 31
39 38 43 42 43 41 39 43 42 49 50 55 56 60 56 56 61 63 53 51 48 46 46 49 49 48 50 48 46 37 36 35 34 34 37 38 40 39 39 39 37 36 36 35 34 33 34 32 31
42 46 45 42 37 34 39 35 40 48 51 53 56 52 53 55 54 54 53 50 50 50 46 47 47 47 49 48 45 45 44 43 43 45 44 40 40 39 38 38 37 36 34 32 33 33 33 33 32
43 45 42 37 35 31 32 30 37 42 46 50 53 54 52 54 53 54 54 53 51 48 44 44 45 45 47 47 47 46 46 47 38 38 39 38 37 38 37 36 35 34 34 33 33 31 32 32 32
43 39 37 33 33 27 36 35 45 40 44 46 54 62 56 55 54 53 51 49 48 42 40 41 42 43 45 46 45 47 46 37 38 36 38 36 36 35 34 35 36 35 34 33 33 31 31 31 31
40 35 27 24 21 27 33 31 46 51 55 52 53 53 53 52 50 50 49 47 46 41 39 39 40 40 41 43 44 45 45 40 42 39 40 37 36 36 36 36 35 33 34 33 32 31 31 30 30
37 40 28 23 21 33 28 30 46 52 53 53 50 50 48 50 50 49 49 45 44 42 39 40 39 39 39 41 42 41 42 42 42 39 40 38 39 39 36 35 34 34 33 32 31 31 30 29 30
37 35 42 33 35 26 38 41 49 54 48 47 45 46 47 50 50 51 49 46 43 41 40 39 39 39 39 40 40 40 41 40 40 37 37 38 39 38 34 35 34 33 32 32 31 31 30 29 29
42 42 32 30 24 23 32 36 40 49 54 50 48 46 49 48 49 50 51 48 44 41 39 39 39 39 38 39 41 42 42 42 40 37 38 37 37 35 33 34 34 32 33 32 31 30 29 29 28
36 35 35 36 33 29 28 36 50 53 55 45 44 47 47 43 41 42 44 45 45 44 41 39 38 38 37 37 39 38 37 38 38 37 38 38 36 35 33 35 34 33 32 32 31 30 29 29 27
41 42 40 33 31 33 33 33 51 50 51 43 35 36 38 39 39 40 41 41 42 43 44 44 42 39 39 38 38 36 37 36 36 37 37 37 35 34 35 34 33 33 33 32 32 29 29 28 27

GFSSGP_sfc_temp_003.txt.gz
Temp
70 68 67 66 58 53 50 54 58 59 62 64 63 63 63 65 63 61 66 66 67 70 70 74 74 76 76 76 76 75 76 76 77 77 77 77 76 76 76 76 76 76 76 75 75 74 73 72 72
68 70 66 59 52 47 50 55 56 60 64 63 63 64 64 65 66 67 67 66 67 70 70 73 73 75 76 75 75 75 76 76 77 77 77 76 76 76 75 76 76 76 76 75 74 73 72 71 71
69 67 62 54 47 47 50 56 60 62 62 63 63 65 66 67 67 67 67 66 66 69 70 71 72 75 75 75 75 75 75 76 77 76 76 76 77 76 74 74 74 75 74 73 72 72 71 71 71
66 64 59 53 48 52 55 60 60 61 62 61 63 63 67 69 69 68 66 65 66 66 68 70 72 74 74 75 75 75 76 77 76 76 75 74 74 74 72 72 73 73 73 72 72 71 71 70 69
60 58 51 47 48 53 55 58 60 61 61 62 62 63 64 68 64 64 64 64 65 65 67 70 71 73 74 74 75 75 75 75 76 75 75 73 73 72 71 72 72 72 71 71 71 70 69 68 68
57 55 48 45 48 54 56 59 61 60 61 61 61 61 64 66 64 64 62 64 65 65 64 67 68 70 72 74 74 74 74 75 74 74 74 73 72 71 71 71 71 71 71 70 70 69 68 67 66
55 51 47 46 48 51 58 59 59 61 60 63 63 62 66 66 64 61 61 62 63 64 63 65 67 68 68 72 70 72 73 73 73 74 72 71 71 70 70 70 70 70 70 69 69 68 67 66 65
54 53 47 46 48 52 59 58 61 61 64 62 64 62 65 68 57 57 58 60 61 61 62 63 65 66 68 69 66 68 69 70 71 70 69 67 67 68 68 67 69 70 69 68 67 67 66 65 64
57 50 44 49 48 55 59 58 60 61 62 60 63 63 66 55 54 56 56 56 57 59 60 62 62 64 65 65 65 65 66 67 67 66 64 63 63 64 65 63 67 69 68 67 66 65 63 61 60
54 46 49 54 53 55 58 58 60 60 61 59 61 63 60 54 54 56 55 57 56 58 60 60 61 61 61 62 64 65 65 67 65 63 61 59 59 60 60 61 64 65 65 65 64 61 57 54 56
52 50 53 56 57 57 57 56 59 58 57 60 61 64 62 56 53 54 57 59 60 61 61 59 60 60 60 61 61 61 62 62 60 59 57 56 56 57 58 58 58 58 56 58 57 54 55 54 55
50 54 55 57 58 55 56 56 56 58 66 66 63 64 62 58 56 55 56 58 59 58 61 60 59 57 58 59 59 60 59 58 57 56 54 54 53 53 54 55 54 53 53 52 52 52 51 52 52
50 52 56 55 55 56 56 57 55 56 62 63 61 59 60 59 59 57 59 59 59 57 59 59 58 58 58 56 57 57 58 57 57 54 53 53 52 52 52 52 51 51 50 51 51 51 51 51 51
52 53 53 53 56 55 56 59 55 59 60 62 58 62 60 57 61 57 54 57 56 59 58 59 57 58 58 57 57 57 58 57 54 54 53 51 52 52 51 49 49 49 50 50 50 51 51 51 51
52 51 52 51 53 53 52 50 50 62 55 59 63 60 60 58 57 58 63 59 59 59 60 57 57 57 56 57 57 57 56 53 53 53 51 51 51 51 50 49 48 48 48 48 48 48 48 50 50
47 45 43 52 49 51 54 49 59 62 56 58 58 62 58 64 62 62 62 61 61 60 57 57 57 55 56 57 57 57 55 54 54 53 52 50 50 50 49 48 48 47 47 48 48 48 48 49 51
41 39 39 44 52 51 49 47 54 55 54 55 58 61 64 66 68 68 62 61 61 59 59 56 55 55 55 56 57 57 54 54 54 52 51 50 49 48 49 48 47 46 46 46 47 46 48 48 48
40 36 38 40 52 46 45 45 54 55 56 58 60 62 61 61 64 68 64 61 60 58 58 58 54 55 54 55 55 54 50 53 52 51 50 49 50 47 48 47 45 45 44 44 44 45 44 47 47
42 40 39 43 49 44 50 50 52 56 53 57 60 61 61 61 65 63 61 60 58 54 53 54 52 53 52 51 49 48 48 50 48 50 49 50 49 47 47 46 45 44 44 44 45 44 44 43 44
41 40 41 45 49 43 44 47 54 56 57 59 59 60 57 58 62 63 59 59 56 55 52 52 51 51 52 52 53 52 52 51 51 49 48 50 48 47 47 46 44 44 43 42 42 43 41 43 42
39 39 42 41 42 43 40 41 43 52 50 53 56 56 56 55 56 58 58 56 54 53 50 51 51 51 52 52 51 43 44 42 43 42 44 46 46 45 46 46 45 43 44 43 42 43 43 43 40
39 45 43 40 37 34 42 34 40 50 52 52 54 53 54 55 56 54 53 56 53 52 50 49 49 49 51 50 49 49 49 46 46 49 48 46 46 45 45 44 44 43 43 42 41 42 43 43 42
43 43 40 39 36 33 34 31 39 44 47 50 54 56 56 54 54 56 54 53 51 46 46 47 47 48 50 49 50 49 49 49 45 47 46 44 43 44 42 43 42 42 42 42 42 40 41 43 43
43 40 37 34 35 28 36 36 39 42 47 48 53 57 54 54 53 56 52 49 49 46 44 44 45 45 47 47 48 48 48 46 44 44 44 42 42 41 41 42 42 42 42 41 41 41 41 41 41
41 37 29 26 23 27 33 32 41 49 55 51 54 52 50 51 51 52 50 48 47 46 43 44 42 43 44 45 46 47 47 44 46 44 45 41 40 40 40 41 41 41 42 41 41 40 40 40 40
37 39 31 24 24 33 28 32 45 49 53 51 48 48 47 46 46 44 45 45 45 44 44 43 42 41 42 43 43 44 45 45 45 43 44 42 42 42 42 40 42 41 39 39 40 40 40 40 40
36 34 41 33 29 28 38 40 50 53 48 43 40 37 36 38 39 40 42 43 43 43 43 43 42 42 42 42 42 42 42 43 43 41 42 42 43 43 41 40 39 39 38 38 38 38 37 37 38
41 42 32 29 22 24 33 37 40 46 35 32 33 33 36 38 39 40 41 42 43 44 44 45 44 43 42 42 42 42 42 42 42 40 39 40 41 40 38 39 39 39 39 38 38 38 36 36 36
35 35 35 36 31 28 27 34 44 29 29 29 32 34 36 38 39 40 41 42 42 43 43 43 43 42 42 43 43 40 40 41 41 38 39 40 40 38 37 37 38 37 37 37 36 37 35 35 34
40 40 40 29 29 31 33 31 30 28 30 32 32 35 37 38 39 40 41 41 41 41 42 41 41 41 40 41 42 41 41 39 39 40 39 39 39 38 38 37 37 37 37 36 36 35 34 34 33

GFSSGP_sfc_temp_006.txt.gz
Temp
79 83 87 84 71 70 65 66 71 70 72 75 75 74 74 75 74 70 78 79 77 82 82 79 75 77 77 76 76 76 76 77 77 77 77 77 77 77 77 76 76 76 76 76 75 74 73 73 72
84 82 86 80 67 62 68 70 67 72 74 74 74 73 74 75 80 81 80 78 78 82 81 81 73 76 76 76 76 75 76 76 77 77 77 77 77 77 77 77 76 76 76 75 74 73 72 72 71
81 82 79 73 67 64 66 70 73 73 74 74 74 75 77 77 80 81 78 79 78 81 81 81 72 75 76 75 75 75 76 76 77 77 77 76 77 77 75 74 74 75 75 74 73 72 71 71 70
83 83 78 67 63 68 68 75 75 74 73 73 74 73 79 82 81 81 77 79 78 80 79 76 73 75 75 75 75 75 76 76 77 76 76 76 75 74 73 73 73 73 73 73 72 72 71 70 69
83 79 69 63 63 67 72 74 72 72 73 74 73 74 76 80 78 77 77 77 78 78 78 78 72 74 74 75 75 75 76 76 76 76 75 75 74 73 72 72 73 72 72 72 72 71 69 69 68
76 75 65 63 65 68 72 73 71 72 74 74 72 73 78 79 76 79 77 78 80 78 77 78 70 71 72 73 74 74 75 75 75 75 75 74 73 72 72 72 72 71 71 71 70 69 68 67 67
72 70 64 63 64 66 70 72 72 74 74 75 76 73 81 82 77 75 76 78 77 78 75 76 77 74 68 70 71 72 73 74 74 74 74 73 72 71 71 71 71 71 71 70 69 68 67 67 65
76 73 61 64 65 65 72 71 74 74 76 74 77 75 78 81 71 72 72 74 75 75 74 76 77 77 77 77 67 68 70 71 71 71 71 69 68 69 69 68 70 71 70 69 68 67 67 65 64
72 67 63 64 62 69 72 70 72 75 75 74 76 79 86 72 69 70 70 69 72 72 73 75 75 76 77 78 74 66 67 68 68 68 65 65 73 72 70 68 68 70 69 68 67 66 64 62 61
70 64 66 70 71 71 73 71 73 72 75 76 76 81 80 73 72 73 73 74 71 72 72 74 74 75 75 75 76 75 75 75 75 75 73 73 73 73 71 66 65 67 66 66 65 63 59 60 68
66 65 71 70 72 71 70 70 72 72 70 77 76 81 83 77 76 73 75 77 78 76 76 72 73 74 74 74 75 75 75 73 75 74 72 72 70 68 69 70 69 69 63 68 66 62 66 64 67
62 68 69 71 69 67 67 71 68 71 75 81 82 82 78 78 78 76 76 77 76 77 76 75 73 73 72 74 73 74 74 72 72 71 69 68 68 67 68 68 68 66 67 64 63 63 62 62 62
61 67 68 69 66 67 69 66 68 70 77 80 80 76 73 76 77 78 78 77 76 74 76 75 73 72 72 71 72 73 72 71 71 70 67 68 67 65 66 67 66 66 64 63 62 62 62 61 61
66 64 66 66 66 67 64 69 69 74 78 77 78 78 81 79 77 77 76 73 73 73 74 76 73 71 72 70 71 71 71 71 70 69 67 66 67 65 65 64 64 63 63 64 63 62 62 61 61
63 61 67 68 66 64 65 61 62 75 74 72 76 79 80 79 81 78 79 78 76 74 74 73 72 71 70 70 71 70 70 70 68 68 67 64 65 65 64 63 62 62 61 60 60 60 61 61 60
60 59 56 69 61 63 64 59 71 76 71 71 74 77 78 80 80 82 82 78 79 78 74 73 70 69 69 70 70 70 70 68 67 67 66 63 62 64 63 62 61 61 60 60 60 60 59 60 60
58 55 57 59 64 61 60 59 69 73 70 69 72 74 76 77 78 80 80 80 77 78 76 72 70 68 67 68 69 69 68 67 67 67 66 63 61 62 63 62 61 59 59 59 60 59 60 58 59
57 56 56 54 65 63 59 58 64 68 66 66 69 72 73 74 76 77 76 76 76 76 75 73 70 68 67 66 66 67 66 65 67 66 65 63 61 60 61 61 59 57 57 57 57 57 58 59 58
58 55 54 59 64 58 57 59 62 66 67 66 68 70 72 73 75 76 74 73 71 72 69 69 68 66 66 63 62 62 62 62 63 64 62 63 61 59 59 60 58 56 55 56 56 56 53 53 56
55 52 53 59 61 54 57 56 61 64 65 67 68 69 70 70 71 71 69 67 65 65 66 65 65 65 64 64 63 64 63 63 63 62 61 61 60 59 58 58 57 55 55 55 54 53 53 55 54
54 51 54 53 55 58 53 56 58 67 63 66 67 68 68 67 65 65 62 60 59 58 58 60 63 62 62 62 62 61 59 58 58 59 58 58 60 58 56 58 56 55 56 54 53 53 53 52 52
49 58 53 50 49 47 54 45 58 63 64 64 66 67 66 63 62 59 57 56 55 54 55 57 58 59 59 61 59 57 56 54 57 57 57 56 57 58 56 56 56 54 54 55 52 54 55 56 51
54 52 49 47 47 45 49 45 57 57 57 62 64 60 60 58 55 53 52 52 53 53 53 54 56 56 58 57 58 57 57 60 60 57 57 55 55 55 55 55 55 53 53 54 53 52 53 55 56
51 50 48 46 47 41 50 47 53 57 59 60 57 52 51 51 52 52 52 52 51 51 51 51 53 52 54 55 56 55 55 56 56 54 54 55 54 53 53 52 53 53 52 52 52 51 52 52 54
51 48 42 39 39 39 47 43 52 60 54 53 49 48 48 50 50 49 49 49 49 49 50 50 50 49 51 52 53 53 53 54 54 54 54 54 52 50 51 51 51 51 52 52 51 50 50 51 52
48 49 42 31 35 42 37 40 53 56 49 47 47 47 47 47 49 48 49 49 49 49 49 50 49 48 49 49 49 51 51 53 54 54 54 53 53 52 51 50 51 51 51 51 51 50 50 49 50
46 43 51 40 36 35 45 52 59 55 44 44 43 45 44 45 45 47 48 49 48 48 48 49 49 48 48 48 49 48 49 49 50 51 51 52 52 51 51 50 48 50 50 49 49 47 47 47 48
49 52 41 41 29 28 39 44 47 49 42 41 40 41 43 44 44 45 47 47 48 48 49 49 49 47 47 48 48 48 48 48 48 49 47 48 49 49 47 48 47 49 48 47 47 47 47 45 46
47 43 43 42 39 30 28 38 48 42 37 37 38 40 41 43 44 45 46 48 48 47 47 48 48 46 45 46 46 46 46 47 47 46 47 47 47 47 46 46 46 46 46 46 45 46 46 43 44
49 46 46 36 33 39 36 36 40 38 37 37 37 38 40 42 44 45 45 46 46 46 45 45 46 45 44 44 44 43 44 44 44 44 45 46 45 46 45 46 44 43 43 45 44 43 43 41 42

GFSSGP_sfc_temp_009.txt.gz
Temp
82 91 92 86 72 72 68 70 77 74 76 80 80 78 76 79 76 69 84 86 84 87 87 78 75 77 77 76 76 76 76 77 77 77 77 77 77 77 77 76 76 77 77 76 76 75 73 73 72
91 90 89 83 69 66 69 75 72 76 79 81 80 79 78 77 86 86 85 84 84 87 87 82 73 76 76 76 76 76 76 77 77 77 77 77 77 77 77 76 75 76 76 75 74 73 72 72 71
88 89 81 75 70 66 67 74 77 79 82 78 78 81 80 81 86 87 84 84 84 86 86 84 73 75 76 76 75 75 76 76 77 77 77 77 77 76 77 74 74 75 75 74 73 72 72 71 70
87 86 83 70 67 72 72 78 80 79 79 78 79 77 85 89 86 87 84 85 84 86 85 75 74 75 76 75 75 76 76 76 77 77 77 77 76 75 74 74 73 74 74 73 72 72 71 70 69
88 83 71 67 69 73 78 80 79 76 79 79 79 78 81 87 87 85 84 84 83 85 84 81 72 74 75 75 75 75 76 76 76 76 76 76 75 75 73 72 73 73 73 72 72 71 70 69 68
79 80 68 67 71 76 78 79 78 78 79 80 76 78 82 86 84 86 84 84 85 84 81 82 71 71 73 74 74 75 75 75 76 76 76 76 75 74 73 72 72 72 72 72 71 70 69 68 67
74 72 68 68 70 72 75 79 77 78 79 80 82 76 85 86 84 83 83 85 84 85 80 81 78 74 68 70 71 73 74 74 74 74 74 73 73 73 72 71 72 71 71 71 70 69 68 67 66
79 75 68 71 69 69 77 77 79 78 78 82 83 77 80 83 80 80 81 82 82 82 80 80 80 79 78 77 67 68 70 71 72 71 70 69 70 70 69 68 70 71 71 70 69 68 67 66 64
79 69 66 69 69 73 78 74 80 83 78 82 83 81 86 83 79 79 78 78 79 79 79 80 79 80 79 79 76 66 67 68 68 69 66 66 73 72 71 68 68 70 70 69 68 67 65 63 61
72 68 69 77 78 75 78 77 77 76 78 80 83 88 89 88 82 79 80 80 78 77 78 79 79 79 79 80 79 77 75 71 73 74 73 74 74 74 73 67 65 67 67 68 67 65 62 60 68
74 67 76 77 78 78 75 74 79 73 72 80 80 84 87 87 86 82 82 82 83 84 81 79 79 79 78 79 79 78 77 73 72 73 75 74 74 73 72 70 69 68 63 67 65 62 64 67 68
66 74 74 75 76 72 71 77 74 74 75 82 83 84 84 83 82 83 83 83 84 84 84 82 79 78 78 78 77 77 77 75 71 74 75 73 72 70 69 70 69 68 67 67 65 64 65 64 65
66 70 74 75 74 72 73 70 72 73 80 84 84 83 82 82 82 84 85 83 83 81 83 83 81 78 78 76 77 76 77 76 74 75 75 73 70 68 69 70 70 69 68 67 64 64 62 62 63
72 68 70 73 72 72 68 70 73 76 82 81 81 81 83 84 85 85 83 82 81 80 81 83 81 78 78 76 75 75 76 76 75 75 73 71 70 69 68 68 68 67 67 66 64 63 62 62 62
68 63 69 72 74 70 69 64 67 79 81 79 78 81 82 83 85 84 86 85 85 83 81 80 81 80 77 76 75 75 75 75 73 73 72 69 70 69 68 67 66 66 65 64 63 63 63 62 62
63 65 58 71 69 68 66 59 72 78 76 74 77 79 80 81 83 85 84 83 83 83 81 81 78 77 76 75 75 75 75 74 73 72 72 69 68 69 67 66 65 65 63 62 61 61 60 61 61
65 56 60 63 73 67 63 60 69 74 73 72 74 76 77 78 81 80 79 77 77 78 79 79 78 76 74 73 75 74 73 73 72 72 71 69 67 67 66 65 64 63 61 60 61 60 60 59 60
59 60 62 60 69 65 64 63 68 73 73 72 75 76 77 76 73 73 72 70 71 70 73 74 75 75 73 72 71 72 72 71 72 71 70 69 67 65 65 64 63 61 59 59 59 58 60 59 59
63 60 58 63 69 64 61 62 65 71 72 73 75 75 74 72 72 68 65 64 63 63 64 67 69 72 71 68 66 66 66 68 68 68 68 69 67 64 63 63 62 59 57 58 58 57 56 57 57
60 57 57 63 67 59 60 59 64 68 71 72 71 71 68 68 65 63 61 60 59 58 59 62 64 67 68 68 67 67 67 67 68 66 66 66 66 63 62 61 60 58 57 57 56 55 53 55 56
58 55 56 56 61 62 58 56 64 69 72 70 70 69 65 61 58 58 57 57 56 55 57 58 60 62 64 65 65 64 63 60 59 62 63 63 63 62 59 60 60 57 57 55 55 54 53 51 52
52 63 58 55 51 48 57 45 58 67 68 65 63 61 59 57 57 56 55 54 53 54 56 57 57 58 60 62 62 60 58 56 60 60 61 61 61 61 60 58 59 56 55 56 53 55 54 53 48
57 56 55 53 49 49 52 47 57 64 62 61 58 56 56 55 55 53 53 54 54 54 53 56 56 56 57 58 58 58 57 59 61 59 58 59 58 58 58 57 57 56 55 55 54 53 53 55 52
55 54 55 53 50 41 52 52 53 59 61 56 53 53 53 54 54 54 55 54 53 54 53 53 54 53 54 54 55 55 54 55 55 57 56 57 58 57 55 55 54 55 55 54 53 52 52 53 54
53 50 42 41 41 39 55 48 54 62 57 59 53 51 52 53 53 52 52 52 52 51 52 52 52 51 52 52 52 52 52 53 54 54 55 54 55 55 54 54 52 52 53 54 54 51 50 51 51
53 52 42 32 36 43 43 42 53 54 53 52 52 51 51 50 51 50 51 51 51 50 51 51 51 49 50 51 51 51 51 51 51 52 52 52 53 54 55 53 52 52 52 53 53 50 49 50 50
51 45 50 37 38 35 44 53 61 50 48 49 48 48 47 48 49 49 50 50 50 50 50 50 50 49 49 49 50 49 50 49 49 49 49 49 49 51 51 51 50 50 50 49 50 48 47 48 48
52 54 37 37 26 27 41 45 48 55 50 46 45 46 47 48 48 49 50 50 50 49 49 50 50 48 47 47 48 47 47 48 48 48 47 47 47 47 46 46 47 47 47 47 47 46 47 46 46
47 44 46 46 41 31 30 40 56 50 49 46 45 44 45 46 47 48 48 49 50 49 48 48 48 46 45 46 46 45 44 45 45 44 45 44 44 45 45 45 44 44 44 45 45 44 45 44 44
50 47 47 36 32 39 35 34 57 47 46 44 43 42 43 44 45 47 47 48 48 48 47 47 47 45 45 45 45 44 44 42 42 41 42 41 42 42 43 43 42 42 42 43 43 42 41 43 42

GFSSGP_sfc_temp_012.txt.gz
Temp
74 79 83 75 59 59 57 61 64 67 67 69 72 68 65 68 68 57 72 77 78 79 77 75 75 77 77 76 76 76 76 77 77 77 77 77 77 77 77 76 76 77 77 77 76 75 74 73 72
78 87 77 69 56 53 56 64 65 67 68 70 70 69 66 65 76 73 71 76 78 80 76 76 73 76 76 76 76 76 76 77 77 77 77 77 77 77 76 76 76 76 76 75 74 74 73 72 71
79 85 67 62 59 55 56 65 68 72 73 68 67 69 66 69 76 73 73 77 77 78 77 78 73 75 76 75 75 75 76 76 77 77 77 77 77 77 75 75 75 75 75 74 74 73 72 71 70
78 74 71 58 58 62 63 68 70 71 70 71 68 66 70 76 73 74 76 77 75 77 79 73 74 75 75 75 75 75 76 76 77 77 77 77 77 77 76 74 75 75 74 74 73 72 71 70 69
76 70 59 57 60 65 66 71 70 67 68 68 68 66 69 72 76 76 75 77 74 75 75 72 73 74 75 75 75 75 75 76 76 76 77 77 77 77 74 73 74 75 74 73 72 71 70 69 68
66 67 56 54 61 68 69 71 68 67 67 67 63 64 67 73 73 73 74 73 76 75 75 73 70 71 73 74 74 75 75 75 75 76 76 76 76 76 74 72 74 74 72 72 72 70 69 68 67
63 60 56 56 60 61 68 68 66 67 68 68 68 61 66 68 72 71 69 70 74 75 73 72 70 69 68 71 71 72 73 74 74 75 75 74 74 74 73 71 72 72 72 72 70 69 68 67 66
66 63 57 57 58 59 68 66 67 67 67 70 68 61 59 66 71 68 67 67 69 73 71 71 70 69 70 69 67 69 70 71 72 71 70 69 70 70 70 68 70 71 71 71 70 68 67 66 64
69 56 54 60 59 62 69 65 69 71 67 69 72 69 73 72 71 67 64 67 67 71 71 70 70 70 70 70 69 65 67 68 68 68 66 64 65 65 65 65 68 70 70 70 69 68 66 64 62
61 55 59 68 66 63 69 67 67 67 66 67 69 75 75 73 67 66 66 66 65 67 68 69 69 69 70 74 70 68 68 69 68 68 66 65 65 63 65 63 65 67 67 69 68 67 64 60 53
63 57 66 68 70 68 66 65 69 65 61 67 67 71 74 72 71 67 68 69 69 69 69 69 69 69 69 70 68 68 69 66 68 69 68 68 68 62 60 57 59 58 60 58 60 57 53 54 55
60 67 68 68 69 65 62 66 63 65 66 72 72 73 71 70 70 69 70 70 68 69 70 70 70 69 68 68 67 66 67 66 67 69 67 67 66 60 59 57 57 56 55 54 53 50 52 54 56
62 64 68 69 67 66 67 62 61 64 70 74 74 73 71 71 71 71 71 71 69 68 69 70 69 70 69 67 66 65 65 66 66 66 69 67 63 58 57 57 57 56 55 54 52 51 52 52 54
64 63 64 65 66 66 63 61 61 66 70 70 72 70 70 71 71 70 70 69 69 70 69 71 69 69 68 68 66 65 65 65 66 66 68 65 61 58 57 56 56 55 57 53 52 50 50 50 51
63 56 61 65 65 62 62 55 58 67 69 68 68 68 70 71 72 69 68 68 68 68 70 69 69 68 67 66 65 64 64 64 63 65 64 62 61 58 57 55 54 54 54 52 51 51 50 49 51
56 55 48 62 63 57 61 50 62 68 65 66 66 65 67 69 65 64 63 63 62 62 65 65 70 67 66 65 64 64 63 62 62 62 61 61 60 59 56 54 54 54 52 50 49 48 48 47 48
53 46 51 56 64 58 55 51 62 66 65 65 64 65 65 63 60 60 59 58 58 59 60 62 62 64 64 64 63 63 63 61 61 60 60 60 59 59 56 54 53 52 50 49 49 47 47 46 46
48 49 53 50 59 57 52 52 61 65 64 61 63 62 61 58 57 58 56 56 55 55 57 58 61 61 62 60 60 60 59 59 59 59 59 60 58 57 55 53 52 51 48 47 47 47 47 46 46
55 52 50 54 61 54 54 53 58 63 64 59 57 60 58 56 57 56 54 53 52 54 54 56 56 58 58 56 55 55 55 57 59 60 60 61 58 56 54 51 51 49 49 49 48 46 46 45 45
52 49 48 55 59 52 53 52 58 62 62 59 59 55 54 53 52 53 51 50 50 51 51 53 54 54 57 56 55 54 52 54 57 58 58 59 59 57 54 52 50 48 46 46 46 46 43 43 45
51 48 49 49 54 51 49 47 52 60 60 61 58 55 53 50 49 49 49 47 47 47 49 51 52 52 54 54 54 53 52 50 50 51 53 57 59 56 53 52 50 48 47 47 45 45 46 40 42
47 54 53 50 44 37 48 36 49 57 54 53 52 48 48 48 49 49 47 46 46 46 47 50 50 50 52 52 51 48 47 47 49 50 50 51 54 53 54 51 50 47 46 45 46 48 48 42 42
49 50 47 46 42 39 41 35 45 52 48 48 48 48 47 47 47 47 46 48 47 46 45 46 48 49 49 49 48 46 45 46 46 47 48 48 49 50 50 49 48 47 45 45 44 44 44 45 41
51 47 47 44 41 29 42 43 41 46 49 44 46 47 48 47 47 47 48 48 45 44 44 44 45 46 46 46 46 44 43 43 43 44 44 44 46 47 47 48 45 46 45 44 43 42 43 43 43
47 43 31 29 26 29 44 39 45 49 51 49 45 44 45 45 44 44 44 44 44 43 43 45 43 43 44 44 44 43 43 42 42 42 42 41 41 42 44 45 43 43 44 44 44 41 40 42 43
46 45 33 26 24 30 38 32 44 46 47 47 46 44 45 43 44 43 44 43 42 43 42 42 42 41 42 42 42 42 43 43 43 42 41 40 40 41 42 42 42 43 43 43 43 40 39 40 42
44 39 45 33 28 26 35 44 49 44 43 43 43 43 41 42 42 43 43 42 41 41 41 41 41 40 40 40 40 40 40 40 40 39 39 40 40 43 41 40 40 40 41 40 40 38 37 38 38
46 48 33 32 24 20 31 35 39 41 40 41 40 40 41 42 42 42 42 42 42 41 41 41 41 39 39 39 38 39 38 38 38 37 36 37 38 39 38 38 38 39 38 38 37 36 36 36 36
42 38 40 41 34 24 25 31 45 43 43 40 41 41 40 40 40 41 41 42 41 41 40 40 39 38 38 38 38 37 37 37 37 35 36 35 36 37 37 37 36 36 36 37 35 35 35 36 35
44 42 41 32 31 34 33 32 51 44 42 42 40 41 39 40 40 41 41 41 42 41 40 39 39 38 38 38 37 37 37 36 35 35 34 33 35 35 36 36 36 36 36 36 35 35 35 34 34

GFSSGP_sfc_temp_015.txt.gz
Temp
69 72 66 68 56 52 48 54 57 61 59 63 66 63 60 61 64 55 67 73 74 73 74 74 75 77 77 76 76 76 76 77 77 77 77 77 77 77 77 76 76 77 77 77 76 75 74 72 72
68 76 68 59 50 45 49 55 58 61 65 64 65 64 60 61 69 67 67 73 76 73 73 74 74 76 76 76 76 76 76 77 77 77 77 77 77 77 76 76 76 76 76 76 75 74 73 72 71
71 74 61 54 49 47 49 55 56 63 64 64 61 65 62 64 68 68 69 74 75 72 73 74 73 75 76 75 76 76 76 76 77 77 77 77 77 76 75 75 75 75 75 75 74 73 72 71 70
70 66 61 53 48 53 55 55 59 61 63 65 63 61 65 67 69 70 73 73 72 70 73 72 73 75 76 75 76 76 76 76 77 77 77 77 77 76 75 74 75 75 74 74 73 72 71 70 69
66 59 51 48 52 58 57 62 61 60 60 62 64 61 63 67 68 70 71 72 71 70 71 71 73 74 75 75 75 75 75 76 76 76 77 77 76 76 75 74 75 74 74 73 73 71 70 69 68
59 58 48 45 51 59 58 62 61 62 62 61 59 58 60 66 66 66 70 68 71 70 69 71 70 71 73 74 74 75 75 75 75 76 76 76 76 75 74 73 74 75 73 72 72 70 69 68 67
56 52 46 47 52 56 60 62 58 57 60 61 63 56 60 62 67 68 68 67 70 70 68 69 70 70 69 70 71 72 73 74 74 74 74 74 74 74 73 72 73 73 72 72 71 69 68 67 66
59 55 47 48 52 54 61 62 63 60 62 64 64 57 57 66 69 68 67 67 65 68 67 66 67 68 68 69 68 69 70 71 72 71 71 69 69 70 70 68 71 72 72 71 70 68 68 67 65
61 50 46 51 54 55 62 60 64 65 61 62 68 64 67 65 64 60 59 62 63 67 66 66 66 66 68 67 67 65 67 68 68 68 67 65 65 65 65 64 68 71 71 70 69 68 67 65 63
55 47 52 58 55 56 61 58 58 60 61 61 61 64 66 64 62 62 60 61 60 62 65 65 65 65 66 70 68 66 68 67 67 67 65 67 63 62 64 62 65 67 68 69 68 67 64 59 52
56 51 58 62 62 61 60 61 61 57 55 63 62 63 68 64 64 63 62 63 63 62 62 65 65 65 66 68 65 66 68 66 66 67 66 66 65 62 59 58 59 58 60 59 60 58 53 52 51
53 61 61 62 64 61 58 60 59 58 62 66 65 66 63 66 66 67 66 67 63 64 64 65 65 65 64 66 64 65 66 65 64 67 66 66 65 63 59 55 55 55 54 53 51 50 50 50 52
55 57 62 63 62 60 62 59 57 60 65 65 66 67 64 66 64 63 63 62 62 63 64 63 63 65 66 64 62 62 64 64 64 63 66 66 64 62 59 54 55 53 52 51 49 49 49 50 52
56 56 58 61 62 60 59 56 57 62 62 64 65 63 63 59 57 57 58 56 57 59 60 62 62 65 64 64 62 62 61 62 62 62 63 64 65 62 60 55 55 53 53 50 49 48 47 48 49
58 53 56 58 58 58 59 53 55 62 62 62 58 62 57 56 55 53 54 54 54 56 57 59 62 62 62 62 62 61 61 61 60 61 62 62 61 61 60 55 54 54 52 50 48 48 47 46 48
52 48 44 57 58 56 56 48 59 63 60 63 58 57 53 53 53 53 53 53 53 53 55 57 60 60 61 61 60 61 61 60 60 60 62 60 61 62 58 55 52 52 50 49 48 46 45 45 45
45 41 45 51 58 55 52 48 59 62 60 57 56 52 52 51 51 51 51 51 51 52 53 54 56 56 58 60 59 59 60 59 59 59 61 61 60 59 58 56 52 51 49 47 48 44 44 42 43
42 41 46 45 54 52 49 49 55 59 61 56 50 48 49 48 48 50 50 50 50 50 51 52 54 55 56 55 56 55 56 59 60 60 61 60 60 58 57 55 51 49 47 46 45 45 43 43 43
46 45 43 48 57 49 52 49 54 58 58 54 49 49 48 47 49 49 49 48 48 49 49 50 51 52 53 53 51 52 52 53 58 59 60 60 59 58 55 54 51 47 48 46 46 44 44 42 42
48 45 43 49 54 50 50 49 53 57 56 53 49 46 46 46 46 47 46 45 45 46 47 48 49 50 51 52 50 50 48 49 55 56 57 58 58 57 55 53 51 47 45 45 44 44 41 42 42
46 44 43 45 49 48 44 42 49 54 51 51 49 48 47 45 44 44 44 42 42 43 42 46 47 48 48 49 50 50 48 47 48 52 53 54 56 56 54 53 51 49 48 46 45 43 43 41 40
42 50 48 47 41 36 44 32 44 49 45 45 45 43 43 44 44 44 43 42 42 42 42 44 46 47 47 47 46 43 42 42 43 44 45 47 49 51 52 52 51 49 47 46 43 45 43 40 39
46 48 45 43 39 35 36 33 39 44 40 41 41 42 42 42 43 42 42 44 43 42 41 41 45 45 45 45 44 43 41 41 41 42 42 43 45 46 46 47 50 48 47 46 45 45 41 41 40
49 45 43 42 38 27 37 36 37 40 43 40 42 42 43 42 42 43 44 44 42 41 40 40 42 42 44 44 43 42 41 41 40 40 40 41 41 41 43 44 42 43 46 44 44 44 43 45 41
46 42 31 27 24 27 38 34 40 42 45 44 41 39 40 40 40 40 40 40 40 39 39 42 40 40 40 41 41 40 40 39 39 39 38 37 38 38 40 39 38 39 40 41 41 39 39 42 44
42 43 33 26 23 27 36 31 40 40 42 42 42 40 42 42 42 40 40 39 39 39 38 38 38 38 38 38 38 38 38 38 38 37 37 36 37 37 38 38 38 38 39 39 39 37 37 37 38
42 38 42 33 23 24 33 38 41 41 40 40 40 40 39 39 40 39 39 39 39 38 38 37 37 37 37 37 36 36 36 36 35 35 34 34 35 39 37 36 36 36 36 36 36 35 34 35 35
45 46 33 31 19 17 27 31 33 37 37 38 37 36 37 39 39 39 39 39 39 39 38 38 38 36 36 36 36 36 35 35 34 33 32 33 33 34 34 34 35 36 35 34 34 33 33 33 34
40 37 38 38 31 22 19 28 40 41 39 38 37 38 37 37 39 39 39 38 38 38 37 37 36 36 35 36 36 35 34 34 34 32 32 31 31 32 32 32 32 33 34 33 32 33 33 32 32
42 40 39 32 27 28 32 31 40 37 38 38 37 39 38 38 39 39 39 39 40 38 38 37 36 35 35 35 34 34 34 33 32 32 31 30 30 30 31 31 31 31 32 32 32 33 34 32 33

GFSSGP_sfc_temp_018.txt.gz
Temp
67 68 64 65 56 50 45 51 53 56 56 61 63 61 58 58 61 53 66 70 70 70 73 73 75 77 77 76 76 76 76 77 77 77 77 77 76 76 76 76 76 77 77 77 76 75 73 73 72
66 73 65 56 49 44 47 52 55 57 61 61 62 61 59 58 64 64 64 71 71 71 73 73 73 76 76 76 75 75 76 76 77 77 77 76 76 76 77 76 76 76 76 76 75 74 73 72 71
70 70 60 52 45 45 48 53 54 60 61 61 59 62 60 61 63 66 68 71 69 69 72 73 73 75 76 75 75 75 76 76 77 77 77 77 76 76 75 75 75 76 76 75 74 73 72 71 71
67 64 59 51 46 51 54 55 57 58 61 62 60 58 62 65 67 68 70 70 67 68 71 71 73 75 75 75 75 75 76 76 76 77 77 77 76 75 74 74 75 75 74 74 73 72 71 70 70
62 57 49 46 48 54 53 58 58 58 58 59 61 58 59 65 64 64 66 68 66 67 68 70 73 74 75 75 75 75 76 76 76 76 77 77 76 75 75 74 75 74 74 74 73 71 70 69 69
58 54 46 43 48 56 56 59 58 57 57 60 58 58 59 63 63 65 67 65 67 66 68 70 69 71 73 74 74 75 75 75 75 76 76 76 75 75 74 73 74 74 73 73 72 70 69 68 67
55 49 45 43 47 52 58 60 56 56 55 58 61 55 59 62 67 63 64 63 66 67 67 68 69 70 69 70 71 72 73 74 74 74 74 74 74 74 73 72 73 74 73 72 71 69 68 67 67
56 52 45 44 49 51 59 61 60 58 58 64 63 55 56 62 66 62 61 63 63 65 66 67 67 68 69 70 67 69 70 71 71 71 70 69 70 70 70 69 70 73 72 71 70 68 68 67 65
57 48 44 48 50 53 59 59 62 60 58 58 63 60 62 63 63 59 58 61 61 64 63 65 66 67 67 67 67 65 67 68 68 68 66 65 65 66 65 65 68 71 71 71 69 68 67 65 63
53 45 50 55 53 52 58 55 56 58 58 56 57 64 64 59 59 61 59 60 59 61 62 62 64 66 66 68 67 66 69 68 69 68 66 65 65 63 63 62 65 68 68 69 69 68 65 58 51
52 49 54 58 58 57 58 59 56 53 55 60 59 61 64 60 59 61 59 58 58 59 60 62 63 65 65 66 66 65 68 67 65 64 64 63 65 63 61 59 60 60 61 59 61 59 52 50 49
50 58 58 60 59 57 55 59 58 56 60 64 61 59 60 60 56 53 53 53 53 57 58 61 62 62 64 65 65 65 67 67 67 65 63 65 63 62 61 60 59 56 55 54 53 50 49 49 50
52 55 59 61 59 57 58 58 56 58 62 62 62 59 54 53 52 52 53 52 52 53 54 55 58 61 63 63 62 63 66 67 66 62 63 63 63 62 61 59 58 55 53 51 50 49 48 47 49
55 56 58 59 59 57 58 53 54 62 58 60 62 53 50 51 50 50 50 50 51 53 53 54 56 59 61 62 61 62 63 63 62 62 62 62 64 62 59 58 57 53 52 50 49 48 46 46 47
55 53 55 55 55 55 56 51 54 62 59 58 53 47 49 49 49 47 49 49 49 50 52 53 56 56 59 61 60 60 60 60 60 61 61 61 62 62 60 57 56 56 51 50 48 47 46 44 46
48 46 43 54 54 53 54 48 59 62 57 53 47 44 46 47 47 47 48 48 48 48 49 52 55 54 57 58 59 60 59 59 59 60 61 61 61 60 59 57 57 56 54 49 47 45 44 43 43
42 39 42 49 55 53 51 47 58 61 56 49 45 45 46 45 45 46 46 46 46 46 48 50 52 52 53 55 56 57 58 57 58 60 61 61 60 59 58 57 56 55 53 51 47 44 45 42 42
40 39 43 43 50 49 47 49 54 59 54 47 44 43 43 43 43 46 46 46 46 45 47 48 50 50 52 52 54 55 55 58 59 59 59 60 59 57 56 55 54 53 51 49 45 45 42 42 42
44 42 42 46 53 48 49 47 51 56 49 45 43 43 43 43 45 45 45 44 44 45 46 46 47 47 49 48 47 49 48 50 56 57 57 58 58 57 56 54 53 51 50 50 49 44 43 41 40
44 41 42 46 51 48 47 47 52 51 51 48 45 42 42 42 42 44 43 43 43 43 43 45 45 45 46 47 46 47 46 47 51 54 54 54 56 55 55 53 51 50 48 48 47 47 41 41 40
42 41 41 44 46 46 41 41 48 45 45 46 44 43 43 41 40 40 41 40 42 41 41 44 44 45 44 45 46 45 45 44 45 45 46 47 50 52 52 52 51 50 49 48 47 46 45 42 38
40 48 47 44 39 35 40 31 40 45 41 41 40 38 38 39 40 41 40 40 40 39 41 42 44 44 45 44 43 41 40 38 39 39 41 43 44 44 45 46 49 49 47 47 46 47 46 44 42
45 45 44 41 37 33 35 32 37 41 37 38 37 38 38 39 39 39 39 40 39 39 38 39 41 42 42 42 42 41 39 38 39 39 40 40 41 41 41 41 42 42 45 46 45 45 44 44 43
47 44 41 37 35 27 36 36 33 38 41 37 38 38 39 38 38 39 40 40 38 37 37 38 39 39 40 40 40 39 37 38 38 37 37 38 39 40 40 40 38 39 39 39 42 43 43 43 44
43 39 29 27 24 27 35 31 37 40 40 42 38 36 37 38 38 37 37 37 37 36 36 39 37 37 37 38 37 37 37 37 36 36 35 35 36 36 36 37 36 37 37 37 37 37 38 40 41
41 42 32 26 22 27 32 30 38 37 38 40 39 38 38 40 41 39 38 38 37 36 36 36 35 35 35 35 35 35 35 36 35 34 34 34 34 34 35 35 35 35 35 36 36 34 34 34 34
40 36 41 33 22 22 31 34 37 38 36 37 37 38 37 38 38 38 39 38 38 37 37 37 35 35 35 35 34 33 34 33 32 32 32 32 32 36 34 33 33 33 33 33 32 32 32 31 32
42 45 32 30 21 16 27 29 32 34 34 35 35 35 36 37 37 37 37 37 37 37 37 36 36 35 34 34 33 33 33 33 32 31 30 30 31 31 31 31 32 32 32 31 30 30 31 31 32
38 36 37 36 30 22 17 27 37 38 38 36 35 36 36 36 37 37 37 38 38 38 37 36 35 35 34 34 33 32 32 32 31 31 30 30 29 30 30 30 29 30 30 30 29 29 30 30 30
40 39 37 29 26 27 27 30 40 40 39 38 37 38 38 39 38 37 36 35 35 35 35 35 34 35 34 34 33 32 31 31 30 29 30 29 29 29 29 29 29 29 29 29 27 29 28 28 30

GFSSGP_sfc_temp_021.txt.gz
Temp
66 66 63 63 55 50 44 48 50 54 54 58 60 59 56 58 59 53 64 67 68 69 72 73 75 77 77 76 76 75 76 77 77 77 77 76 76 76 76 75 76 77 77 76 76 75 73 72 72
65 69 64 55 49 42 46 49 52 55 58 58 60 59 56 56 62 62 63 69 69 69 72 72 73 76 76 76 75 75 76 76 77 77 76 76 76 76 76 75 76 76 77 76 75 73 72 72 71
68 67 60 50 43 43 46 51 52 59 60 59 57 59 57 59 62 62 66 68 68 68 70 72 72 75 76 75 75 75 75 76 76 77 76 76 76 76 76 75 75 75 76 74 74 73 72 71 71
66 63 57 50 44 48 49 51 54 56 60 62 58 56 60 61 63 64 66 67 66 66 69 71 73 75 75 75 75 75 75 76 76 76 77 77 76 75 75 75 75 75 75 74 73 72 71 70 70
60 55 49 45 45 51 52 55 56 55 54 57 57 58 59 63 62 63 64 66 65 65 67 69 72 74 75 75 75 75 75 76 76 76 76 76 76 74 74 74 74 74 75 73 72 71 70 69 69
56 53 46 42 45 53 54 55 56 55 55 57 55 55 58 62 62 62 62 61 64 65 66 68 69 71 72 74 74 74 75 75 75 75 76 76 75 74 74 74 76 74 74 74 72 70 69 68 68
53 48 43 40 46 50 55 59 54 54 53 56 58 53 58 62 66 63 60 59 62 65 66 66 68 69 68 70 71 72 73 74 74 74 74 74 73 73 72 72 73 75 75 73 72 69 68 67 67
53 50 42 41 46 48 57 58 57 55 55 62 60 54 54 61 63 60 59 60 60 63 65 65 66 69 69 69 67 68 70 71 71 71 70 69 69 70 70 68 70 73 73 73 71 69 68 67 66
54 47 43 45 47 51 57 57 58 58 55 58 60 57 61 63 60 57 58 61 60 62 61 64 65 66 68 69 67 65 67 68 68 68 66 66 66 67 65 65 68 71 71 71 70 68 67 65 63
51 44 49 53 52 50 55 53 55 57 57 53 55 63 63 62 59 57 56 56 56 58 61 61 62 64 66 68 67 68 69 68 69 69 69 67 65 65 65 62 64 67 68 69 69 68 65 57 49
49 49 52 55 58 56 55 53 55 52 55 56 55 59 59 55 52 52 51 50 50 53 55 57 60 62 63 67 68 67 68 68 66 67 67 66 63 63 62 62 62 60 61 59 61 58 51 50 48
48 54 55 57 57 55 54 55 55 54 60 58 55 54 51 50 49 49 49 49 49 50 52 53 54 60 62 63 65 67 67 67 66 65 64 63 63 62 61 60 60 60 59 56 53 51 50 48 48
51 53 56 59 57 55 55 55 54 57 59 58 55 52 49 48 48 48 49 49 48 49 50 51 51 54 60 61 61 62 66 68 66 65 64 62 60 61 60 60 59 59 57 56 51 50 48 47 47
53 53 55 57 57 55 55 51 52 59 57 55 52 47 46 46 46 46 47 47 47 49 49 50 51 53 57 60 60 60 65 67 65 63 63 61 61 60 60 58 58 57 57 54 51 49 47 46 45
53 50 52 54 53 53 54 48 52 58 56 52 46 43 45 45 45 44 45 45 45 47 48 49 53 53 55 58 59 59 59 61 61 60 60 61 62 62 60 58 57 57 55 53 52 48 46 45 45
48 45 42 51 51 51 53 47 56 58 54 48 43 41 43 44 44 44 45 44 45 45 46 49 52 51 54 56 57 58 59 59 59 61 61 61 61 61 59 57 56 57 55 53 51 49 45 44 43
42 38 39 47 52 50 49 46 56 55 53 44 41 42 43 42 43 44 44 43 44 43 45 47 49 49 51 54 55 55 56 59 59 60 60 60 60 59 58 57 56 55 53 52 51 48 48 43 42
39 37 40 42 48 48 45 47 52 55 52 45 40 40 40 41 41 44 43 44 43 43 45 46 47 48 49 52 54 53 54 57 57 56 57 58 58 57 56 55 54 53 52 50 49 48 46 45 43
43 41 41 43 50 45 46 45 50 50 46 41 39 39 39 40 42 43 43 42 43 43 44 44 44 44 46 46 46 48 45 51 50 51 51 54 55 56 55 53 53 51 51 49 48 46 47 45 44
41 38 40 44 48 46 45 45 50 47 44 44 40 39 39 39 39 41 41 40 40 40 41 43 43 43 44 45 44 44 44 45 45 46 46 46 47 47 52 51 51 50 49 49 47 47 45 45 44
40 39 38 42 44 43 40 39 45 41 41 42 41 40 39 38 37 37 38 37 37 38 38 41 41 42 42 44 44 43 43 42 42 41 42 42 43 43 44 45 46 46 47 47 47 46 46 44 43
39 45 45 43 38 34 38 31 38 42 37 38 37 36 36 37 37 38 37 36 36 36 38 40 41 41 42 42 42 40 38 36 37 38 40 41 41 41 41 41 42 42 43 45 44 47 45 44 43
43 43 42 39 36 32 34 31 36 39 35 35 34 36 35 36 36 36 36 37 36 36 35 36 39 39 39 40 40 39 38 37 38 37 38 38 39 39 39 39 39 39 39 38 39 41 43 44 42
46 42 40 35 34 26 36 35 32 37 39 35 35 36 36 36 36 36 37 37 35 35 35 35 37 36 37 38 37 36 35 36 36 35 35 36 36 37 37 37 36 37 37 37 37 36 37 38 41
42 38 29 26 24 26 33 30 37 38 37 39 36 35 35 35 34 35 35 34 34 34 35 36 35 34 34 35 35 35 34 34 33 32 32 32 33 33 34 34 34 35 35 35 35 34 34 34 34
39 40 30 23 22 26 31 29 37 35 35 39 39 37 36 35 36 35 35 35 35 35 34 34 34 33 34 34 33 33 33 33 32 31 31 31 31 31 32 32 32 33 33 33 33 31 31 31 31
38 35 40 32 18 21 31 33 34 35 33 34 34 34 34 35 35 36 36 36 35 35 35 35 34 34 33 33 32 32 32 31 30 30 30 29 30 34 31 30 30 31 32 31 30 29 29 29 30
40 43 32 29 20 17 27 29 32 32 33 33 33 34 34 35 36 36 36 36 36 35 34 34 34 33 33 33 32 32 31 31 30 29 29 28 28 29 29 29 29 29 29 29 28 29 29 27 28
37 34 35 35 30 23 18 29 36 36 35 34 35 36 35 35 36 35 35 36 36 35 34 34 34 33 32 33 31 30 30 30 30 29 28 28 28 28 28 28 28 28 27 28 26 26 27 27 28
36 37 37 31 27 26 27 32 38 39 38 37 36 37 36 37 36 36 36 35 34 34 34 33 32 32 32 32 30 31 30 30 29 29 28 28 28 28 28 28 28 27 27 27 25 26 27 26 27

GFSSGP_sfc_temp_024.txt.gz
Temp
65 65 63 63 55 48 42 46 48 53 52 56 58 57 54 56 57 51 63 66 66 67 70 72 75 77 77 76 76 75 76 77 77 77 77 77 76 76 76 76 76 77 77 77 76 74 73 73 73
64 67 63 54 48 41 44 47 50 52 55 56 58 57 57 54 60 64 62 66 67 68 70 72 73 76 76 76 75 75 76 76 77 77 76 76 76 76 76 76 76 76 77 76 75 73 73 72 72
66 65 59 49 42 42 44 49 50 56 57 56 55 58 56 57 61 61 63 66 66 67 69 71 72 75 76 76 75 75 75 76 77 76 76 76 76 76 76 75 75 75 76 75 74 73 72 71 71
64 62 55 49 43 45 47 49 52 55 58 59 56 54 59 60 60 61 63 65 64 65 67 70 73 75 75 75 75 75 76 76 76 76 76 76 76 75 75 75 75 75 75 74 73 72 71 70 70
58 55 48 44 44 48 50 52 53 53 53 54 55 55 56 61 61 61 61 64 64 64 66 68 72 74 75 75 75 75 75 76 76 76 76 76 75 74 74 74 74 75 74 74 72 71 70 69 69
56 52 45 41 43 50 52 53 53 52 53 55 54 53 56 60 60 60 61 59 62 64 66 67 68 70 73 74 74 74 75 75 75 75 75 76 75 74 74 74 74 75 76 76 73 70 69 68 68
52 47 42 40 43 47 52 55 52 52 52 54 56 51 57 60 63 60 60 62 63 63 64 65 67 68 68 70 71 72 73 73 74 74 74 74 73 73 73 73 74 74 75 74 73 70 68 68 67
51 49 40 39 45 46 53 55 55 53 53 61 57 53 52 57 62 61 61 60 60 61 63 63 64 69 70 69 66 68 70 71 71 71 70 68 69 70 70 68 71 73 73 73 72 69 68 67 66
52 46 42 45 47 49 53 53 55 55 53 57 58 55 57 61 60 59 56 57 57 60 60 61 63 67 69 71 68 65 66 68 68 68 67 67 66 68 67 65 68 71 71 71 70 68 67 63 60
50 44 47 50 49 48 53 51 53 55 54 52 54 58 57 54 52 52 50 49 50 51 54 55 58 63 66 68 69 68 69 67 67 68 68 68 67 65 65 63 65 67 67 69 69 68 62 55 48
47 47 49 53 55 53 52 51 52 50 50 52 54 54 52 50 49 48 48 47 47 48 51 52 53 55 64 67 68 67 68 67 67 68 69 68 65 63 63 62 63 63 62 61 61 55 51 50 47
46 52 53 55 55 53 51 53 51 52 53 54 50 49 47 47 46 45 45 46 46 47 49 50 50 51 57 66 68 66 66 66 66 66 65 65 63 62 61 61 61 61 60 59 57 54 50 49 48
49 50 53 55 55 54 53 52 52 55 54 52 51 49 46 45 45 45 45 46 46 46 47 48 49 50 52 59 64 64 65 66 66 65 65 64 62 62 61 61 60 59 58 58 56 52 50 48 48
50 51 53 55 53 52 53 49 50 51 52 50 48 44 43 44 43 43 44 44 45 46 46 48 49 51 51 56 61 62 65 65 65 64 64 63 62 60 59 59 57 58 58 57 55 53 49 47 46
51 48 51 52 50 52 52 47 49 53 52 47 43 41 42 43 43 41 42 42 42 44 45 47 51 51 53 57 59 60 62 62 62 62 62 61 62 60 60 59 58 58 56 55 53 51 50 49 46
47 44 41 49 50 49 50 47 52 53 52 45 42 39 41 42 42 41 42 42 42 42 44 46 49 49 54 56 58 58 60 60 60 61 61 61 61 61 59 58 57 57 55 54 52 50 49 49 48
41 38 38 46 50 48 47 47 50 50 49 42 39 40 41 40 41 41 41 41 41 41 43 44 46 46 51 55 56 57 56 55 53 53 55 57 58 58 58 56 55 55 54 52 51 49 49 48 48
38 36 39 40 45 45 42 47 52 52 50 42 38 37 38 38 39 41 40 41 41 40 42 43 45 45 47 52 54 53 52 50 50 49 50 50 51 54 55 54 53 53 52 50 49 48 46 46 46
42 39 40 41 47 43 46 45 50 50 43 38 36 37 37 38 39 40 40 39 39 40 41 41 42 42 45 44 43 48 43 47 45 45 45 47 47 49 49 51 51 51 50 49 48 46 46 46 45
40 38 39 43 45 45 43 43 48 44 41 41 38 37 37 37 37 39 38 37 37 37 37 40 41 41 42 42 41 41 41 42 44 43 42 43 43 43 45 45 45 46 47 45 44 44 43 44 45
39 39 37 41 42 41 37 38 43 39 39 39 39 38 37 36 36 35 36 35 35 35 34 38 39 40 41 42 42 41 40 39 40 39 40 40 41 41 41 41 41 41 43 42 42 45 43 43 43
37 43 43 41 37 33 37 29 37 38 35 36 35 35 34 35 35 35 35 34 34 34 35 36 38 39 40 41 41 39 37 36 34 35 36 38 38 38 39 39 39 39 39 38 39 41 40 40 38
42 42 41 38 34 31 33 30 36 38 36 33 33 34 33 33 34 34 34 36 34 34 33 34 36 37 37 37 39 38 36 35 33 34 35 35 36 36 36 36 36 36 37 37 37 37 37 38 37
44 41 38 33 33 25 35 35 32 35 38 33 34 34 35 34 34 33 35 35 34 33 33 33 35 34 35 36 36 35 34 33 34 32 32 32 33 34 34 34 33 34 34 34 34 34 35 34 35
40 37 29 26 23 26 32 29 36 36 36 37 36 34 34 34 33 33 33 33 33 33 33 35 33 33 33 34 34 33 32 31 31 30 30 30 30 29 30 31 30 31 31 32 32 31 31 31 31
38 38 30 23 21 26 30 28 37 34 34 35 38 35 34 33 34 34 34 33 33 33 33 33 32 32 32 32 31 31 31 32 30 30 29 28 28 28 29 29 29 29 30 30 29 28 29 29 29
37 34 38 30 15 20 30 33 34 34 32 32 32 33 32 33 33 34 35 34 33 33 33 33 33 33 32 32 31 31 31 30 29 29 29 28 29 32 29 28 28 28 28 28 28 26 27 27 27
40 42 32 29 21 18 27 28 33 34 33 31 31 32 33 34 34 34 34 34 35 36 36 35 35 33 32 32 32 31 30 30 29 29 28 28 28 29 28 28 28 27 27 27 26 26 26 26 26
35 33 34 35 30 25 19 29 35 36 34 32 33 35 34 34 34 34 34 34 34 34 32 32 32 32 31 31 29 30 29 28 28 28 27 27 27 27 27 27 27 27 26 26 24 24 26 25 25
36 36 36 32 27 25 27 33 35 34 35 36 35 36 35 35 35 35 35 34 33 33 33 32 32 32 31 30 29 30 29 29 28 27 27 27 27 27 27 27 26 26 26 25 24 25 24 23 25

GFSSGP_sfc_temp_027.txt.gz
Temp
69 68 68 66 60 54 50 56 60 61 63 66 67 67 66 68 64 60 73 72 71 72 74 76 75 77 77 76 76 76 76 77 77 77 77 77 77 77 77 77 76 77 77 77 76 74 74 73 73
68 71 66 59 52 48 52 57 58 61 65 65 65 66 66 66 70 72 72 71 72 72 74 75 73 76 76 76 75 75 76 77 77 77 77 77 77 76 76 76 76 76 77 76 75 74 73 72 72
70 68 63 53 47 48 52 58 60 63 64 65 65 67 68 68 71 71 71 72 71 72 73 74 72 75 76 75 75 75 76 76 77 77 77 76 76 76 76 75 76 76 76 76 74 73 72 72 72
67 65 59 53 51 54 56 59 61 63 65 65 65 66 69 71 71 71 71 70 71 71 72 72 73 75 75 76 76 75 76 76 76 76 76 76 76 76 75 75 75 75 75 75 73 72 71 71 71
61 59 52 49 51 55 57 61 62 61 62 65 64 64 66 70 71 71 70 70 70 69 71 72 72 74 75 75 76 75 75 76 76 76 76 76 75 75 74 74 75 75 76 75 73 71 70 70 70
58 56 49 48 51 56 59 61 62 61 62 64 64 63 66 68 68 68 69 69 69 69 69 71 68 70 72 74 75 75 75 75 75 75 75 75 75 74 74 74 74 75 76 75 73 70 69 69 69
55 50 47 48 49 54 58 60 60 61 61 63 65 63 67 67 64 66 66 67 67 68 69 69 71 69 67 70 71 73 74 74 74 74 74 73 73 73 73 73 74 75 74 74 73 70 68 68 68
53 52 47 47 51 52 59 60 61 62 63 66 67 62 63 64 63 65 64 63 64 64 64 66 69 70 71 73 66 68 70 71 71 71 70 69 69 70 70 69 71 73 73 73 71 68 68 66 66
56 49 45 49 50 55 59 59 61 62 62 63 64 62 58 57 59 59 58 58 58 59 59 60 61 68 71 71 69 65 66 68 68 69 67 68 74 73 69 66 69 71 71 71 69 68 65 61 60
53 47 51 54 55 55 57 57 58 60 59 61 62 60 56 55 54 53 53 53 54 55 56 58 57 59 63 69 70 69 70 70 72 73 73 70 71 69 68 64 65 67 68 69 69 66 61 59 60
51 51 53 56 58 58 57 56 58 57 55 60 59 58 53 52 51 50 51 50 50 52 55 56 56 56 58 65 69 69 69 69 71 72 71 71 68 66 66 64 65 65 62 64 63 60 61 59 59
51 53 54 57 57 56 54 57 57 57 58 56 52 51 50 49 48 48 48 49 49 51 52 53 54 55 57 62 66 68 68 68 67 67 67 68 66 65 65 63 63 63 63 62 60 59 59 58 57
51 52 55 56 56 55 54 55 56 56 52 51 50 48 47 47 47 47 47 49 48 48 50 51 52 54 56 59 65 66 66 67 67 68 66 65 64 64 63 64 64 63 62 61 60 57 56 59 57
53 52 54 55 55 54 54 52 54 54 50 48 47 45 45 45 45 46 46 46 46 47 48 50 52 54 56 59 64 64 65 66 65 64 64 64 64 63 62 61 61 61 64 64 59 57 56 55 57
52 50 53 53 52 54 54 48 51 55 52 46 44 44 44 44 44 43 44 44 44 46 47 49 52 54 59 62 62 62 62 62 61 61 61 61 62 62 61 61 60 59 59 58 57 57 56 54 54
48 47 44 51 51 51 53 49 53 53 53 47 44 43 43 43 43 43 44 44 45 45 46 49 50 53 56 58 57 56 54 54 53 54 55 57 58 59 58 58 57 57 56 55 54 52 53 53 54
43 41 41 47 51 50 50 49 53 52 51 45 43 43 43 42 43 43 43 43 44 44 45 47 49 50 54 54 53 52 52 52 51 51 51 53 54 56 56 54 54 55 53 52 52 50 50 50 49
40 39 40 42 47 47 45 49 52 52 50 45 41 41 41 41 40 42 42 43 43 43 44 46 48 48 52 53 52 51 49 48 48 48 49 50 50 52 52 52 52 53 52 51 51 50 48 47 47
43 41 43 43 48 46 46 46 52 50 45 40 39 40 40 40 42 42 41 41 42 42 43 43 45 46 50 49 50 47 45 46 45 45 45 47 47 48 49 50 50 52 50 49 50 51 51 51 51
42 40 40 44 46 46 44 44 50 48 45 43 40 39 39 40 40 40 40 40 39 40 40 42 43 44 47 47 46 46 45 44 44 44 44 45 45 45 46 46 46 47 47 46 47 48 49 49 49
40 40 38 42 42 42 40 40 43 42 41 40 40 40 39 39 38 38 39 38 39 38 38 40 41 42 44 46 46 45 44 44 43 42 42 41 43 43 43 43 43 43 44 43 44 45 45 45 47
37 43 43 41 39 35 40 32 40 40 38 37 36 36 37 37 38 38 38 37 37 37 38 39 39 40 42 43 43 42 41 39 38 39 40 40 40 40 40 41 41 41 42 41 42 43 43 45 41
42 42 41 39 37 35 36 33 38 38 40 36 35 36 36 37 37 37 37 37 37 37 37 37 39 39 40 41 42 40 38 38 38 38 39 39 39 38 38 39 39 39 39 39 39 39 40 41 41
43 40 38 35 34 27 35 36 35 38 41 36 36 36 36 36 36 37 37 37 36 37 37 37 38 37 38 39 39 40 38 38 37 37 36 36 36 37 36 36 36 37 37 37 37 37 37 37 39
39 38 30 27 25 27 32 31 38 42 40 40 38 36 36 36 35 36 36 36 36 36 36 37 37 35 36 37 37 37 37 37 36 35 35 35 35 34 34 35 34 35 35 35 36 35 35 35 35
37 38 31 24 23 28 29 29 38 38 36 36 38 37 36 35 35 35 36 36 36 36 36 36 35 35 35 36 35 36 36 36 35 34 34 33 34 33 34 34 34 33 33 33 34 33 34 34 34
38 35 38 30 16 23 32 35 40 36 35 34 33 34 34 35 35 36 36 36 35 35 35 35 35 34 35 34 35 34 35 34 33 33 34 33 33 34 33 33 33 33 33 32 32 31 31 31 32
40 42 33 30 21 17 28 31 36 35 36 33 32 33 34 34 35 36 36 36 36 36 36 35 36 35 34 34 34 34 33 33 33 33 32 32 32 32 32 32 32 32 32 31 31 30 30 30 30
36 34 34 36 31 24 20 29 37 40 38 35 34 35 36 36 36 36 37 36 36 36 35 35 34 34 33 34 33 33 32 32 32 32 32 32 32 31 31 31 31 30 30 30 29 29 30 29 29
36 37 37 31 27 26 27 32 37 37 38 37 36 36 36 38 38 37 37 36 35 34 34 34 34 33 34 33 32 33 32 32 32 31 31 31 30 30 30 29 29 29 28 28 27 27 27 27 27

GFSSGP_sfc_temp_030.txt.gz
Temp
80 84 89 86 75 74 64 65 72 69 71 76 76 75 76 77 72 67 82 83 81 83 83 81 76 77 77 76 76 76 76 77 77 77 77 77 77 77 77 77 77 77 77 76 75 74 74 73 73
85 83 87 82 71 64 64 69 68 72 75 76 75 76 76 72 79 80 82 81 81 83 83 83 74 76 76 76 76 76 76 77 77 77 77 77 77 77 77 76 76 76 77 76 75 74 73 73 73
82 83 82 76 70 64 64 69 72 74 75 75 75 78 77 75 80 81 80 81 80 82 83 83 73 76 76 75 75 76 76 77 77 77 77 77 77 76 76 76 76 76 76 76 74 73 72 72 72
84 85 80 73 64 66 69 72 74 74 75 75 76 75 78 80 79 80 80 81 81 81 82 76 73 75 76 75 75 76 76 76 77 77 77 77 76 76 75 75 75 75 75 74 74 72 71 71 71
84 82 72 66 64 68 71 73 74 73 74 76 76 73 75 78 80 80 80 80 81 80 80 80 72 74 75 76 77 76 76 76 76 76 76 76 76 75 75 75 75 76 75 74 72 71 70 70 70
80 78 69 64 65 68 72 73 74 74 74 75 76 75 73 78 77 77 79 79 80 79 77 79 71 70 73 74 75 76 75 75 76 76 76 75 75 75 75 75 75 75 75 74 72 70 69 69 69
74 73 65 65 66 66 70 73 73 74 74 74 76 73 76 77 74 76 77 78 77 76 76 77 79 74 67 70 71 73 75 74 75 75 75 74 73 73 74 73 74 74 74 73 71 69 68 68 67
76 74 63 65 64 65 72 72 74 74 73 76 77 73 73 73 72 75 76 75 75 72 72 72 74 73 73 78 66 67 71 72 72 72 71 70 69 70 70 69 72 73 73 72 69 68 67 66 65
72 70 64 64 64 68 71 71 73 74 74 74 73 71 66 67 71 73 73 74 72 71 71 71 71 71 69 73 72 66 65 67 68 70 67 68 79 78 74 69 69 71 71 70 69 67 65 63 61
73 69 65 70 71 70 71 71 71 71 71 71 70 67 67 68 69 68 67 68 67 67 67 68 69 70 71 71 72 73 72 78 79 80 80 80 80 79 75 67 65 68 68 69 68 66 62 65 72
66 68 67 68 70 71 69 69 72 70 69 71 70 67 64 65 65 64 64 63 63 65 67 66 66 67 69 73 75 74 72 72 78 79 80 78 70 70 68 68 68 69 64 69 68 66 73 69 70
66 66 67 67 68 67 67 70 69 70 70 65 65 63 62 62 61 60 60 61 61 63 64 65 65 66 68 71 74 72 71 72 72 77 75 77 74 68 67 67 66 65 66 65 65 64 65 68 67
65 65 65 67 66 66 65 67 69 69 64 63 61 60 60 60 58 58 59 60 60 61 62 63 64 65 68 68 72 71 70 70 69 71 69 68 70 69 71 68 66 66 67 69 64 61 60 63 66
66 64 66 67 66 65 64 66 65 65 63 61 61 60 58 57 56 58 58 58 58 58 60 62 61 61 68 70 69 67 67 65 65 63 64 64 66 65 65 65 66 65 64 63 62 59 58 57 57
63 63 67 68 65 65 65 59 62 65 62 60 58 57 55 55 56 55 55 56 56 58 59 55 56 61 65 64 60 58 59 59 58 59 61 61 62 63 62 60 59 59 60 58 58 57 58 58 62
61 61 59 64 62 61 63 62 65 63 62 61 58 57 55 53 54 54 54 55 56 57 56 53 55 56 56 55 55 55 55 54 54 55 57 59 60 61 59 57 56 57 56 55 54 54 54 55 59
58 58 56 59 62 61 61 62 63 64 64 61 60 58 56 54 54 54 54 54 55 56 55 52 53 54 53 53 52 52 53 53 54 56 56 55 57 57 55 55 55 55 54 54 54 55 53 53 53
56 54 54 57 60 59 60 61 63 62 63 64 60 56 55 53 50 51 52 53 54 55 56 52 52 54 53 53 52 53 53 55 56 54 54 55 55 56 57 55 56 58 58 57 58 57 57 58 58
58 56 57 58 59 57 60 60 66 65 61 60 58 55 54 50 50 52 51 52 54 54 56 53 53 53 55 54 53 53 54 54 53 53 54 56 56 57 58 57 58 58 56 56 57 59 58 57 58
55 55 56 57 56 56 58 56 64 63 61 62 60 55 53 50 51 50 51 52 52 52 53 54 53 53 56 58 56 56 53 53 53 52 52 53 52 53 54 54 53 55 55 54 54 54 56 55 56
53 53 55 54 53 54 53 55 58 59 52 51 54 55 52 52 51 50 49 50 51 50 50 51 53 54 55 55 55 53 54 53 51 51 50 50 52 51 50 51 51 51 52 50 51 52 52 51 53
51 56 54 51 50 47 52 48 55 57 52 48 48 50 50 50 50 49 49 50 49 49 50 51 51 52 53 55 56 55 53 48 48 49 48 48 49 48 49 49 49 49 49 48 48 50 50 50 47
53 52 52 50 49 46 48 46 54 50 51 49 48 49 50 50 50 48 48 47 47 48 48 49 50 50 51 53 53 52 49 48 49 49 47 47 47 46 46 47 47 47 47 46 46 47 47 48 47
50 49 48 47 46 39 47 48 51 55 55 51 49 48 48 48 48 48 47 47 46 47 47 48 49 48 50 51 52 51 48 48 47 47 46 46 46 45 44 44 44 44 44 44 44 44 43 44 45
51 49 41 37 36 37 42 42 53 58 52 52 49 48 47 47 47 47 45 46 46 46 46 47 48 46 49 49 49 49 49 49 47 47 46 44 43 43 42 43 42 42 41 41 42 41 41 41 41
48 51 44 32 34 41 36 38 50 47 46 46 48 49 47 46 47 47 47 47 46 45 46 47 47 45 47 47 46 47 47 48 46 45 45 44 43 42 42 42 41 41 40 41 41 40 39 39 39
46 42 50 38 28 36 45 46 52 43 44 44 44 45 45 46 46 46 47 47 46 46 46 46 46 45 46 45 46 45 45 45 43 43 44 43 42 41 41 41 41 41 40 40 40 39 37 38 37
49 52 40 42 31 31 41 42 50 43 46 43 41 43 45 46 46 47 48 48 47 47 46 47 47 45 45 44 45 44 44 43 43 43 42 41 40 41 40 40 40 40 39 39 39 38 38 37 38
43 44 43 46 42 36 37 44 53 54 51 47 47 46 46 46 47 47 48 48 47 47 46 46 45 44 43 43 43 42 42 42 43 42 41 41 40 40 39 38 38 37 37 37 37 36 36 34 34
51 49 47 42 34 38 36 43 46 49 52 51 51 47 48 49 48 49 48 47 46 45 45 45 45 43 44 43 42 42 42 42 42 41 41 40 39 38 37 36 36 35 35 34 34 33 33 32 32

GFSSGP_sfc_temp_033.txt.gz
Temp
83 92 93 88 75 77 67 67 77 73 75 80 81 80 77 79 73 66 85 87 85 87 86 81 76 77 77 76 76 76 77 77 77 77 77 77 77 77 77 77 77 77 76 75 75 74 74 73 74
91 90 90 86 73 67 67 74 71 75 78 81 80 80 80 74 83 82 84 85 85 87 87 85 74 76 76 76 76 76 77 77 77 77 77 77 77 77 77 76 76 76 76 75 74 73 73 73 73
87 89 84 79 74 68 67 74 76 77 80 79 79 83 81 76 83 84 84 85 86 86 87 83 74 76 76 76 76 76 76 77 77 77 77 77 77 76 76 76 76 76 76 75 74 72 72 72 72
88 88 86 74 68 71 74 77 79 77 79 80 81 76 81 82 81 83 84 86 86 85 86 75 74 76 76 75 76 76 76 77 77 77 77 77 76 76 76 75 75 75 75 74 73 71 71 71 71
89 85 75 71 68 73 76 79 79 77 78 80 80 76 75 79 84 85 84 85 85 84 85 82 73 75 76 76 75 75 76 76 76 76 76 76 76 75 75 75 75 75 74 73 72 71 70 70 70
81 83 71 66 70 73 77 79 79 78 79 79 79 78 74 80 80 81 83 83 85 82 81 82 71 70 73 75 76 76 76 75 75 75 76 75 75 75 75 75 75 75 74 72 71 70 69 69 68
77 75 71 72 70 70 75 79 77 78 78 77 81 75 76 76 77 80 81 81 80 80 80 81 81 76 67 69 72 73 75 75 75 75 75 74 74 73 74 74 74 74 73 72 70 69 68 68 67
81 78 69 72 69 69 76 77 79 78 77 82 81 76 74 73 76 79 80 80 79 77 77 77 78 76 77 80 66 67 68 72 73 73 71 70 70 71 71 70 72 73 72 70 69 68 67 66 65
80 72 68 70 71 73 76 75 79 80 78 78 77 76 72 74 77 78 77 78 76 75 75 75 75 76 76 76 74 66 65 66 68 70 67 68 78 77 73 68 69 71 71 70 69 67 66 64 64
76 71 71 76 78 75 76 76 76 75 76 76 73 73 73 75 75 74 74 74 73 72 73 73 73 73 74 75 76 76 79 79 80 80 80 78 79 79 75 69 66 68 68 69 68 66 65 66 73
74 71 73 73 75 77 75 74 77 75 72 77 75 73 71 72 72 71 71 70 68 71 72 72 71 72 73 76 75 77 76 76 78 80 79 78 76 75 73 69 68 70 65 71 68 66 69 70 71
70 72 73 72 72 71 71 76 73 75 74 74 73 73 71 69 67 66 65 66 66 68 69 70 70 71 72 74 76 74 73 74 77 77 76 76 73 72 69 68 68 71 68 67 66 65 64 67 69
70 71 71 72 70 71 71 71 72 74 71 70 68 68 67 66 65 65 65 66 66 65 66 67 67 67 71 72 74 71 69 71 71 70 70 71 72 72 71 68 69 66 67 68 67 66 64 62 64
71 69 71 72 71 71 67 71 69 75 71 68 68 67 66 64 63 65 64 63 63 63 63 63 62 65 72 73 63 62 63 62 62 61 64 66 66 64 64 63 62 62 63 64 62 60 61 60 60
69 65 71 71 70 68 69 64 63 75 69 67 67 66 64 62 63 61 61 61 61 63 60 57 59 61 61 59 57 56 57 57 56 57 60 61 62 63 61 59 57 57 58 58 57 57 58 61 62
65 66 62 68 67 66 66 63 72 69 67 66 67 67 63 59 60 60 60 60 62 62 56 55 58 57 56 55 54 56 57 58 57 58 60 60 61 60 60 58 56 56 55 55 54 54 53 54 53
64 60 62 65 68 65 64 65 67 68 68 68 67 66 64 61 60 59 59 60 60 61 56 54 55 54 53 53 54 54 55 57 57 58 59 59 59 57 57 56 55 55 55 55 56 58 57 57 60
61 59 63 61 65 63 63 63 67 67 68 69 69 66 63 61 57 57 58 58 60 60 56 55 55 54 53 54 54 55 55 55 59 59 60 60 60 61 61 61 60 61 60 60 61 60 61 59 58
65 61 61 67 65 60 63 65 69 69 66 67 70 66 63 60 58 58 57 58 58 59 55 55 55 55 56 55 56 55 54 56 55 55 57 58 58 59 59 59 59 59 57 57 58 60 58 56 57
61 58 59 65 63 59 61 61 67 71 67 68 70 67 63 58 57 56 57 57 58 58 56 55 55 57 59 60 60 58 57 56 55 55 55 55 54 55 56 55 55 56 54 53 54 54 56 55 55
58 57 59 59 58 59 58 56 60 67 70 70 66 69 64 59 57 55 55 56 56 56 56 56 57 59 59 59 58 56 55 55 53 52 51 52 53 53 52 53 52 52 53 50 50 51 51 50 52
55 64 59 57 54 49 58 47 61 65 60 59 59 61 60 59 58 56 54 54 54 54 55 56 56 57 58 59 58 57 55 50 51 50 50 50 51 51 51 51 51 50 50 49 49 51 49 49 46
57 59 57 56 52 51 53 46 57 64 61 58 57 57 58 58 56 54 54 53 53 52 53 54 54 54 57 58 58 55 51 51 51 50 49 48 48 48 48 48 48 47 48 47 47 46 47 48 46
57 54 52 52 51 40 48 49 53 58 56 62 57 56 56 55 55 54 53 52 51 50 51 52 52 52 54 55 55 53 50 50 49 49 48 47 47 47 46 46 46 46 45 45 45 45 43 44 44
55 51 43 39 37 38 48 47 54 62 57 60 56 55 55 54 53 52 49 50 50 49 49 50 51 50 53 53 53 53 52 52 50 49 48 46 45 44 44 45 44 44 44 44 44 42 41 41 41
50 52 44 34 37 43 41 40 52 60 57 54 60 56 54 52 52 51 51 50 49 48 48 50 50 49 51 51 51 52 52 52 50 49 48 46 45 44 44 44 44 43 43 43 43 41 39 39 39
49 46 55 42 32 37 47 51 59 49 48 50 53 53 50 50 51 51 52 51 48 48 48 49 49 49 50 49 49 49 50 49 47 47 46 45 44 43 43 43 43 43 42 41 42 39 38 39 39
53 57 41 43 32 33 46 49 50 45 49 49 48 49 49 50 51 51 51 50 50 50 49 50 50 48 48 48 49 48 47 47 46 46 44 44 42 42 42 42 42 41 41 40 40 38 38 37 37
46 46 48 50 46 39 38 48 62 59 57 51 49 50 51 51 51 51 51 51 50 50 48 49 49 48 46 47 47 45 44 45 45 44 43 43 42 42 41 40 40 39 38 37 37 37 36 34 35
55 51 50 42 36 41 42 46 54 63 63 56 53 52 53 52 52 52 52 51 49 48 47 47 48 47 46 46 46 44 44 44 43 43 43 42 41 41 39 39 38 37 37 36 35 34 34 33 33

GFSSGP_sfc_temp_036.txt.gz
Temp
78 85 84 76 61 62 57 58 68 67 66 71 71 71 66 69 65 54 74 79 80 79 78 77 76 76 76 76 76 76 76 77 77 77 77 77 77 77 77 76 76 76 76 75 75 74 74 74 74
80 87 78 71 58 54 55 65 64 67 70 72 70 70 69 64 73 73 71 79 80 81 79 78 74 76 76 76 76 76 76 77 77 77 77 77 77 77 77 76 76 76 76 75 74 73 73 73 73
81 86 69 64 60 56 56 65 66 70 70 69 68 73 69 65 72 71 74 79 81 80 81 76 74 76 75 75 75 76 76 76 77 77 77 77 77 76 76 76 75 75 75 74 73 72 72 72 72
80 75 72 60 58 63 65 68 70 70 71 71 71 64 69 72 71 73 78 78 79 79 77 73 75 76 76 76 75 76 76 76 77 77 77 77 76 76 75 75 75 74 74 73 72 72 71 71 71
77 72 61 58 60 64 69 72 68 69 67 70 67 63 63 70 76 76 76 79 77 76 74 74 74 75 76 76 75 75 76 75 76 76 76 76 76 75 75 75 75 74 73 72 72 71 71 70 70
68 70 58 55 60 65 69 70 68 69 70 67 65 65 61 70 71 72 75 73 76 75 76 74 71 71 73 75 75 75 75 75 75 75 75 75 75 75 75 75 74 74 72 72 71 70 70 69 69
64 62 57 59 60 61 67 69 64 67 67 67 69 62 62 65 67 72 71 71 71 72 73 74 73 71 66 68 70 73 74 74 75 75 74 74 73 73 73 73 74 73 72 71 70 69 69 68 68
67 64 58 57 60 60 68 69 70 68 64 71 70 61 57 61 67 71 70 69 68 68 68 69 71 73 74 72 65 66 68 70 73 72 71 69 70 70 70 69 72 73 72 71 70 69 68 68 67
69 58 56 58 60 63 69 66 67 67 67 68 68 62 63 67 70 67 66 66 65 67 66 66 66 68 71 73 68 65 65 66 69 69 67 65 69 69 68 67 69 71 70 70 69 68 67 66 65
63 57 60 67 67 64 68 66 68 64 67 62 62 64 66 66 65 65 62 60 61 61 62 63 63 64 66 72 73 73 73 70 71 71 69 70 70 70 70 64 66 68 68 69 68 67 66 64 61
63 58 65 67 68 69 68 63 66 62 61 64 64 62 64 64 63 62 61 59 57 58 62 62 62 63 64 65 69 71 68 68 71 73 70 70 68 66 65 63 64 65 64 63 64 63 64 62 60
59 65 68 67 65 65 63 67 62 65 59 66 65 65 64 61 59 58 57 57 57 58 59 61 61 62 63 63 66 70 67 67 66 67 67 67 66 65 65 64 65 65 63 63 62 58 58 60 62
61 64 66 67 63 62 66 61 63 62 63 64 64 64 61 59 58 58 58 58 57 56 57 57 57 58 63 63 65 65 63 63 63 63 64 66 65 64 64 64 64 63 63 62 62 60 58 56 59
64 64 65 66 65 64 60 61 62 64 63 60 62 60 58 58 57 56 56 55 55 57 54 55 58 59 59 60 60 59 60 60 58 60 62 63 63 61 61 59 59 59 59 59 58 57 57 56 57
63 57 62 64 64 61 61 56 59 64 63 60 60 58 57 57 57 54 54 54 53 54 54 54 56 57 57 56 55 56 57 57 57 58 60 59 61 60 58 56 55 55 56 56 55 55 55 55 56
57 56 50 60 63 58 57 51 62 63 60 59 59 55 55 55 56 54 54 54 53 53 51 55 56 55 54 54 55 55 56 56 56 55 55 55 56 55 55 55 54 54 54 54 53 53 53 54 54
55 47 52 54 62 58 55 52 58 61 60 58 57 56 56 54 53 53 53 52 53 52 53 54 54 53 53 53 54 55 56 56 56 56 57 57 54 54 53 52 52 54 54 53 54 53 52 49 49
49 48 54 51 57 57 53 52 59 60 60 58 57 56 55 54 53 53 53 53 53 51 54 53 53 52 53 54 54 54 54 55 55 53 52 53 53 54 53 52 52 52 50 50 50 50 49 48 46
57 53 51 56 57 54 54 55 60 59 58 57 57 56 54 54 52 52 52 51 52 51 53 53 52 52 53 53 52 52 50 50 48 49 49 50 51 52 50 49 50 49 48 47 49 49 47 46 47
56 51 50 56 57 52 52 53 59 61 59 60 61 58 55 51 49 51 50 50 50 50 52 53 53 54 55 56 55 53 49 47 47 46 47 48 48 48 49 46 46 45 44 44 44 44 44 43 45
51 49 50 51 52 50 47 45 53 59 64 62 61 60 58 51 48 48 48 47 48 50 52 53 54 55 55 54 51 49 48 45 44 42 42 45 46 45 44 44 43 42 42 41 40 40 40 38 40
48 55 55 52 45 39 48 35 49 56 57 61 57 53 52 51 51 49 48 46 46 46 53 54 54 54 54 51 48 46 44 41 41 41 41 42 42 42 43 42 42 41 40 39 39 41 39 38 36
50 53 50 48 44 40 41 38 45 55 54 55 50 51 51 50 49 47 47 47 46 45 46 49 47 49 50 50 48 46 43 41 40 40 40 39 39 40 40 40 39 38 38 37 37 36 36 36 35
53 49 47 44 42 31 42 42 41 51 55 54 52 51 51 49 47 47 46 46 44 43 44 44 45 46 48 47 46 44 41 41 40 39 37 37 37 37 38 39 37 37 37 36 35 35 34 34 34
49 44 33 29 27 29 41 39 46 51 51 53 53 51 50 48 47 45 43 42 41 41 42 44 44 44 46 46 45 44 43 42 40 39 37 36 35 35 36 37 35 35 36 36 35 33 32 32 31
44 46 34 28 27 30 34 32 43 48 49 50 54 52 49 47 47 44 43 43 42 42 42 43 43 43 44 44 43 43 43 41 40 40 38 36 35 35 36 36 35 35 36 35 34 31 31 30 30
43 39 50 36 26 26 36 41 50 45 44 45 48 48 47 47 46 45 45 43 41 41 41 42 42 42 43 42 42 42 41 40 39 39 37 35 35 37 36 35 34 34 34 34 32 30 29 30 30
46 49 35 35 22 23 34 39 42 39 43 43 45 46 47 47 46 46 46 44 43 42 42 42 42 42 41 41 41 41 40 39 38 37 35 35 34 35 34 34 34 33 32 32 31 29 29 28 28
41 40 43 43 36 28 27 36 49 50 49 44 46 48 47 47 47 47 46 45 43 42 42 41 41 41 40 40 39 37 37 38 37 35 34 33 33 34 33 33 32 31 30 30 29 29 29 28 28
46 44 44 34 32 37 31 40 49 50 51 49 47 48 48 47 47 47 46 45 43 42 42 42 40 39 38 39 37 36 36 35 35 34 34 33 33 32 32 32 31 30 30 30 29 28 28 27 27

GFSSGP_sfc_temp_039.txt.gz
Temp
70 74 70 69 58 53 47 53 56 58 58 63 66 66 61 59 60 50 70 74 75 74 75 75 75 76 76 76 76 76 76 77 77 77 77 77 77 77 77 76 76 76 76 75 75 75 74 74 73
69 78 70 61 52 45 47 52 57 59 64 68 68 64 62 58 67 67 66 75 76 75 75 75 73 75 75 75 75 76 76 77 77 77 77 77 77 77 76 76 75 75 75 74 74 74 73 73 73
72 75 63 56 50 46 49 53 59 63 65 64 64 65 60 60 65 66 70 76 75 75 76 75 73 75 75 75 75 76 76 76 77 77 77 77 76 76 76 75 75 74 74 74 73 73 73 72 72
71 67 63 54 49 56 57 57 63 63 64 69 63 58 62 66 66 70 73 75 74 74 75 72 74 75 75 75 75 75 76 76 76 77 77 77 76 75 75 75 74 73 73 73 73 72 72 71 71
67 61 53 49 52 57 56 63 63 61 61 62 63 58 58 65 70 70 69 73 71 70 73 73 73 75 75 75 75 75 75 76 76 76 76 76 75 75 75 74 74 73 73 72 72 71 71 70 70
62 60 50 46 50 59 59 62 64 61 61 63 60 57 56 62 68 66 68 66 70 70 71 72 69 71 73 74 74 75 75 75 75 75 75 75 75 75 75 74 73 73 72 72 71 71 70 70 70
58 53 48 47 51 54 61 63 59 62 59 60 66 55 56 59 65 67 65 65 66 68 69 71 70 68 67 68 70 72 74 74 74 74 74 73 73 73 73 73 73 73 73 72 71 70 70 70 70
59 56 50 48 53 53 62 63 64 64 58 65 63 55 52 59 66 65 63 63 63 64 64 65 69 72 71 69 65 66 70 71 72 71 70 69 69 70 70 69 71 72 71 71 70 69 70 70 69
61 51 48 52 55 57 61 60 63 64 64 61 60 57 58 64 65 63 60 59 59 62 61 62 63 64 69 71 67 64 65 66 68 68 66 64 67 68 68 66 69 71 70 70 69 69 68 66 65
56 48 52 57 57 57 63 60 63 60 59 56 55 59 61 61 60 59 56 55 55 56 58 59 59 62 64 70 71 71 70 68 69 69 67 68 67 69 68 65 65 67 67 68 68 68 65 62 58
56 52 58 59 60 63 63 60 63 60 55 58 58 58 60 58 57 56 55 54 54 53 57 58 58 59 61 63 66 70 70 66 67 68 68 68 66 66 64 62 62 62 62 64 63 62 60 59 57
52 59 60 62 62 61 58 61 58 59 57 59 59 59 57 56 55 54 54 53 53 54 54 55 55 56 58 60 62 67 64 63 63 64 66 67 66 65 63 64 64 63 63 59 60 59 59 58 61
54 57 61 61 59 58 61 57 58 55 56 59 60 59 55 54 54 54 54 54 53 52 51 53 54 55 57 59 64 62 59 59 61 61 64 65 63 64 64 63 62 61 59 62 58 57 56 56 57
57 58 59 61 60 59 58 55 56 57 56 57 58 54 53 54 53 52 52 52 53 52 50 52 53 55 56 60 59 57 58 58 60 60 61 62 61 60 60 58 58 58 58 58 57 54 54 56 56
58 53 56 59 59 57 58 54 56 57 56 55 54 51 52 53 53 51 51 51 51 50 51 52 53 57 52 56 55 55 57 57 55 57 58 59 60 58 57 56 55 55 56 56 55 55 55 55 56
52 49 45 55 58 56 56 48 58 57 55 53 52 49 51 52 52 50 52 51 49 49 50 53 54 54 54 54 55 55 56 56 55 54 56 56 56 54 52 52 52 54 54 52 51 52 50 50 48
46 41 45 52 56 55 52 49 55 56 56 52 50 49 50 49 49 49 51 50 48 49 49 50 52 52 53 54 55 55 56 55 55 55 54 54 53 52 51 50 50 50 49 50 51 48 47 44 45
43 43 48 47 54 52 48 49 54 56 55 54 51 49 49 49 49 49 50 50 48 48 49 50 52 52 53 53 54 53 52 52 53 52 51 50 51 51 51 49 48 48 47 46 47 46 45 43 42
49 46 45 49 54 51 49 50 54 56 53 51 50 50 50 50 48 49 49 48 47 47 48 50 51 52 53 52 51 50 48 49 48 47 46 47 48 48 48 47 46 45 44 43 46 45 43 42 40
49 46 45 50 53 50 49 49 53 55 54 56 56 54 52 46 46 47 46 46 46 46 47 49 52 53 54 54 53 51 49 47 45 44 44 45 45 45 46 44 42 41 43 42 40 41 40 39 40
48 46 45 48 48 47 45 42 48 54 57 56 58 58 55 49 46 45 45 44 44 44 46 51 53 54 53 52 51 49 48 46 42 40 40 41 43 43 42 42 41 40 40 39 37 38 38 37 38
44 50 51 48 43 37 44 34 44 51 52 52 57 53 53 48 47 47 45 43 44 44 47 52 53 53 52 52 49 45 43 40 38 38 38 39 40 41 41 40 40 38 38 37 37 38 36 36 34
47 50 47 46 40 36 37 35 42 50 50 56 55 54 49 48 47 46 46 46 44 44 46 51 52 52 51 50 46 44 41 41 40 38 38 37 38 38 38 38 38 37 37 35 35 34 34 34 33
50 47 45 42 39 28 39 39 37 47 52 54 48 47 47 46 46 45 44 44 42 41 42 45 49 49 49 45 44 44 41 40 38 37 36 36 36 36 36 37 35 35 35 34 33 32 32 32 31
47 43 31 28 26 30 38 35 45 49 52 53 52 47 46 46 44 43 41 41 40 39 40 42 43 43 43 44 43 43 42 42 40 38 37 36 35 33 34 35 34 34 33 33 32 31 31 30 29
41 43 32 26 25 28 34 31 41 49 50 48 52 51 46 44 45 43 42 41 41 41 40 42 41 41 42 43 43 43 42 42 41 39 37 35 35 34 34 33 33 33 33 32 31 30 29 29 28
41 39 46 35 21 24 33 39 46 45 45 43 45 46 45 45 43 41 41 41 40 39 40 41 40 40 41 42 42 42 41 41 40 37 35 35 34 35 33 33 32 32 32 32 30 29 28 28 28
45 47 36 33 22 20 30 33 41 41 45 43 43 44 45 45 42 42 41 40 40 41 40 39 41 41 41 41 42 41 40 39 38 37 34 34 33 33 32 31 31 31 31 30 29 27 28 27 27
41 39 42 43 34 27 25 36 45 50 50 44 45 46 46 45 44 42 42 41 41 41 40 41 41 40 39 40 38 38 36 37 36 35 33 33 32 32 32 31 30 30 29 29 27 27 27 27 27
45 43 40 34 33 31 30 41 46 47 49 47 47 47 47 47 45 43 42 41 40 40 40 40 40 40 40 39 38 36 36 35 34 33 32 31 32 31 31 30 30 29 29 28 28 28 27 27 27

GFSSGP_sfc_temp_042.txt.gz
Temp
68 70 67 67 57 51 44 49 51 54 57 60 61 61 58 56 57 49 66 70 72 72 73 74 75 76 76 76 76 76 76 77 77 77 77 77 77 76 76 75 75 75 75 75 75 75 74 73 73
67 74 67 58 50 43 45 49 54 56 61 61 63 60 58 55 62 63 64 71 73 73 74 73 73 75 75 75 75 76 76 77 77 77 77 77 76 76 76 75 75 74 74 75 74 74 73 73 73
71 71 63 54 46 44 47 52 57 61 62 61 59 61 57 57 62 64 67 72 73 72 73 73 73 75 75 75 75 75 76 76 77 77 77 77 76 75 75 74 74 74 74 74 74 73 73 72 72
69 66 60 52 47 49 54 56 58 60 60 64 59 55 58 61 63 65 70 73 71 71 73 71 73 75 75 75 75 75 76 76 76 76 77 76 76 75 74 74 73 73 73 74 73 72 72 72 72
63 59 51 47 49 53 52 56 60 58 57 59 58 53 55 63 64 65 67 71 69 70 71 72 73 74 74 75 75 75 75 76 76 76 76 76 75 74 74 73 73 73 73 73 73 72 71 71 71
60 57 48 44 47 54 56 61 62 57 57 57 57 54 54 61 64 63 66 64 68 69 71 71 70 71 73 74 74 74 74 75 74 75 75 75 75 74 74 73 73 73 73 72 72 72 71 71 71
56 51 47 44 48 51 59 63 59 58 58 57 61 52 53 57 62 63 63 63 64 65 67 69 69 68 68 70 71 72 73 74 74 74 74 73 73 73 73 72 73 73 72 72 71 71 71 71 70
56 53 46 44 50 52 58 59 61 59 56 62 59 52 51 59 61 61 61 61 61 62 63 64 69 68 68 68 65 67 70 71 72 71 70 68 69 70 69 69 71 72 72 71 71 70 70 70 69
56 49 46 47 51 54 57 58 59 61 61 56 57 55 56 61 60 59 57 57 58 61 60 61 62 66 70 70 66 64 66 69 68 67 66 64 66 67 67 66 69 70 70 70 70 69 68 65 65
53 46 51 54 53 54 59 59 61 58 56 52 52 55 58 60 57 56 54 54 53 53 56 57 59 61 63 69 69 69 69 67 68 67 66 67 66 66 68 64 65 66 67 68 69 67 64 60 56
53 50 55 56 57 59 60 56 59 57 52 57 56 57 57 55 55 55 53 53 53 52 54 55 55 56 58 61 65 68 69 66 65 67 66 67 66 65 64 63 63 61 60 59 59 58 57 56 55
51 55 57 59 58 59 59 58 57 57 57 59 59 57 55 54 53 53 52 52 52 51 50 53 54 55 56 58 61 64 65 64 62 63 65 66 65 64 63 62 63 63 62 57 56 55 55 55 56
52 54 58 58 58 55 58 55 56 55 52 55 57 57 54 53 52 52 53 52 51 50 49 51 53 53 56 58 62 61 59 61 61 60 64 66 65 64 64 62 61 60 61 59 55 54 56 54 56
56 55 57 58 57 57 56 53 54 55 53 54 55 53 52 52 52 49 50 50 51 50 48 51 52 54 56 59 59 58 59 60 60 60 61 62 62 61 60 59 58 58 58 57 56 55 53 55 54
55 51 54 55 56 55 56 52 54 55 53 53 52 50 50 51 51 50 50 50 50 49 50 50 52 53 53 56 56 56 57 57 56 57 58 58 59 58 57 56 55 55 56 56 55 53 54 54 56
49 48 44 53 55 54 54 46 55 53 52 50 50 47 49 50 51 49 50 50 48 48 49 50 54 52 50 55 55 55 55 55 55 55 56 56 56 56 55 55 54 55 54 53 51 50 47 46 47
44 40 42 50 54 52 51 47 53 50 51 50 48 47 48 48 48 48 49 48 47 48 48 47 49 49 50 52 55 55 55 54 54 54 55 55 54 52 50 48 49 50 49 47 47 44 45 43 45
41 40 44 44 51 48 45 48 52 52 51 52 48 47 47 48 49 48 48 47 47 47 47 47 48 52 53 53 52 52 51 51 52 52 52 51 49 49 48 46 46 47 47 45 44 42 41 40 43
46 43 43 46 53 49 48 48 52 53 50 49 48 48 48 49 48 47 47 46 45 45 45 46 46 50 51 51 50 49 48 48 48 48 49 46 46 47 46 44 44 43 43 43 44 41 40 39 39
45 43 42 48 51 49 48 46 50 51 52 54 55 51 51 46 45 45 44 44 44 45 45 46 47 48 51 53 51 50 48 45 46 45 43 44 44 44 44 42 40 41 41 40 40 41 39 37 36
45 43 42 46 45 45 42 41 47 53 52 54 54 58 55 51 47 45 44 44 43 44 44 47 48 50 52 51 49 47 47 46 44 39 39 40 41 41 40 40 40 39 39 38 37 38 39 36 36
42 50 49 46 42 36 42 35 41 48 50 51 55 53 54 50 48 47 46 43 44 44 44 47 49 50 50 50 49 46 41 39 39 37 37 38 39 39 39 39 38 37 38 37 36 37 36 36 35
47 49 46 43 38 35 35 33 39 45 46 52 59 53 52 49 48 46 46 47 45 44 45 45 46 47 49 50 49 45 39 39 38 36 37 36 37 37 37 37 37 36 36 35 35 35 34 34 32
49 45 42 38 37 29 39 38 36 44 50 51 52 50 50 47 48 48 47 45 43 42 43 44 45 49 49 48 46 43 39 39 37 36 36 35 35 35 35 36 34 34 34 34 33 32 32 31 31
46 42 31 28 26 30 35 32 45 49 51 53 55 52 45 45 45 43 41 43 42 42 42 44 46 47 47 45 44 42 41 41 39 37 37 35 34 32 33 34 33 33 32 32 32 31 31 30 29
43 42 31 25 24 28 33 30 40 48 53 48 49 49 43 41 43 43 43 44 43 42 41 44 43 45 43 42 41 41 41 40 40 38 37 36 34 34 33 32 32 32 32 31 30 30 29 28 28
40 38 45 34 18 23 33 38 45 46 47 46 46 43 39 40 41 42 41 42 41 41 41 41 41 42 41 41 41 40 40 39 38 36 35 34 32 34 32 32 31 31 31 31 30 29 27 27 27
44 47 34 31 22 20 30 31 39 40 45 49 46 42 41 40 39 40 41 40 41 41 40 39 42 41 41 40 41 40 40 39 37 35 33 33 32 32 31 31 30 30 30 30 29 27 27 27 26
40 38 39 39 32 26 22 34 43 50 49 48 48 46 42 42 41 40 40 40 40 39 38 40 39 39 38 40 40 38 36 36 36 34 33 33 32 32 31 31 30 30 29 29 27 27 27 27 27
39 40 40 32 30 30 29 41 46 46 48 47 49 46 43 44 42 41 40 39 37 38 39 39 39 39 39 39 38 37 36 35 34 34 33 32 33 31 31 31 30 29 29 28 27 27 27 27 27

GFSSGP_sfc_temp_045.txt.gz
Temp
67 68 66 66 56 49 42 46 49 52 53 57 58 58 56 53 55 49 64 68 70 70 72 73 74 76 76 76 76 76 76 77 77 77 77 77 76 76 75 75 74 75 75 75 75 74 74 73 73
66 71 66 56 48 41 44 47 52 53 59 58 60 56 55 52 59 61 62 68 71 71 72 72 73 75 75 75 75 75 76 76 77 77 77 76 76 75 75 75 74 75 75 75 74 74 73 73 73
68 68 62 51 43 43 45 50 52 57 58 57 56 57 54 54 59 61 64 70 71 70 71 71 73 75 75 75 75 75 75 76 76 76 76 76 75 75 74 74 74 74 74 74 74 73 73 73 72
67 65 58 50 44 47 51 54 53 57 57 59 56 53 56 59 60 62 67 70 69 70 71 71 73 75 75 75 75 75 75 76 76 76 76 76 75 74 74 73 73 73 74 74 73 73 72 72 72
61 58 49 46 46 50 50 54 56 57 55 54 55 52 52 60 62 63 67 69 68 69 70 71 72 74 74 74 75 75 75 76 76 76 76 75 74 74 73 73 73 73 73 73 73 72 72 72 71
59 55 46 42 44 51 52 56 58 55 54 54 54 51 52 59 60 61 65 66 67 69 70 70 69 71 72 73 74 74 74 75 75 75 75 75 74 74 73 73 73 73 73 73 73 72 72 71 70
55 50 45 44 46 48 56 58 56 56 55 53 58 50 51 56 58 61 61 62 63 65 68 68 69 69 68 70 71 72 73 73 73 74 74 73 73 73 72 72 73 73 73 72 72 71 71 71 69
54 52 44 42 48 50 57 57 58 58 53 57 55 50 50 57 60 60 60 60 60 61 63 64 67 67 67 67 64 67 70 70 71 70 69 68 69 69 69 68 71 72 72 71 71 70 70 69 68
53 48 44 48 49 52 56 55 56 56 57 53 54 53 55 59 58 57 56 57 58 60 59 60 66 67 68 68 65 64 67 67 67 67 65 64 66 66 66 65 68 70 70 70 69 68 66 64 63
51 45 50 54 52 52 56 55 59 56 53 49 49 52 54 56 55 56 55 55 54 54 56 57 58 62 63 68 68 68 68 67 67 67 65 65 65 65 67 63 65 65 65 68 67 65 62 58 54
49 49 53 54 55 57 57 54 55 55 51 56 56 55 54 53 53 54 53 53 54 51 54 55 55 56 58 62 66 68 69 68 67 67 67 66 65 65 64 63 63 61 59 58 58 56 55 54 53
50 53 54 56 57 56 56 57 54 55 57 55 58 57 54 53 53 53 52 52 52 51 51 52 53 54 56 57 64 65 65 64 64 65 65 66 64 63 63 62 62 62 60 55 54 53 54 54 54
50 52 55 56 55 54 56 53 54 56 52 52 55 55 54 52 52 51 52 51 50 50 50 51 51 53 55 56 63 62 62 62 62 64 65 65 64 63 63 62 61 60 60 59 53 53 54 53 54
53 53 54 55 54 54 54 52 51 55 50 50 53 53 51 52 51 48 49 50 49 50 50 50 52 54 56 57 60 59 60 60 60 60 62 63 63 62 61 59 58 58 58 57 56 52 55 55 55
53 50 52 53 54 53 54 51 53 52 51 51 51 49 50 50 50 50 49 49 49 49 50 50 51 54 56 57 56 57 58 58 57 58 59 60 61 60 58 57 56 56 56 55 54 54 54 55 54
48 46 43 50 52 51 53 45 55 52 51 50 49 47 48 50 50 49 49 49 48 48 48 50 53 54 55 55 56 56 55 55 56 56 57 57 57 57 56 55 54 55 54 53 51 51 48 46 48
43 39 39 48 52 49 49 46 51 48 49 50 47 47 47 47 48 48 48 47 47 47 47 48 48 52 52 52 53 54 54 54 54 55 55 55 54 54 54 53 52 52 50 48 46 43 44 46 45
39 38 40 41 48 47 44 46 51 49 48 50 47 47 46 47 51 48 47 47 46 46 47 47 47 50 50 50 52 51 50 50 51 49 51 52 52 52 52 50 50 48 45 43 42 42 40 41 45
44 41 41 44 50 47 46 46 52 51 47 47 48 47 48 49 52 47 47 45 45 45 45 45 46 47 48 47 46 47 48 48 48 48 49 49 49 46 46 45 45 45 43 42 42 40 43 38 39
43 40 41 45 48 47 46 46 50 48 50 52 52 52 51 51 45 47 45 43 44 46 45 45 46 47 48 48 47 47 47 43 46 46 46 47 44 44 44 43 42 41 40 40 40 40 37 36 35
42 41 41 44 44 43 41 40 45 52 50 51 53 57 57 54 51 48 45 44 44 44 45 46 46 47 48 48 46 44 43 46 44 43 43 43 42 41 40 40 39 39 38 37 38 39 39 35 35
40 47 46 43 40 35 40 33 41 46 50 49 54 55 55 53 52 50 47 44 44 45 45 46 47 47 46 46 45 45 41 39 41 41 41 38 39 39 39 39 38 37 37 37 37 38 37 37 35
44 46 44 41 37 33 34 33 40 41 46 51 56 56 53 52 51 48 48 48 47 45 45 45 46 46 47 47 49 47 43 37 37 40 40 36 36 37 37 37 36 36 36 35 36 36 36 34 33
48 44 41 36 36 29 38 37 38 42 48 50 53 55 52 49 46 48 48 46 45 43 44 44 45 45 46 48 48 46 43 38 37 36 38 35 34 34 34 34 34 34 34 34 34 33 33 32 31
45 41 30 28 25 30 33 32 47 48 50 53 57 54 49 43 42 42 42 43 42 42 43 44 45 44 45 46 46 45 44 43 39 38 37 34 33 32 32 33 32 33 33 32 32 32 32 31 30
42 42 32 25 24 28 32 29 40 46 50 49 50 50 45 42 41 42 43 43 42 43 43 44 44 44 44 44 45 44 44 44 42 40 38 37 36 33 32 32 32 32 32 32 31 31 30 29 29
40 36 44 35 18 23 34 39 44 46 46 46 48 46 44 43 40 40 40 43 42 42 42 44 44 43 43 43 43 43 43 42 41 36 36 34 32 34 31 31 31 31 31 31 30 30 28 28 28
43 45 34 30 22 18 29 31 39 44 46 50 48 48 43 41 39 38 39 40 41 42 43 42 43 42 41 40 40 41 41 41 40 36 34 33 32 33 32 31 31 31 30 30 30 28 28 28 27
38 37 37 37 32 25 22 35 41 49 49 49 50 50 45 41 39 38 38 38 39 39 39 39 40 40 39 39 39 37 36 38 36 36 34 33 33 32 32 32 31 31 30 29 28 28 27 28 27
37 37 41 31 29 29 28 40 44 46 49 48 50 50 43 42 40 39 38 37 37 37 37 40 40 39 39 39 38 37 36 35 35 34 34 33 33 32 32 31 31 31 30 29 29 28 28 27 27

GFSSGP_sfc_temp_048.txt.gz
Temp
66 66 64 65 56 48 41 45 47 51 50 52 55 55 54 51 54 48 62 67 69 69 71 73 75 76 76 75 75 76 76 77 77 77 76 76 76 75 75 75 75 75 75 75 75 75 74 74 73
64 69 65 55 47 41 43 45 51 53 55 55 57 54 53 49 57 59 61 67 70 70 71 71 73 75 75 75 75 75 76 76 77 77 76 76 75 75 75 75 75 75 75 75 75 74 74 74 73
66 66 62 50 42 42 43 48 52 54 55 54 53 55 52 53 57 60 62 68 70 69 71 71 73 75 75 75 75 75 75 76 77 76 76 75 75 75 74 74 75 75 75 75 74 74 73 73 72
65 64 56 49 43 45 47 51 51 54 54 56 54 51 53 56 57 59 66 69 69 69 70 71 73 75 75 74 75 75 76 76 76 76 76 75 75 74 74 74 74 74 74 74 74 73 73 72 72
60 57 49 44 44 48 48 52 54 53 51 52 52 50 50 58 60 60 66 68 68 68 69 70 72 73 74 74 75 75 75 76 76 76 76 75 74 74 73 73 73 73 74 73 73 72 72 71 70
58 54 46 41 42 49 50 53 55 53 52 51 52 51 52 58 58 58 65 66 67 68 69 69 69 71 72 73 74 74 74 75 75 75 75 74 74 74 74 73 73 73 73 73 73 72 71 70 69
55 49 43 41 44 46 54 56 52 55 53 54 57 49 51 55 57 58 61 62 64 66 67 68 69 69 68 70 71 72 73 73 73 74 73 73 72 72 72 72 73 73 72 72 72 71 70 69 68
52 51 41 40 47 48 54 55 55 55 52 54 54 51 49 55 58 58 59 59 59 61 64 65 68 69 68 68 65 67 70 70 71 70 69 68 69 69 69 68 70 71 71 70 70 69 69 68 66
52 47 43 46 48 50 54 53 52 53 54 51 53 51 52 57 57 56 56 57 57 59 59 60 66 66 67 66 65 63 67 68 67 66 65 64 66 65 65 65 68 69 69 68 67 66 65 63 63
50 45 49 51 49 49 53 53 56 53 51 50 49 50 50 54 53 55 55 56 55 55 56 57 61 63 64 68 68 68 68 67 67 66 65 65 65 65 65 63 64 65 66 67 66 65 61 57 52
48 47 51 52 53 54 55 51 55 53 49 56 56 54 52 51 52 54 54 54 55 53 55 55 55 58 62 64 67 68 68 66 66 67 67 66 65 65 64 63 62 61 58 56 56 54 54 53 52
48 50 52 54 54 54 53 55 53 53 56 53 57 54 51 52 52 52 52 53 53 53 54 53 54 54 56 57 60 66 66 66 66 66 66 65 64 64 63 62 61 60 59 54 53 52 52 52 53
49 50 53 53 53 51 54 52 54 54 55 52 53 53 52 52 51 50 51 51 51 51 51 52 52 53 54 56 63 62 63 64 64 65 66 65 63 63 63 62 61 59 59 58 52 53 55 52 52
51 51 51 52 52 52 51 49 50 54 49 49 52 52 51 51 51 48 49 50 49 50 50 50 51 52 54 55 60 61 61 62 62 63 64 65 64 63 62 60 59 58 58 57 56 55 56 55 55
51 47 50 49 50 51 52 50 52 52 49 51 49 49 49 50 50 52 51 50 49 49 49 49 50 52 55 55 58 58 59 59 59 59 61 62 63 62 60 58 57 56 56 55 54 54 54 53 52
47 45 42 48 50 50 51 44 54 51 50 52 49 47 48 50 50 49 49 49 48 48 48 49 52 56 58 53 56 55 57 56 57 57 58 59 59 60 58 57 55 55 54 53 51 51 49 45 45
42 38 37 46 50 48 47 44 50 46 47 50 48 47 47 48 48 48 49 48 47 47 47 48 49 54 55 52 54 52 55 55 55 56 56 56 56 57 57 55 54 53 52 50 50 47 48 44 43
38 36 38 39 45 44 42 44 50 50 47 49 47 47 46 47 51 52 48 47 46 46 47 47 47 49 52 52 51 49 51 51 52 52 53 53 53 53 53 52 51 51 49 47 47 44 41 43 43
42 38 39 42 47 44 44 44 49 51 46 47 47 46 49 50 56 49 48 46 45 45 45 46 46 50 51 50 49 47 48 49 49 49 50 51 51 51 51 50 49 47 46 42 45 44 43 38 39
41 38 39 43 45 44 44 44 50 49 48 50 53 51 51 51 48 47 45 44 44 45 45 45 46 50 51 50 45 45 45 43 47 46 47 47 47 48 48 48 43 42 41 41 42 42 36 35 35
41 39 39 42 42 41 39 39 43 49 47 49 50 56 55 54 54 49 45 46 44 44 45 46 46 47 51 50 44 43 45 45 45 44 44 45 46 45 42 42 41 40 41 42 39 39 39 34 33
38 45 44 41 38 33 37 31 39 46 49 49 55 51 54 55 53 51 47 45 45 46 46 47 46 46 47 48 46 45 40 39 40 43 43 42 43 41 40 40 40 38 37 38 37 38 37 36 33
43 44 42 39 36 32 31 32 38 40 45 51 57 54 53 54 51 51 48 49 48 47 45 46 45 46 46 46 47 46 43 38 37 41 41 40 40 38 38 38 37 36 35 35 36 35 36 35 33
46 43 39 35 35 28 35 36 37 40 47 48 54 56 53 49 47 46 46 45 45 43 44 44 45 45 44 45 44 47 42 38 38 39 40 39 38 34 35 35 35 35 35 35 34 33 34 33 32
42 41 31 27 24 28 32 32 46 46 51 49 53 54 49 47 45 43 42 41 41 41 43 44 44 43 44 45 44 43 43 43 43 41 40 38 36 32 33 34 34 34 33 33 34 33 33 33 33
41 41 31 24 22 28 30 29 39 46 48 49 48 50 45 46 44 43 41 41 40 42 43 44 44 43 43 45 44 42 44 45 45 43 41 41 40 36 34 33 33 32 32 32 32 33 31 32 31
39 37 43 36 17 23 34 37 45 45 46 47 46 46 46 44 44 42 40 39 39 41 42 44 44 44 43 44 43 42 44 44 43 42 41 39 38 36 32 32 32 31 31 32 32 32 29 29 29
42 44 34 31 23 18 30 31 37 44 47 48 47 48 48 43 44 40 38 38 39 41 42 44 44 43 42 42 42 42 42 44 43 41 39 37 37 34 31 31 31 30 30 31 31 29 28 29 27
39 37 36 37 32 25 21 37 40 47 49 48 51 49 46 46 44 42 38 37 38 39 41 42 42 40 40 41 39 38 41 42 40 39 38 38 36 32 32 32 32 31 31 30 30 29 29 29 28
35 37 38 31 28 27 27 39 44 45 47 46 48 48 44 43 43 41 38 36 36 37 37 39 40 40 40 39 38 37 38 39 39 39 38 36 36 33 33 32 32 31 31 30 30 30 29 28 28

GFSSGP_sfc_temp_051.txt.gz
Temp
70 69 69 68 61 54 50 54 59 58 59 62 62 62 61 60 60 57 70 72 73 74 76 77 75 76 76 76 75 76 76 77 77 76 76 76 76 76 76 75 75 76 76 76 76 76 75 74 74
69 72 67 60 53 49 51 55 56 59 60 59 61 61 61 58 64 66 68 72 74 74 75 76 73 75 75 75 75 76 76 77 77 76 76 76 76 76 76 75 75 75 76 76 76 75 74 73 73
70 69 65 54 47 49 50 55 58 59 58 62 59 61 61 60 65 68 70 72 73 74 75 75 73 75 75 75 75 75 75 76 76 76 76 75 75 75 75 75 75 75 75 75 75 74 73 73 72
69 67 60 54 51 54 56 58 59 57 60 61 60 58 62 66 66 68 70 72 73 73 74 73 73 75 75 75 75 75 76 76 76 76 76 75 75 74 74 74 74 74 74 74 74 73 72 71 71
63 60 53 50 51 55 56 59 58 58 60 60 61 58 59 65 67 67 70 72 71 72 73 74 72 74 74 75 75 75 75 76 76 75 76 75 74 74 74 74 74 74 74 73 73 72 71 70 70
61 58 50 48 50 55 58 59 60 60 60 59 59 57 60 65 65 66 70 71 72 72 72 73 70 71 72 73 74 74 75 75 75 75 75 74 74 74 74 74 73 73 73 73 72 71 70 69 69
58 53 49 48 49 53 58 58 58 60 59 61 61 57 61 63 64 65 67 69 70 71 71 72 73 71 68 70 71 72 73 73 73 73 73 73 72 72 72 72 72 72 72 72 71 70 69 69 68
55 53 48 47 50 53 58 58 60 61 60 60 62 60 61 63 62 63 64 65 66 68 69 70 72 72 72 71 66 68 69 70 71 71 69 68 68 69 68 68 70 71 70 70 69 69 68 67 66
57 51 47 50 50 55 56 58 58 60 59 59 60 61 62 60 60 61 61 62 63 63 65 68 69 69 69 69 66 64 67 67 67 67 65 66 71 71 70 66 68 69 68 68 67 66 65 63 63
54 48 51 54 54 55 57 58 59 59 58 58 59 59 57 58 59 60 61 62 61 62 62 64 65 66 67 69 70 71 72 72 72 72 71 71 70 70 69 64 64 66 66 67 66 63 60 60 61
51 51 53 55 57 57 57 56 58 58 55 60 60 60 55 56 57 59 60 62 62 62 62 61 63 64 65 67 69 69 70 70 71 71 70 69 66 66 66 65 63 61 59 63 62 61 61 59 60
52 52 54 57 56 56 56 57 56 56 62 60 61 60 54 55 56 58 59 59 59 60 60 60 61 61 63 64 66 68 69 69 69 69 70 69 66 66 65 63 61 60 60 57 59 59 58 58 57
52 52 54 55 54 54 56 55 56 56 59 57 57 55 55 56 56 56 57 58 58 58 59 59 59 60 61 62 65 67 67 68 68 67 68 69 65 65 64 63 62 59 59 59 58 58 57 56 57
53 53 53 54 54 54 54 53 54 58 56 56 55 56 54 55 56 54 54 56 55 56 57 57 57 58 59 61 63 66 67 66 65 66 67 67 66 66 63 62 60 58 58 58 58 57 56 55 53
52 49 52 51 53 53 54 53 54 56 54 56 55 54 53 53 54 56 59 56 55 55 55 55 56 57 57 59 62 63 65 64 63 63 64 66 65 65 63 60 58 57 57 57 56 55 54 52 51
48 47 44 50 51 51 53 47 55 53 54 57 55 53 51 54 55 55 55 55 54 54 53 54 55 56 57 57 59 61 62 63 61 61 62 62 62 62 61 59 57 57 56 55 54 52 50 48 49
43 41 40 48 51 49 49 48 53 51 50 53 53 52 51 52 53 54 54 54 54 54 53 52 53 55 57 58 57 58 58 60 58 59 59 59 59 60 60 57 55 55 53 52 52 50 49 48 48
41 40 40 42 47 46 45 46 52 52 51 53 52 52 51 52 55 59 54 52 52 52 52 52 52 54 56 55 54 53 54 56 57 56 56 56 57 57 57 55 54 53 51 50 50 48 48 49 48
44 41 41 43 48 46 45 45 49 54 50 50 52 52 53 53 60 55 53 52 50 49 50 50 50 52 53 53 52 51 51 53 53 53 53 53 54 54 55 54 51 53 51 50 49 47 46 45 47
42 39 41 44 45 46 44 46 50 50 55 54 57 57 56 57 54 53 51 50 50 51 50 49 50 51 53 55 52 52 51 50 52 50 50 51 51 51 52 51 50 49 48 47 47 48 46 46 45
41 40 39 43 43 42 41 41 44 49 49 51 52 58 58 58 59 56 49 50 49 48 49 50 50 51 53 54 49 46 47 48 47 47 48 48 49 48 48 49 48 48 49 48 49 48 46 43 41
38 44 43 40 40 35 40 33 41 47 49 50 53 53 55 58 55 54 50 49 49 50 50 51 50 50 52 51 50 49 49 45 47 47 48 46 47 46 47 45 47 48 49 48 47 47 47 45 41
43 43 42 40 37 35 35 34 41 42 46 50 55 57 58 53 52 54 51 52 52 50 48 49 49 49 52 51 52 50 47 46 45 45 45 45 43 44 43 43 45 45 46 47 47 44 43 45 42
44 42 39 35 36 29 35 39 39 42 47 50 54 55 55 52 51 50 50 48 47 46 47 48 47 48 49 51 51 51 50 44 43 42 43 43 41 41 41 40 43 43 43 44 44 43 43 42 41
41 40 31 28 25 30 32 33 46 48 50 50 56 57 53 52 51 50 48 45 44 43 45 46 47 47 46 47 50 50 48 47 46 44 44 41 39 39 39 40 40 40 40 40 41 41 41 41 42
39 40 32 25 23 29 30 30 41 47 49 49 49 50 48 47 48 49 48 45 43 43 44 45 46 47 45 47 47 49 49 48 47 47 46 44 43 42 40 40 40 39 39 39 40 40 40 40 40
39 36 42 35 17 24 33 37 45 45 47 48 51 46 48 48 47 47 46 44 42 42 43 44 46 47 44 46 46 46 48 47 46 46 45 44 43 42 39 39 39 38 38 39 39 39 37 38 38
41 44 35 31 23 19 30 32 40 45 49 51 48 50 49 48 48 47 45 42 41 41 43 44 46 46 44 45 45 46 46 46 45 44 42 40 39 38 37 37 38 37 37 37 37 36 36 37 35
39 37 35 37 32 25 22 36 42 48 49 49 50 49 48 49 49 47 45 42 41 41 41 43 43 43 42 43 44 43 44 44 42 42 42 40 39 38 37 36 37 36 36 35 36 36 35 35 34
36 37 38 32 28 28 28 39 44 48 48 46 47 48 48 48 49 46 44 41 39 39 40 41 42 42 42 43 42 41 42 42 41 42 41 38 38 37 37 36 36 36 35 35 35 34 34 34 33

GFSSGP_sfc_temp_054.txt.gz
Temp
80 85 90 87 75 73 64 65 71 68 69 73 73 72 72 71 69 65 78 81 83 82 83 80 75 76 76 76 75 76 76 77 76 76 76 76 76 76 76 76 76 76 77 77 76 75 74 73 73
86 85 89 84 70 63 66 69 67 72 72 73 72 71 71 68 72 73 76 79 83 82 83 83 73 75 75 75 75 75 76 76 76 76 76 76 76 76 76 75 75 76 77 76 75 74 74 73 72
83 84 84 77 70 64 67 69 73 69 71 71 70 71 72 68 73 77 80 81 83 82 83 82 73 75 75 75 75 75 76 76 76 76 76 75 75 75 75 75 75 75 76 75 74 74 73 72 72
85 87 81 72 66 68 68 72 73 69 70 70 72 69 72 75 76 79 81 82 82 82 83 75 73 75 74 75 75 75 75 76 76 76 75 75 75 74 74 74 74 74 74 74 73 72 72 71 71
86 83 73 67 65 67 70 72 75 71 72 72 71 68 70 74 76 77 77 82 82 82 82 80 73 73 74 75 75 75 75 76 76 75 75 75 74 74 74 74 74 73 73 73 72 72 71 71 70
80 80 69 64 65 68 70 72 74 73 72 71 71 72 72 76 76 77 79 82 83 81 80 81 70 71 72 74 74 74 75 75 75 75 74 74 74 74 74 74 74 73 73 72 71 71 70 69 69
76 74 67 66 65 66 70 73 72 74 72 72 74 71 73 73 77 77 78 81 82 82 80 80 80 75 68 70 71 72 73 73 74 74 73 73 72 72 72 72 72 72 72 71 70 69 69 68 67
78 77 64 66 65 66 71 72 73 74 73 71 75 73 72 76 75 74 74 78 78 79 80 80 80 80 79 78 67 68 70 71 71 71 69 68 68 68 68 68 70 71 70 70 69 68 67 67 65
73 71 65 66 64 69 70 70 70 72 72 70 73 73 72 76 73 68 66 71 70 71 75 77 79 79 80 79 73 67 67 68 68 68 65 67 76 75 74 67 68 69 69 68 67 66 65 63 62
75 69 68 70 72 70 70 72 73 71 70 70 71 72 70 70 71 68 65 66 68 66 69 73 72 73 78 77 77 78 77 77 78 76 75 78 77 76 74 66 64 66 66 66 65 63 63 66 70
67 69 68 68 70 70 70 69 73 72 68 76 74 76 70 70 71 72 70 72 73 71 67 68 72 77 74 71 77 78 78 77 78 77 77 76 72 71 74 68 69 67 64 69 68 68 69 67 68
67 66 68 67 67 67 67 71 69 71 78 74 79 78 73 70 71 73 74 75 75 74 69 67 73 74 69 71 71 78 77 76 76 76 76 75 70 68 66 65 65 62 64 66 67 66 65 64 64
66 66 66 67 66 67 66 68 70 69 78 72 70 69 72 73 73 74 76 76 74 72 72 67 67 74 74 73 70 69 72 76 75 76 75 76 70 67 67 65 66 64 62 64 64 65 64 63 63
66 65 65 66 66 66 64 68 66 73 75 73 70 73 74 72 73 72 71 72 71 72 73 73 71 72 74 73 75 75 76 76 74 74 72 72 73 67 65 64 66 63 65 60 62 63 61 59 61
64 63 66 66 65 66 65 63 64 75 67 71 72 74 73 72 72 71 72 71 72 71 72 70 70 71 71 72 73 75 76 77 76 72 72 72 70 67 64 63 62 61 57 59 61 58 55 55 58
62 63 61 63 62 64 64 63 70 68 69 71 74 75 73 73 71 72 74 73 73 72 69 69 67 68 69 70 71 73 74 75 76 74 68 67 71 67 64 62 60 60 56 56 56 54 52 53 55
60 60 57 60 62 62 62 63 68 64 64 69 73 73 73 73 73 73 72 71 72 71 70 68 67 67 67 68 70 71 72 72 74 73 70 66 68 67 63 61 59 57 55 58 54 53 54 50 53
58 56 55 58 60 58 60 60 69 71 64 69 73 74 73 71 73 77 73 71 71 70 70 69 67 67 67 67 66 67 68 65 69 70 68 64 64 64 61 59 57 56 57 53 54 51 51 51 55
59 57 57 59 59 57 60 61 66 70 70 67 70 72 74 73 78 77 74 71 68 67 66 66 65 65 65 64 61 59 61 58 59 63 63 61 59 59 59 57 56 55 54 55 52 51 48 49 55
56 55 57 57 55 56 59 58 65 67 67 71 72 73 75 76 77 75 71 69 66 66 65 65 65 65 65 65 64 64 63 58 59 58 56 56 56 57 57 55 55 52 51 53 50 50 47 49 55
55 55 56 55 53 55 53 57 63 65 64 67 69 72 74 75 76 77 71 67 67 65 64 64 64 64 64 65 64 59 58 52 52 52 52 52 53 52 53 55 55 55 53 49 50 50 51 50 53
52 57 54 51 52 51 53 50 62 66 65 65 69 72 73 73 73 73 74 67 66 65 66 65 64 63 63 64 61 58 58 53 52 54 53 51 51 51 51 48 50 50 51 51 51 51 53 54 50
54 53 53 51 51 47 50 47 58 54 60 64 70 72 74 75 72 71 70 68 69 66 64 63 63 62 62 62 61 61 60 60 54 55 54 53 51 50 49 48 48 47 51 51 52 51 53 55 53
52 51 50 49 48 43 52 49 57 63 63 64 68 71 72 71 69 68 67 64 64 64 61 60 61 60 61 61 60 60 60 58 53 56 54 53 53 51 49 47 48 49 50 53 54 54 53 53 53
53 52 45 41 38 41 43 43 54 62 65 64 67 73 70 67 68 67 66 64 61 58 58 58 59 58 59 60 60 60 60 58 56 56 57 55 53 51 49 46 45 45 48 54 54 52 52 52 52
50 54 47 35 37 46 38 40 54 60 63 63 64 66 65 63 65 65 67 64 61 56 56 57 56 57 57 57 58 60 60 59 58 55 58 56 55 53 52 48 46 45 47 53 53 52 52 51 51
48 45 56 46 31 38 50 56 61 59 59 60 62 64 65 67 66 65 66 63 61 57 55 55 56 56 56 55 57 57 58 56 55 54 55 54 56 53 47 46 45 44 44 50 50 50 48 48 49
51 55 42 45 33 33 48 47 51 58 61 64 62 64 65 64 62 64 64 61 58 57 56 55 56 55 55 54 56 56 55 55 54 53 52 53 51 49 45 42 42 41 43 48 48 47 46 46 46
47 46 45 47 43 38 38 50 61 62 64 63 62 60 62 63 63 63 62 58 56 54 54 54 54 54 53 52 54 53 54 54 54 52 51 49 46 47 45 41 41 40 41 44 47 45 44 43 42
48 50 50 43 36 39 38 47 58 63 64 60 61 60 62 61 62 61 59 58 55 54 53 52 53 53 53 52 53 52 53 53 52 50 48 46 45 46 44 40 39 39 40 40 45 43 42 42 40

GFSSGP_sfc_temp_057.txt.gz
Temp
82 93 94 89 74 75 68 69 77 72 73 78 79 77 76 77 72 65 83 85 86 84 84 79 74 76 76 75 75 75 76 76 76 76 76 76 76 76 76 76 76 77 77 77 76 75 74 73 73
92 91 90 87 71 66 69 75 71 76 77 78 77 76 76 72 78 76 79 84 86 85 85 83 73 75 75 75 75 76 76 76 76 76 76 76 76 76 76 76 76 76 76 76 75 75 73 73 73
88 90 83 79 73 67 68 74 77 76 77 77 75 77 77 73 79 80 85 85 86 85 84 81 73 75 75 75 75 75 76 76 76 76 75 75 75 75 75 75 76 75 75 75 74 73 73 72 72
89 89 86 73 69 73 73 77 79 75 75 76 77 74 77 80 82 85 85 86 86 85 85 74 74 75 75 75 75 75 76 76 76 75 75 75 75 75 74 74 75 75 74 74 73 73 72 72 72
89 86 74 70 70 73 76 79 79 75 77 77 77 74 74 78 82 83 84 86 85 85 85 79 73 74 74 75 75 75 76 76 75 75 75 74 74 74 74 74 74 73 73 73 72 72 71 71 70
81 83 70 67 71 73 76 79 79 78 78 77 75 76 75 82 80 82 85 85 87 84 83 81 71 71 72 74 74 75 75 75 75 74 74 74 74 74 74 73 73 73 72 72 71 71 70 69 69
76 75 71 71 71 71 75 79 77 77 77 77 80 74 77 78 82 83 84 87 87 85 82 79 80 75 68 70 72 73 73 74 74 74 73 73 72 72 72 72 72 72 72 71 70 69 69 68 68
80 79 71 72 71 70 77 77 80 79 77 79 81 76 75 79 82 83 84 85 85 83 81 78 79 79 79 77 68 69 71 71 71 71 69 68 68 69 69 68 70 71 70 70 69 68 67 67 67
81 73 69 71 70 74 77 75 77 80 78 77 78 78 78 83 80 73 76 78 82 81 80 80 79 80 79 78 74 67 67 68 68 67 65 66 74 74 73 67 68 69 69 68 68 66 64 64 64
76 71 72 77 79 75 76 77 78 74 76 76 77 78 77 78 77 71 69 71 70 72 78 82 81 80 80 78 76 78 77 76 76 75 73 76 76 76 73 65 64 66 66 66 66 66 65 67 70
76 71 76 75 76 76 76 75 78 74 73 79 78 80 75 75 76 74 72 74 73 72 73 75 75 79 79 78 78 78 78 78 76 75 76 75 75 72 72 69 68 66 64 67 67 68 70 69 69
71 73 74 73 71 71 72 77 73 75 79 81 85 85 78 75 75 76 75 75 77 76 76 74 74 76 78 79 78 79 77 77 76 75 75 75 71 71 72 70 67 67 68 67 68 67 66 66 66
71 72 71 71 70 71 71 72 74 76 82 81 78 76 79 77 78 79 80 79 79 78 77 71 73 77 78 74 72 76 79 78 78 77 76 75 71 70 69 67 64 64 64 65 67 66 65 64 64
72 71 71 71 71 71 67 73 69 77 82 82 78 77 79 79 79 79 79 79 79 79 78 75 71 76 79 78 77 73 75 79 78 77 76 75 73 68 66 63 64 63 63 64 66 65 64 63 62
70 66 70 71 71 70 69 66 68 78 75 76 79 78 80 80 81 79 80 78 80 79 78 76 73 72 75 77 78 78 77 74 76 78 77 76 73 69 67 63 62 62 61 60 60 60 62 61 62
67 67 63 71 68 68 67 63 73 78 77 74 78 80 80 80 80 81 81 79 80 79 77 77 75 74 74 75 76 77 78 79 77 77 78 76 74 68 64 62 60 59 59 60 54 54 56 57 59
65 62 64 65 68 67 65 66 75 72 72 73 77 80 80 81 81 81 81 80 79 79 77 76 74 72 72 73 75 75 76 74 75 76 76 75 74 68 65 63 59 58 59 55 54 53 56 55 56
62 60 63 63 65 63 64 63 72 76 72 72 77 79 80 79 80 83 81 79 80 79 78 76 73 71 71 72 71 73 73 74 73 75 74 74 71 68 64 62 58 57 56 56 53 53 55 54 54
65 64 62 67 65 60 64 65 70 75 76 75 76 76 78 80 84 84 83 80 77 76 75 75 72 71 71 69 67 67 67 70 68 68 71 72 70 67 63 61 58 57 56 55 53 53 51 52 54
62 60 61 67 63 58 63 62 69 72 73 75 76 78 79 81 83 83 82 79 75 74 73 73 72 71 70 70 69 69 68 69 68 63 62 67 65 64 61 59 57 57 55 54 52 52 49 52 53
60 59 61 60 59 62 59 60 67 75 74 74 76 78 79 80 81 83 82 78 74 71 71 71 71 71 70 70 70 68 68 65 61 59 58 58 59 58 57 58 57 55 54 51 51 50 50 48 51
56 64 61 57 55 53 60 51 64 71 73 75 75 76 78 79 80 80 81 80 74 72 72 71 71 70 70 69 68 65 61 58 60 60 58 55 54 54 55 55 54 54 54 50 49 51 52 50 48
58 59 58 56 54 53 55 49 60 70 65 71 75 77 80 81 80 79 78 76 77 72 70 70 70 69 69 68 67 65 61 63 65 62 56 55 52 51 51 52 53 52 53 52 51 50 52 52 51
58 56 56 55 53 44 55 53 57 66 70 72 75 77 78 76 74 74 74 73 72 71 68 67 67 67 68 66 66 65 62 63 63 58 56 53 51 49 49 49 50 51 50 50 49 49 50 50 52
58 55 46 44 41 42 50 49 57 67 71 72 72 74 77 73 72 74 73 69 67 66 64 64 65 65 66 66 65 64 63 64 63 59 57 53 50 48 47 47 48 49 50 49 49 47 48 48 50
52 56 47 38 41 47 43 44 58 69 72 72 71 72 72 72 71 69 72 72 68 63 62 62 62 63 65 64 63 64 63 64 64 61 60 57 54 53 51 48 49 51 51 51 50 48 48 48 48
52 47 59 48 36 40 51 59 68 63 63 67 69 70 71 72 72 71 72 71 68 64 62 62 61 61 62 62 62 62 62 62 62 61 61 60 59 58 56 53 51 51 49 49 49 47 46 46 48
54 60 45 47 34 34 47 51 55 62 66 68 67 69 70 69 67 67 70 67 65 64 62 61 62 61 60 61 60 60 61 61 61 60 58 58 58 56 54 52 49 46 46 46 45 43 44 44 46
48 48 49 51 47 40 39 49 68 66 68 68 67 66 67 67 67 66 66 64 63 61 60 60 59 59 59 59 58 57 58 59 59 57 57 56 56 54 50 48 46 44 43 44 44 41 42 42 43
56 53 52 43 39 45 43 47 62 67 68 64 66 66 68 67 67 67 66 65 63 60 60 58 59 58 58 58 56 55 57 57 56 56 56 55 53 51 49 47 44 44 43 42 42 41 41 41 40

GFSSGP_sfc_temp_060.txt.gz
Temp
76 83 84 76 61 61 57 60 69 66 65 68 73 68 65 66 64 54 75 80 80 77 78 74 74 76 75 75 75 76 76 76 76 76 76 76 76 76 76 76 76 76 77 76 76 75 74 74 74
81 88 78 71 58 54 56 66 64 67 70 71 70 68 66 63 72 72 72 82 81 80 78 77 73 75 75 75 75 76 76 76 76 76 76 76 76 76 76 76 76 76 76 76 75 74 74 73 74
79 86 69 65 61 55 56 64 66 69 71 68 66 68 68 65 73 73 77 81 82 80 79 76 73 75 75 75 74 75 75 76 76 76 76 76 76 75 76 75 75 75 75 75 74 74 73 73 74
80 75 73 60 59 63 64 66 69 67 67 69 69 65 69 72 74 77 79 82 81 80 78 72 74 75 75 74 75 75 75 76 76 75 75 75 75 75 75 75 74 74 74 74 73 73 72 72 72
77 72 61 59 61 66 68 72 72 67 67 68 66 63 63 72 77 78 78 81 79 79 76 74 73 74 74 75 75 75 75 76 75 75 75 75 74 74 74 74 73 73 73 73 72 72 71 71 71
68 70 58 56 62 67 67 70 71 69 70 67 63 64 63 73 73 75 78 78 81 77 76 74 70 71 72 74 74 74 75 74 74 74 74 74 74 74 73 73 73 72 72 72 71 70 70 70 71
64 62 58 60 61 62 68 71 64 67 68 67 68 61 63 68 73 75 77 78 79 79 76 73 72 71 68 70 71 72 73 73 73 73 73 72 72 72 72 72 72 72 71 71 70 69 70 70 70
67 65 60 58 60 59 68 69 68 67 65 68 68 62 58 69 74 75 75 76 76 75 75 73 73 72 71 69 68 69 70 71 71 70 68 68 68 68 68 68 70 71 70 70 69 68 69 68 68
70 58 56 61 61 62 69 65 66 67 67 65 69 64 66 74 74 71 70 72 72 73 74 74 74 73 72 71 68 66 67 68 67 66 65 65 66 67 67 66 68 69 69 69 67 67 67 66 66
63 57 61 69 68 65 68 67 67 62 64 64 65 66 68 71 69 64 64 67 68 68 72 74 74 74 75 76 68 69 70 68 69 68 66 68 67 67 66 62 64 66 66 67 67 67 66 64 61
65 58 66 68 68 69 67 65 68 64 61 67 67 65 68 67 67 64 64 66 66 66 69 73 74 74 73 72 71 72 70 69 69 69 67 69 67 64 62 59 59 58 60 60 62 61 60 61 59
58 67 67 67 65 64 63 68 64 65 63 69 69 70 67 66 67 67 65 67 67 67 68 69 70 70 73 72 72 70 71 69 69 69 69 69 67 64 62 60 58 58 61 57 57 57 58 58 59
61 64 66 66 62 63 66 62 63 64 70 70 71 70 67 66 67 68 69 69 68 68 69 71 70 68 73 72 69 69 72 70 68 68 69 69 66 64 64 61 59 61 61 62 58 56 56 56 57
64 65 64 64 64 63 60 61 60 65 69 69 69 66 66 67 68 67 68 70 70 71 70 70 69 72 74 71 67 66 67 69 70 69 69 67 67 65 64 62 60 60 61 61 61 60 56 54 54
63 56 60 62 63 60 60 57 59 66 66 66 66 65 68 69 70 68 69 69 72 72 71 69 67 68 68 69 69 69 66 68 67 67 69 69 67 64 63 60 60 58 58 59 60 57 57 55 54
57 55 49 61 62 59 55 50 64 65 66 64 65 65 67 69 70 70 70 70 70 70 69 70 70 68 68 67 67 69 69 68 66 66 67 68 68 65 62 61 59 57 58 57 55 54 52 53 50
53 46 51 54 62 58 56 52 60 62 61 59 63 65 67 68 69 69 70 69 70 70 69 68 68 67 67 67 66 66 67 66 68 67 68 67 67 66 63 61 59 57 56 55 54 52 54 52 51
48 47 53 49 56 53 52 52 61 63 63 61 62 64 66 67 69 70 70 69 68 68 68 69 67 66 65 65 63 63 63 63 65 68 70 68 66 66 64 61 56 57 55 53 52 51 51 51 51
54 54 51 55 56 51 53 54 59 64 63 61 61 63 65 67 70 72 70 68 66 65 66 68 65 64 65 62 61 58 60 59 61 69 66 67 66 65 63 61 57 56 54 53 52 51 49 49 51
52 50 50 56 56 51 51 53 58 62 63 64 64 64 65 66 68 70 68 65 65 65 63 64 66 64 65 64 63 59 57 57 59 59 59 62 64 64 62 60 57 56 54 52 51 50 48 48 49
50 49 50 50 52 53 46 47 53 60 63 64 66 68 67 66 66 68 67 65 62 62 61 63 65 65 64 63 60 57 56 55 55 54 58 57 59 60 61 59 57 56 55 52 51 50 50 47 47
48 56 55 52 46 40 48 35 48 58 59 62 62 61 62 65 67 68 66 62 61 63 60 62 62 61 62 61 60 58 58 54 52 52 53 56 56 57 58 58 57 56 55 53 51 52 52 48 47
50 53 51 49 43 42 42 36 46 55 55 60 63 64 63 63 64 64 65 66 63 60 58 58 59 60 60 62 61 58 54 53 51 51 51 54 54 55 55 56 55 55 54 53 51 50 50 50 48
54 50 49 46 44 32 43 43 43 50 55 58 60 62 63 60 61 62 62 61 60 58 57 56 57 57 58 58 59 56 54 52 51 50 51 52 52 52 52 52 53 54 53 51 50 50 51 50 49
48 46 33 31 28 30 42 40 49 56 60 59 60 58 58 58 59 58 57 57 56 55 54 55 56 56 56 56 56 56 54 53 52 52 51 51 51 50 49 50 50 51 52 51 51 49 48 48 47
45 46 34 27 28 31 36 34 45 58 58 58 60 59 56 57 60 58 59 58 55 55 53 53 54 54 55 55 54 55 56 56 56 54 53 52 51 50 50 49 50 50 50 49 49 47 47 47 46
45 40 49 38 26 27 37 45 55 56 57 57 57 58 58 58 57 57 58 58 54 53 52 52 52 53 54 54 53 53 53 53 54 53 51 51 51 51 48 48 47 48 48 49 48 47 45 46 44
46 51 37 36 23 23 35 38 43 50 54 57 54 53 56 56 55 56 57 56 54 53 53 53 53 52 52 53 52 52 52 52 53 52 50 51 51 51 50 47 48 47 47 47 47 45 45 44 44
42 41 43 45 38 28 28 37 52 52 55 55 54 57 53 52 54 55 55 54 53 52 51 51 51 51 51 51 51 50 49 50 51 51 50 49 49 48 47 46 46 45 44 44 44 42 42 42 41
44 46 46 35 33 34 32 41 54 56 56 57 56 57 56 56 57 56 56 55 52 51 50 50 50 50 50 50 50 48 49 49 49 49 49 48 47 45 43 41 39 39 39 41 42 40 42 40 39

GFSSGP_sfc_temp_063.txt.gz
Temp
71 73 68 69 58 53 47 52 58 60 59 61 65 65 61 59 59 52 67 72 74 73 74 73 74 76 76 75 75 75 76 76 76 76 76 76 76 76 76 76 76 77 76 76 75 75 75 75 75
68 77 70 61 52 45 48 53 56 58 63 65 67 64 61 57 66 66 67 74 76 75 74 73 73 75 75 75 75 75 76 76 76 76 76 76 76 76 76 76 76 76 76 75 75 75 75 75 74
71 75 63 56 49 47 50 54 57 61 64 64 61 65 62 60 66 68 74 76 76 75 75 74 73 75 75 75 75 75 75 76 76 76 76 76 76 76 75 75 75 75 75 75 75 74 74 73 73
71 68 63 54 49 54 55 57 61 61 63 66 64 60 63 67 70 72 78 78 76 74 76 72 73 75 75 74 75 75 75 76 75 75 76 75 75 75 75 74 74 74 74 74 74 73 73 72 73
67 61 54 50 52 57 60 61 63 60 61 60 63 58 58 67 72 74 75 77 77 74 73 73 73 74 74 74 75 75 75 75 75 75 75 75 75 74 74 73 73 73 73 73 72 72 72 72 73
63 60 50 46 51 59 59 64 64 62 61 61 61 58 59 69 70 71 74 74 75 71 72 72 70 71 72 73 74 74 75 74 74 74 74 74 74 74 73 73 73 72 72 72 71 71 72 72 71
59 54 49 47 52 55 61 65 61 62 62 61 67 56 56 62 69 72 73 73 74 73 72 70 70 70 69 70 71 72 73 73 73 73 73 72 72 72 72 72 72 72 71 71 71 71 70 71 70
60 57 51 49 53 53 59 61 63 63 58 64 64 57 54 63 70 71 71 72 74 71 71 68 68 69 69 69 67 69 70 70 71 70 68 67 68 68 68 68 70 71 70 70 70 69 69 70 69
62 52 49 52 55 56 61 58 63 62 64 62 63 62 63 68 69 67 66 66 71 71 70 69 68 68 68 68 67 66 67 67 67 66 64 64 64 64 65 65 68 70 69 69 68 68 68 66 66
56 49 53 59 56 56 62 60 62 59 59 56 58 61 64 66 65 64 63 64 63 67 69 71 69 68 68 71 66 67 68 67 66 65 64 65 63 63 64 62 64 66 66 67 68 68 65 61 58
57 53 60 59 61 62 61 59 62 60 54 61 61 61 63 62 62 63 62 63 64 64 67 71 72 72 70 69 67 67 67 66 65 65 64 64 63 61 60 58 58 57 59 60 60 58 58 58 57
55 60 62 61 61 60 58 61 58 60 61 63 65 66 63 61 62 63 62 62 63 65 64 68 72 72 71 70 70 69 67 66 66 66 65 64 61 60 57 58 56 56 55 55 55 54 55 56 57
56 58 62 61 59 57 60 56 58 58 64 63 64 64 63 63 62 62 63 63 63 63 65 65 66 67 70 70 70 70 67 67 67 67 68 65 65 62 59 56 56 55 56 55 54 54 54 54 55
57 58 60 59 59 58 56 55 56 62 63 61 63 61 60 61 62 60 61 64 64 65 65 65 65 66 67 71 70 69 68 70 67 67 67 68 67 64 60 59 58 56 61 60 59 57 53 56 53
58 52 54 57 58 55 57 53 56 61 61 62 61 59 60 61 61 64 65 65 67 67 67 67 67 67 67 66 68 69 66 66 67 67 67 68 66 65 61 60 60 60 59 58 59 57 54 51 55
51 51 46 54 57 55 55 47 58 62 59 61 60 57 59 62 63 64 65 66 68 68 66 67 69 68 69 65 69 69 66 64 67 68 67 67 67 65 61 59 57 57 57 56 58 56 52 51 49
46 41 45 49 57 54 51 47 57 60 57 57 57 58 60 60 62 63 65 67 65 68 67 67 67 66 67 65 66 65 65 65 65 64 66 66 66 65 63 59 56 57 56 56 56 54 54 51 49
42 42 47 46 52 51 47 48 54 58 58 59 59 58 59 60 63 65 65 65 67 65 67 66 66 65 66 67 61 61 61 62 63 66 65 65 66 64 64 60 56 57 56 53 54 53 52 51 50
50 46 43 47 53 50 49 48 53 58 55 54 55 55 57 61 65 64 65 65 62 62 62 63 63 63 64 64 63 59 62 59 59 61 63 64 65 64 63 60 57 57 55 52 54 52 51 48 50
49 44 43 48 51 48 47 50 52 55 59 58 60 56 57 58 62 65 63 61 61 64 65 64 63 62 64 64 64 64 58 56 59 59 60 61 63 64 63 60 57 56 55 53 51 52 49 48 50
46 45 44 45 48 47 42 44 48 55 54 57 59 60 60 61 61 62 62 59 60 59 61 63 64 62 64 63 57 54 55 53 54 54 58 58 59 62 63 60 58 56 56 52 51 50 51 47 48
43 49 51 48 43 38 45 34 41 54 58 57 58 58 58 58 60 62 62 58 56 63 64 62 61 60 62 58 59 58 60 57 60 58 55 55 56 57 61 60 58 56 55 53 51 50 52 50 46
47 49 48 46 40 37 36 35 41 46 51 56 59 58 56 56 58 60 60 61 57 56 55 55 56 57 60 60 60 58 57 53 50 50 51 51 51 53 55 58 57 56 55 54 52 50 52 51 48
51 49 47 42 39 30 39 39 36 46 53 52 56 54 56 55 56 57 57 58 56 53 53 53 55 55 54 56 54 56 56 50 49 48 49 49 50 50 51 54 56 56 55 54 53 52 51 51 51
47 43 31 29 27 29 36 34 42 51 57 55 57 55 52 52 54 56 53 57 52 51 52 52 52 53 53 53 53 52 53 52 52 50 50 48 49 49 53 54 54 55 55 55 53 51 50 50 49
43 43 32 26 25 29 35 33 45 53 56 56 56 54 53 53 55 55 55 55 53 51 50 51 52 52 52 52 52 52 52 51 53 51 51 51 51 51 51 52 54 55 53 53 51 49 49 49 47
43 39 46 36 20 25 34 40 51 53 56 56 55 55 52 52 54 54 55 53 52 51 51 51 51 51 51 52 51 51 51 52 52 50 50 51 51 50 50 51 51 52 50 51 50 49 47 47 46
46 48 37 33 23 21 30 34 40 48 54 56 53 52 53 53 53 52 52 52 51 49 50 49 50 50 51 51 50 51 52 52 52 50 50 49 50 49 47 49 49 49 49 49 48 47 46 45 45
41 40 41 42 34 27 24 34 46 50 51 51 52 53 54 54 52 52 52 51 51 50 50 49 49 49 49 49 49 48 49 49 49 50 51 49 47 48 47 46 47 47 47 47 47 47 46 44 44
41 42 42 33 31 31 31 40 51 52 52 53 54 54 52 52 53 53 53 52 50 50 49 49 49 48 48 48 48 48 47 47 47 48 47 47 47 46 47 45 44 45 46 45 46 44 44 43 42

GFSSGP_sfc_temp_066.txt.gz
Temp
70 71 67 66 57 51 45 49 52 55 55 59 61 63 59 57 57 51 65 69 71 71 72 73 74 75 75 75 75 75 76 76 76 76 76 76 76 76 76 76 76 76 76 76 76 76 75 75 75
67 74 66 58 50 44 46 49 54 56 60 61 64 59 59 54 63 60 63 70 73 72 72 72 73 75 75 75 75 75 75 76 76 76 76 76 76 76 76 76 76 75 75 75 76 75 74 74 74
71 70 63 54 46 45 47 51 56 57 60 59 59 62 59 57 62 63 68 72 73 72 72 72 73 74 75 75 75 75 75 75 76 76 76 76 76 76 75 75 75 75 75 75 75 74 74 74 74
68 66 60 52 47 50 54 55 57 59 58 63 60 57 59 64 67 69 72 73 72 71 73 71 73 74 75 74 75 75 75 75 75 75 75 76 75 75 74 74 74 74 74 74 74 73 73 75 74
63 59 51 48 49 54 52 56 57 57 58 59 60 55 55 65 69 72 72 73 70 71 71 71 72 74 74 74 75 75 75 75 75 75 75 75 74 74 73 73 73 73 73 73 73 73 73 73 73
60 57 48 44 47 54 56 59 60 55 56 59 57 55 57 65 68 69 73 70 72 69 70 71 69 71 72 73 74 74 74 74 74 74 74 74 74 73 73 73 73 72 72 72 72 72 72 72 72
57 52 47 46 50 51 59 61 60 58 55 57 62 53 55 60 67 69 71 70 70 70 69 69 69 70 68 70 71 72 73 73 73 73 73 72 72 72 72 71 72 72 71 72 71 71 71 71 70
58 55 47 45 51 52 58 59 61 60 59 61 63 53 52 62 67 68 71 69 68 69 68 67 68 69 69 69 67 68 69 70 71 70 68 67 68 68 69 68 70 71 71 71 70 70 70 70 69
58 51 46 49 52 54 58 58 59 59 60 58 59 58 61 67 67 64 63 65 68 69 67 67 67 67 67 67 66 66 67 67 67 66 64 63 62 63 64 65 68 69 69 69 69 68 67 66 65
55 48 52 55 55 55 59 58 61 57 56 54 54 58 60 64 63 63 60 62 62 64 65 67 67 67 67 69 66 66 66 65 64 63 62 62 61 61 63 61 65 66 67 68 69 66 63 60 57
53 52 56 57 58 60 60 56 59 58 52 59 59 59 59 60 61 64 60 63 63 64 65 66 67 67 67 67 66 66 66 64 63 62 61 61 60 59 58 57 58 58 60 59 59 58 57 56 56
54 57 58 59 58 58 58 57 55 58 60 63 63 62 60 61 62 64 62 61 61 62 65 67 67 66 66 67 66 66 67 66 63 62 62 60 57 57 56 55 55 55 55 54 54 54 55 55 55
53 55 58 58 57 56 57 54 55 56 62 59 61 61 60 63 63 64 65 61 62 62 63 65 67 68 68 66 66 66 67 66 64 63 65 61 58 57 56 55 54 54 53 53 53 53 53 53 54
57 57 56 56 55 55 54 51 53 59 59 58 58 58 59 60 60 59 59 62 62 64 64 64 65 66 68 67 68 69 68 66 65 65 65 64 63 62 60 57 58 56 54 53 54 54 54 52 52
56 51 52 53 54 53 53 51 53 56 58 57 57 55 56 59 58 60 64 64 64 65 66 64 65 65 66 67 67 69 68 67 66 65 65 66 65 62 60 59 59 59 58 57 54 56 55 53 51
50 48 43 51 53 53 52 48 55 57 54 57 55 53 55 58 59 61 62 64 63 65 64 66 67 65 66 66 65 66 67 67 66 66 65 67 66 63 60 60 59 59 57 58 56 52 52 52 52
45 40 41 48 55 51 48 48 54 54 55 53 55 55 56 56 58 58 62 63 64 65 65 65 65 65 66 65 66 64 64 67 66 66 66 66 66 65 62 60 59 58 57 56 55 53 53 50 49
41 39 43 42 50 48 44 48 53 56 53 55 54 55 55 56 60 63 62 63 64 65 65 66 65 66 67 67 63 61 63 65 66 64 65 66 66 65 63 61 58 58 57 54 54 53 51 51 49
47 44 42 44 49 47 47 46 51 55 52 52 53 53 53 56 62 60 61 63 62 61 63 64 63 65 65 65 62 62 63 63 62 64 63 64 65 65 63 60 58 58 56 55 54 51 50 44 48
45 42 40 45 49 46 45 48 51 53 53 54 55 54 54 55 57 61 61 57 58 62 62 62 63 64 64 66 65 65 62 58 62 59 60 63 64 65 63 61 57 57 56 54 52 52 48 47 49
44 43 41 44 45 44 40 43 46 52 51 54 55 56 56 56 57 58 59 58 55 57 60 61 62 63 63 65 61 54 54 53 54 55 58 58 61 64 63 62 58 57 56 53 52 52 51 45 45
42 48 47 45 41 36 41 33 39 49 52 53 57 54 54 55 56 57 57 56 55 58 58 60 60 61 62 62 61 60 60 59 60 62 56 56 56 61 62 61 59 57 56 54 53 53 53 51 46
46 47 46 43 38 35 35 34 40 42 48 54 55 55 54 53 54 56 56 57 57 55 54 54 56 58 60 59 60 59 58 56 51 51 53 53 53 55 60 60 58 56 56 55 53 52 51 51 50
50 46 43 38 36 29 37 37 36 43 49 50 51 52 54 53 53 55 54 56 55 51 50 51 53 53 54 55 55 56 56 51 49 48 49 49 51 52 53 56 58 57 56 55 53 52 51 51 52
44 42 31 28 26 28 34 33 39 48 51 52 54 52 52 54 53 53 54 54 53 51 50 50 51 52 52 52 52 53 54 52 52 50 51 47 50 49 51 54 55 56 56 56 54 52 50 50 49
42 42 31 25 24 29 34 32 44 50 53 53 53 51 52 52 51 51 52 52 51 51 50 50 50 51 50 50 50 50 51 53 53 51 52 52 52 53 52 51 53 55 55 55 54 52 51 51 50
42 37 44 33 17 24 32 39 49 50 50 51 51 51 51 50 50 50 50 50 50 50 50 50 50 50 50 50 49 49 49 50 52 50 51 53 51 51 48 50 50 51 52 54 54 52 50 50 49
44 47 36 32 22 20 29 32 39 48 53 50 50 51 51 51 52 52 51 51 50 49 50 49 49 50 50 49 49 49 49 49 51 49 49 50 49 48 47 47 48 50 51 52 52 51 50 48 48
41 39 39 40 33 26 22 33 44 47 49 48 49 50 49 49 52 52 52 51 51 50 49 49 49 49 49 48 48 47 48 48 48 48 49 48 47 47 47 47 49 49 49 49 49 50 49 46 46
39 40 40 33 30 29 30 35 48 49 49 50 51 53 51 51 52 53 52 52 51 50 49 49 49 48 49 49 48 47 47 47 46 47 48 46 47 45 47 45 47 48 48 47 47 47 46 44 44

GFSSGP_sfc_temp_069.txt.gz
Temp
68 68 67 66 56 49 43 47 50 53 53 56 59 59 58 55 56 49 62 67 68 69 71 72 74 75 76 75 75 75 76 76 76 76 76 76 76 76 76 76 75 75 76 76 76 76 75 74 74
67 72 65 56 49 43 44 47 53 54 58 58 60 57 56 52 60 58 61 68 70 70 71 71 72 75 75 75 75 75 75 76 76 76 76 76 76 76 76 75 75 75 76 76 76 75 75 74 74
69 69 62 52 44 44 45 50 53 55 57 56 56 58 56 55 58 61 65 69 71 70 71 71 72 74 75 74 75 75 75 75 76 76 76 76 76 75 75 75 75 75 76 76 75 74 74 74 73
67 64 58 50 45 48 50 54 52 55 56 59 57 55 57 62 62 66 69 70 69 69 70 70 73 74 74 74 75 75 75 75 75 76 76 75 75 75 74 74 74 74 75 75 74 75 74 73 73
62 58 50 46 46 51 49 56 54 53 55 55 55 53 53 62 66 67 68 70 68 67 69 70 72 73 74 74 74 74 75 75 75 75 75 75 74 74 73 73 74 73 74 74 73 74 73 73 73
59 56 47 43 45 52 52 55 54 53 53 54 55 52 56 62 64 66 69 67 69 68 68 70 69 70 72 73 73 74 74 74 74 74 74 74 74 73 73 73 73 73 73 73 72 73 72 72 71
56 51 46 43 46 48 56 58 54 55 54 55 59 52 54 58 65 66 67 67 67 68 68 68 69 69 68 70 70 71 72 73 73 73 73 72 72 72 72 71 72 72 73 72 71 71 71 71 70
55 53 45 43 49 49 56 57 58 56 56 57 58 52 51 61 65 65 66 66 66 67 68 67 67 68 68 68 66 68 69 70 70 70 68 67 68 68 68 68 70 71 72 71 70 70 70 69 68
56 50 45 48 49 52 57 54 55 57 58 56 58 57 58 65 64 63 63 63 64 65 66 66 67 67 67 67 65 65 66 67 66 65 64 62 62 62 63 64 68 70 70 69 69 68 67 65 64
54 48 51 55 55 53 57 55 59 55 55 52 53 55 57 62 62 63 60 61 63 64 64 66 66 66 66 68 65 65 65 64 63 62 61 61 60 60 62 61 64 66 67 68 68 66 63 59 56
50 51 56 55 55 58 57 53 55 55 51 58 59 57 58 59 59 61 60 62 63 63 64 65 65 66 66 66 66 65 64 62 61 61 60 60 59 58 58 58 58 59 60 58 58 57 55 55 54
53 54 57 58 57 57 56 56 53 54 59 60 62 60 58 59 61 61 60 60 61 61 63 64 65 65 66 65 67 67 66 63 60 60 60 58 56 56 55 55 56 56 55 54 53 53 54 54 54
52 54 57 56 56 54 56 52 54 55 59 57 58 58 59 61 62 63 62 61 61 61 63 64 65 65 66 65 66 67 67 66 62 60 60 59 57 55 55 54 54 54 54 53 52 52 53 53 53
55 57 54 54 54 53 53 50 51 55 55 54 56 56 57 59 61 58 59 60 60 63 62 64 65 65 66 65 66 67 68 67 64 62 61 60 59 57 55 54 54 55 55 52 52 52 51 51 51
54 50 49 51 52 51 52 49 52 54 53 54 54 53 55 58 57 59 63 62 64 64 64 63 64 65 65 65 65 65 66 67 65 64 62 61 60 58 57 57 57 58 57 56 55 55 53 49 53
49 47 42 50 51 50 50 46 52 53 49 54 53 51 52 55 57 59 60 62 61 62 62 64 65 64 65 65 65 66 66 66 66 66 65 63 64 63 60 59 59 58 57 56 55 54 52 51 49
44 39 40 48 52 49 47 46 52 52 52 52 50 52 53 54 55 57 59 59 60 62 62 63 63 64 64 64 65 65 64 64 65 66 66 64 65 63 60 59 59 57 57 56 54 52 53 50 49
39 37 40 40 47 46 42 48 51 54 50 53 52 52 53 53 58 61 60 60 61 60 62 64 64 64 64 65 63 62 62 63 63 64 66 65 65 64 61 60 58 58 57 56 54 53 51 50 49
44 42 41 43 48 45 44 45 50 53 48 51 51 52 51 54 59 58 58 58 57 57 58 61 62 64 64 63 62 62 62 62 61 63 63 65 66 64 62 61 58 57 56 56 53 51 50 47 47
44 41 39 44 47 45 43 46 49 52 51 53 54 53 52 52 53 57 56 54 54 59 60 60 62 63 63 66 65 65 64 63 61 59 60 63 65 65 63 61 58 57 56 55 52 50 46 46 48
40 40 40 42 43 43 41 42 43 49 47 52 53 53 52 53 54 54 55 55 52 52 56 60 62 62 64 65 60 55 54 53 54 55 57 59 63 64 64 62 59 57 57 54 52 52 52 46 46
41 47 46 44 40 36 38 33 39 45 48 50 53 51 52 53 52 53 53 54 53 53 53 57 59 61 62 63 60 60 61 60 60 61 56 57 59 61 63 63 60 58 57 56 53 54 53 51 45
44 47 45 41 37 35 35 34 40 40 46 50 52 51 52 52 54 53 53 54 53 52 50 52 55 58 59 60 61 59 59 58 55 53 54 54 54 59 62 62 60 58 57 57 54 52 52 53 51
47 44 41 36 35 29 35 35 35 41 44 46 51 52 52 51 51 52 51 52 51 48 47 49 53 53 55 56 56 57 58 54 50 50 50 51 51 53 56 60 60 59 57 56 54 53 52 52 52
43 41 31 28 25 27 32 31 38 44 47 47 50 51 49 48 48 49 50 50 50 49 47 48 50 50 52 54 54 55 56 53 52 52 52 49 50 48 52 56 58 58 57 56 55 52 51 51 51
41 41 31 25 23 28 33 31 42 48 48 47 47 45 47 48 47 47 48 49 49 49 48 49 49 50 49 50 51 51 52 52 53 51 51 51 51 52 51 51 55 57 57 56 55 53 52 51 50
41 37 42 30 14 23 31 37 47 47 46 47 49 50 49 49 48 49 49 49 49 50 50 49 50 50 49 49 48 48 48 49 50 49 49 50 49 49 49 49 50 51 54 56 55 54 52 51 49
42 45 35 30 21 19 27 30 37 44 43 45 47 48 49 49 50 50 50 50 49 48 48 48 48 49 49 49 48 48 48 48 48 48 48 48 48 47 47 47 48 48 49 50 51 53 53 51 50
40 38 37 39 32 25 20 31 42 43 46 46 46 49 50 49 50 51 50 50 50 49 49 48 48 48 48 48 47 47 46 47 46 46 48 48 47 46 47 47 47 47 47 48 49 51 51 49 48
38 39 39 32 29 28 29 33 45 47 47 48 48 50 49 49 52 50 50 50 51 50 50 49 48 48 48 47 47 46 46 46 45 45 46 46 46 45 46 45 45 46 48 49 48 48 48 48 46

GFSSGP_sfc_temp_072.txt.gz
Temp
68 67 64 64 55 49 41 45 48 51 51 54 57 56 55 53 54 48 60 65 67 67 70 72 74 76 76 75 75 76 76 76 76 76 76 76 76 76 76 75 76 76 76 77 76 75 75 74 74
66 69 64 55 48 42 43 45 52 53 56 56 58 56 54 50 57 56 60 66 69 69 70 71 72 75 75 75 75 75 76 76 76 76 76 76 76 76 76 75 75 76 76 76 76 75 74 74 74
66 66 61 51 42 43 43 48 53 53 55 54 53 56 55 54 56 59 63 67 68 68 69 70 72 75 75 75 75 75 75 76 76 76 76 76 75 75 75 75 75 76 75 76 75 75 74 74 73
66 63 57 50 43 46 47 49 52 54 53 56 55 53 55 59 60 63 66 68 67 67 69 70 73 74 74 74 75 75 75 75 76 76 76 75 75 74 74 74 75 75 75 75 75 74 74 73 73
60 56 49 44 44 48 48 51 53 51 51 52 54 51 52 59 64 65 66 68 66 66 68 69 72 73 74 74 74 75 75 75 75 75 75 74 74 74 74 74 74 74 73 74 75 74 73 73 72
59 55 46 42 43 50 49 52 54 52 51 52 53 52 54 60 63 63 67 66 68 67 68 69 69 70 72 73 73 74 74 74 74 74 74 74 74 73 73 73 73 74 73 74 73 73 72 72 71
56 50 45 42 44 47 53 55 51 54 50 53 58 51 52 56 63 63 64 64 65 67 67 67 68 69 68 70 70 71 72 73 73 73 73 72 72 72 72 72 72 73 73 73 72 71 71 70 69
54 52 43 41 46 48 53 55 54 55 54 54 55 51 50 60 63 63 64 64 64 66 67 66 67 68 67 67 66 68 69 70 70 69 68 67 68 68 68 67 70 72 72 71 71 70 70 69 67
54 49 44 48 48 50 52 53 53 54 55 54 57 55 55 61 62 62 61 62 63 64 65 65 66 66 66 66 65 65 66 66 66 65 64 62 61 62 63 64 68 70 70 70 69 69 67 65 64
53 47 50 53 52 51 54 52 57 53 51 51 52 53 55 60 62 61 61 63 64 65 64 65 65 66 65 67 65 65 64 63 63 62 61 60 59 59 61 61 64 67 67 68 68 66 63 59 55
50 51 53 53 54 57 57 52 53 53 49 57 58 57 56 57 60 61 61 62 65 66 65 64 65 66 67 67 66 64 63 61 60 60 60 59 58 57 58 58 58 59 59 58 59 56 55 55 54
51 52 53 55 55 56 56 56 51 53 56 56 59 57 56 58 60 61 60 60 60 61 63 63 64 66 67 68 67 67 65 61 59 59 59 57 56 55 55 56 56 56 55 53 53 53 53 54 54
51 51 54 54 56 54 56 51 53 53 57 56 56 57 57 60 60 61 62 59 60 61 61 62 64 66 67 66 67 67 67 63 60 59 59 58 56 55 55 55 55 55 54 53 52 52 52 52 53
54 53 52 52 53 53 52 49 50 52 53 53 53 54 55 58 59 56 58 59 59 62 62 62 63 64 67 67 67 67 67 66 61 59 59 58 57 55 54 54 54 54 53 53 52 52 51 51 51
53 50 48 48 50 51 51 49 51 51 51 51 52 51 53 55 55 58 62 61 62 61 62 62 63 64 64 66 67 68 67 66 65 60 59 59 58 56 55 54 56 55 57 56 55 54 54 51 52
48 45 42 47 50 48 50 46 50 50 47 53 51 50 51 54 55 57 58 59 60 60 61 62 64 63 63 64 65 67 68 67 66 64 61 62 62 60 58 58 58 57 56 56 55 54 52 52 52
42 39 38 43 48 47 46 47 51 50 50 50 50 51 52 52 54 55 56 58 59 60 60 61 63 63 63 63 64 64 64 66 66 66 63 63 63 62 60 59 58 57 56 56 54 52 53 51 50
38 37 37 37 43 44 40 47 50 53 50 52 51 50 50 52 55 58 58 58 58 58 60 62 62 63 63 63 62 62 61 64 63 65 65 62 64 63 61 59 58 57 56 55 54 53 50 51 50
43 40 38 40 45 43 42 43 48 52 48 49 50 50 50 52 56 56 56 55 55 56 57 60 61 62 63 62 62 63 62 63 62 62 63 65 63 63 61 60 58 57 56 56 55 51 50 47 47
43 41 39 42 45 43 41 44 48 50 51 52 51 51 51 50 52 54 54 52 52 56 58 59 61 62 63 64 64 62 64 64 63 62 62 64 64 64 61 61 58 57 57 55 53 52 47 47 48
40 41 39 41 41 40 38 41 43 47 46 50 50 50 50 51 51 51 53 51 50 50 52 57 60 61 63 65 59 56 57 56 57 57 60 62 64 64 63 62 61 57 58 56 54 54 52 48 45
40 46 45 43 39 35 37 33 40 44 46 48 50 47 47 49 50 49 50 49 50 51 49 53 56 58 60 61 60 60 62 62 62 61 58 57 60 63 64 63 61 59 58 57 55 54 54 53 46
43 45 43 40 36 34 34 34 41 40 45 48 49 49 47 47 48 49 49 50 48 47 47 48 52 55 57 60 61 59 58 58 55 54 55 54 54 59 61 63 61 59 58 58 56 53 52 53 51
45 43 40 35 34 29 34 34 37 41 43 45 46 47 48 47 47 48 48 49 48 46 46 48 50 52 55 57 56 57 57 55 52 51 51 52 52 53 55 60 61 60 59 58 57 54 53 53 53
42 40 30 28 26 27 31 31 38 44 46 45 46 46 46 45 45 46 47 48 47 46 46 47 50 50 51 53 54 54 54 54 53 52 52 50 50 49 51 55 58 59 59 58 57 54 53 52 51
40 40 32 25 22 28 31 30 40 43 46 45 45 43 45 46 46 46 46 47 46 46 46 47 48 49 49 50 51 51 52 52 52 51 51 50 50 51 51 51 54 58 58 57 56 54 53 53 51
41 37 40 28 13 22 30 35 43 43 44 45 46 47 46 46 46 46 47 46 46 46 46 46 47 47 48 48 47 47 48 48 49 49 48 48 48 48 49 49 49 51 54 57 56 54 52 51 50
41 44 35 30 19 19 27 29 35 38 41 43 46 46 47 46 48 47 47 47 47 46 46 47 47 47 46 46 46 46 46 46 46 46 47 47 47 47 46 46 47 47 48 50 54 54 54 52 51
38 37 36 37 32 24 20 31 38 42 43 43 44 45 47 47 48 47 48 48 47 47 46 46 46 46 45 45 45 45 45 45 45 44 45 45 45 45 45 45 45 46 46 45 47 50 52 51 51
37 38 38 31 27 26 27 31 41 44 44 46 46 47 45 46 46 46 46 46 46 46 46 45 45 45 44 44 44 44 44 44 44 44 45 45 45 44 45 44 44 45 45 45 45 47 49 49 48

GFSSGP_sfc_temp_075.txt.gz
Temp
71 70 69 67 60 53 50 54 59 59 60 64 63 62 62 62 60 57 65 69 71 72 74 76 75 76 76 76 75 75 76 76 77 77 77 76 76 76 76 76 76 77 77 77 76 76 75 75 74
70 73 67 59 53 48 50 55 57 60 62 61 63 63 62 59 62 60 65 69 72 73 74 75 73 75 75 75 75 75 76 76 77 77 76 76 76 76 76 76 76 76 76 76 76 75 75 74 74
71 69 64 54 47 49 50 55 59 60 59 63 61 63 62 60 62 64 68 70 72 72 73 74 73 75 75 75 75 75 75 76 76 76 76 76 76 75 75 76 76 75 75 76 76 75 74 74 74
67 66 60 54 51 54 56 58 59 59 61 62 62 60 64 66 65 68 70 71 72 72 73 72 73 74 74 74 75 75 75 76 76 76 76 76 75 75 75 75 76 75 75 75 75 74 74 73 73
62 60 53 50 52 55 56 59 59 59 60 61 62 58 59 65 68 68 69 71 71 71 73 74 72 73 74 74 75 75 75 75 75 75 75 75 74 74 74 74 75 75 75 75 74 74 73 73 73
60 57 50 48 51 55 57 58 60 60 60 61 60 58 61 65 66 66 70 70 72 71 71 73 69 70 72 73 73 74 74 74 74 74 74 75 74 74 74 74 74 74 75 74 74 73 73 72 71
58 53 49 48 50 53 58 58 59 60 60 62 63 57 62 64 67 67 69 70 71 71 71 72 73 71 68 70 70 72 73 73 73 73 73 72 72 72 72 72 73 73 73 72 72 71 71 70 70
57 54 49 47 51 52 57 58 60 62 61 61 64 59 59 66 65 66 68 68 69 70 70 71 71 72 72 72 66 68 69 70 70 69 68 67 68 69 69 68 71 73 72 73 71 70 69 69 68
58 52 47 50 51 55 55 58 58 61 61 60 62 63 64 64 65 65 65 65 66 67 69 70 70 71 71 71 68 65 66 67 66 66 64 64 69 69 69 66 69 70 71 70 70 69 67 66 65
56 50 53 55 55 56 56 58 60 60 58 59 60 61 61 63 64 63 63 63 65 66 66 68 69 69 70 70 69 70 69 70 69 69 68 67 67 67 67 65 64 67 68 69 68 66 63 63 67
54 53 56 56 57 58 57 56 59 58 55 61 61 61 59 61 63 63 63 65 66 68 67 67 68 69 69 69 68 69 68 68 67 67 66 66 65 66 67 67 66 67 62 67 65 64 65 63 65
55 54 57 57 57 57 57 58 56 57 62 60 62 62 59 60 61 63 63 65 66 66 67 67 68 68 69 70 68 68 68 66 66 66 65 64 64 64 64 65 65 64 64 63 63 63 62 62 62
54 54 56 56 57 56 57 54 56 58 60 59 59 58 59 61 62 64 65 63 65 64 65 65 66 68 69 68 68 69 68 66 66 65 64 64 64 63 63 63 63 63 63 63 62 62 62 61 61
54 54 54 55 54 54 54 53 54 57 57 57 58 58 58 60 61 60 61 62 62 64 64 66 66 68 69 68 68 68 69 68 65 65 64 64 64 63 63 62 62 62 62 62 62 62 62 62 61
54 52 52 53 52 52 53 52 53 56 55 55 58 58 57 58 59 61 64 64 64 65 65 64 66 67 68 67 68 69 68 67 66 65 64 64 63 63 62 62 62 61 61 60 59 58 58 58 57
49 49 46 50 52 51 53 48 53 54 54 57 57 56 55 57 59 61 62 63 63 64 64 65 65 65 66 67 68 69 69 68 67 65 64 64 64 62 60 60 61 60 59 59 58 57 56 55 55
46 42 42 46 50 49 49 48 52 53 53 53 55 55 55 55 57 58 60 62 63 64 65 64 65 65 66 66 67 68 68 68 67 66 64 64 64 64 61 60 60 59 58 58 58 58 56 55 58
41 41 41 43 47 46 43 47 51 53 52 54 54 54 54 55 58 60 59 60 61 62 64 66 65 65 65 66 66 65 65 66 66 66 65 64 65 64 64 61 60 58 58 58 56 56 56 56 58
44 42 41 43 46 45 44 45 49 52 52 53 54 54 54 54 58 58 58 58 58 59 61 63 63 64 64 64 63 63 62 63 64 64 65 64 65 63 62 61 62 59 57 58 59 58 52 53 53
44 42 40 43 45 45 42 46 49 50 51 52 53 54 53 53 54 56 56 55 55 58 60 61 63 63 64 66 67 67 66 65 66 64 63 66 65 64 62 61 60 59 60 56 55 53 50 52 50
39 42 41 43 42 42 40 44 46 48 48 50 51 51 51 52 52 52 53 55 53 52 54 59 61 63 64 65 64 60 61 60 60 60 63 63 65 65 64 63 63 60 59 59 56 55 55 51 47
40 46 44 43 40 38 40 37 43 45 47 48 48 48 49 49 50 50 50 52 51 53 52 55 57 60 62 63 62 64 64 63 65 65 63 63 63 64 64 63 62 60 59 58 57 56 56 54 48
42 45 43 40 37 36 37 37 43 42 44 48 49 49 48 48 48 50 50 50 50 49 50 52 54 57 59 62 63 62 63 63 61 60 60 60 59 61 63 63 62 60 59 59 59 55 54 55 55
44 42 40 37 36 31 35 35 39 43 45 46 48 48 48 48 48 49 49 49 49 49 49 51 53 54 57 59 60 60 60 59 57 57 57 58 58 58 59 61 61 61 59 58 58 57 55 54 54
42 40 32 30 27 29 32 32 40 45 46 46 47 47 46 46 47 47 47 48 48 48 48 50 52 52 55 57 57 58 58 58 57 57 57 55 56 55 56 57 59 60 59 59 58 56 55 53 53
40 41 33 26 24 29 31 31 41 44 46 45 46 45 45 46 46 46 47 47 47 47 48 49 49 49 51 52 53 54 55 56 56 55 55 55 55 55 56 55 56 58 59 59 58 57 55 54 53
41 37 40 28 13 24 31 36 44 42 44 44 45 46 45 46 46 47 47 47 47 47 46 47 48 48 48 49 50 50 51 51 52 52 52 52 52 51 52 52 52 53 55 57 58 57 55 53 52
41 43 36 30 20 20 27 30 36 40 41 43 44 45 46 46 47 47 46 46 46 46 46 47 47 47 46 47 47 48 48 49 49 49 49 49 50 50 50 50 50 51 51 52 53 55 57 54 53
39 37 36 38 33 25 20 31 38 42 43 44 44 45 46 46 46 46 46 46 46 46 46 46 47 46 46 46 46 47 47 47 48 48 48 48 48 48 48 48 48 49 49 49 49 51 52 53 53
38 39 39 33 28 26 27 32 42 43 44 44 45 46 45 45 44 44 44 45 45 45 45 45 45 45 44 45 45 45 45 45 45 45 46 45 46 46 46 45 45 46 46 47 47 48 49 49 48

GFSSGP_sfc_temp_078.txt.gz
Temp
80 85 90 88 74 73 63 64 71 68 70 73 74 72 72 72 69 65 75 78 81 81 82 80 75 76 76 75 75 75 76 76 76 76 76 76 76 76 77 76 76 77 77 77 76 75 75 75 75
88 86 89 82 70 63 64 68 66 71 72 74 73 72 72 69 72 70 74 77 82 82 83 82 73 75 75 75 75 75 76 76 76 76 76 76 76 76 77 76 76 76 76 76 76 75 75 75 74
84 85 82 73 68 64 64 68 72 69 71 72 71 73 72 70 72 75 78 79 82 81 82 79 73 75 75 75 75 75 75 76 76 76 76 76 76 76 76 76 76 75 76 76 75 75 74 74 74
85 86 78 69 63 66 68 71 72 69 71 72 72 70 72 75 75 78 80 80 81 80 81 74 73 75 75 74 75 75 75 76 76 76 76 75 75 75 75 76 76 75 75 76 75 74 74 74 74
83 80 70 65 64 66 70 72 74 71 72 73 72 69 69 73 77 78 79 81 81 80 81 79 72 73 74 74 75 75 75 75 75 75 75 75 74 74 75 75 75 75 75 74 74 74 73 73 72
76 76 65 62 64 67 69 72 74 74 72 71 72 71 71 74 76 78 80 81 83 80 80 78 70 70 72 73 74 74 74 74 74 74 74 74 74 74 74 74 74 74 74 74 74 73 73 72 71
73 70 64 65 65 66 68 72 74 74 72 72 75 70 72 73 77 79 80 82 82 81 79 78 79 74 68 70 71 72 73 73 73 73 73 72 72 72 72 73 73 74 73 73 72 72 72 72 71
76 73 61 63 64 64 69 70 73 75 72 72 76 72 70 76 76 78 80 80 80 80 79 78 79 79 78 77 66 68 69 70 70 69 68 67 68 69 69 69 71 73 73 71 70 70 70 70 69
73 68 62 63 64 67 68 70 70 73 73 71 73 75 74 77 76 75 75 76 77 77 78 78 77 79 79 79 73 66 66 66 66 67 64 67 76 75 74 67 69 71 72 70 69 68 67 66 65
73 66 66 70 72 70 69 72 72 72 71 71 72 72 73 74 74 73 73 73 74 75 76 77 77 78 79 78 77 78 76 77 77 76 75 76 76 76 75 67 65 68 68 69 68 65 63 67 75
67 68 68 67 70 72 71 70 72 72 68 75 74 73 71 73 74 74 75 76 75 77 75 73 74 75 77 77 78 78 77 77 76 75 75 74 74 74 75 74 73 73 67 74 71 70 74 71 75
67 65 68 67 67 68 69 72 70 71 74 73 76 78 73 72 73 74 75 76 76 76 75 72 72 72 74 75 75 78 77 76 75 75 74 74 73 72 73 74 74 72 73 72 72 73 71 71 71
67 65 65 66 66 67 68 68 70 70 74 71 71 71 72 74 74 76 77 77 76 75 75 71 71 71 72 71 72 73 76 75 76 74 73 74 73 72 73 73 73 73 72 72 71 71 71 70 70
66 66 65 65 66 66 67 66 67 70 70 70 70 72 74 74 74 75 74 74 74 74 73 71 69 71 72 71 71 71 73 76 75 75 74 72 74 73 72 72 72 72 72 73 72 72 71 71 70
64 62 64 65 65 64 65 63 65 70 68 69 70 73 72 72 74 73 75 74 75 74 74 71 70 72 72 71 71 72 72 73 73 74 74 72 72 73 72 72 72 72 72 71 70 69 69 70 69
62 63 59 61 62 62 64 62 66 67 69 71 71 74 71 71 72 75 77 77 77 77 75 75 73 70 70 71 71 71 71 70 71 72 74 72 72 72 69 68 69 68 64 70 69 67 66 67 65
59 56 56 56 60 61 62 63 65 65 66 70 71 72 71 73 73 75 75 76 77 77 77 75 75 72 68 70 71 71 70 70 71 70 71 72 72 72 69 70 67 65 66 62 64 62 64 63 65
49 54 52 57 58 57 58 60 66 67 65 69 72 73 73 72 74 77 75 75 76 76 77 77 75 75 72 70 69 68 68 69 70 70 69 69 69 72 71 71 70 64 63 61 60 60 60 65 61
61 56 56 55 54 55 57 59 64 68 66 69 72 73 72 72 74 71 72 73 72 73 74 74 74 74 74 68 65 64 64 65 66 67 69 69 68 70 68 66 66 64 64 65 64 60 60 59 62
58 56 54 52 54 55 54 57 64 66 66 66 68 70 69 69 70 69 68 69 69 72 72 73 74 74 74 73 69 69 67 67 68 66 67 67 67 67 67 64 63 62 61 62 62 61 61 57 59
54 57 52 55 53 54 54 58 60 58 60 61 62 62 63 63 64 65 65 66 66 67 69 71 73 73 74 74 72 67 64 64 66 65 65 65 66 65 65 66 64 63 61 61 61 60 57 59 60
51 55 54 51 55 52 52 53 58 58 60 59 60 61 62 62 63 63 64 64 62 62 64 67 70 71 72 73 69 66 65 64 67 68 66 65 65 65 64 64 64 64 62 61 61 59 59 57 55
53 54 53 52 51 51 50 52 59 56 57 59 61 59 61 61 60 61 61 60 60 60 61 64 66 68 70 71 71 67 65 67 70 71 70 69 69 68 66 64 63 61 61 61 60 58 57 58 56
52 53 52 51 51 44 48 49 55 58 58 59 59 58 58 59 61 61 60 61 61 62 63 63 64 65 67 68 70 68 65 65 65 66 66 68 68 67 65 63 62 61 60 59 59 59 57 56 56
54 55 43 41 41 41 41 42 57 56 57 59 59 57 57 59 61 61 60 60 60 60 60 62 61 57 60 61 61 61 62 63 63 63 63 63 64 65 66 65 63 62 62 60 59 58 57 56 55
53 55 44 34 34 41 37 41 55 53 54 55 57 56 57 58 58 59 59 59 58 58 60 61 61 60 62 62 61 61 59 60 60 60 60 61 63 64 64 63 64 64 64 62 61 59 58 57 55
49 47 50 38 26 39 46 49 55 51 51 53 54 57 57 58 58 57 58 59 58 57 57 59 59 58 59 60 61 60 61 61 60 60 61 62 61 59 59 61 61 62 62 62 62 61 58 58 57
52 52 44 45 33 33 42 42 52 48 49 52 53 55 56 56 57 57 57 56 56 57 57 58 58 56 57 58 58 58 58 59 59 59 58 58 59 58 58 58 59 59 59 59 59 58 59 58 57
47 47 46 49 45 38 37 47 55 56 54 54 56 56 56 55 55 56 56 56 56 56 57 57 57 56 56 56 57 56 55 56 56 56 56 55 56 55 55 55 55 55 56 56 56 56 56 56 56
47 49 51 46 36 40 39 48 51 58 58 57 55 53 55 55 54 55 55 55 55 54 55 54 55 54 54 55 56 54 54 54 54 53 53 52 52 52 52 51 51 52 53 53 52 52 53 53 52

GFSSGP_sfc_temp_081.txt.gz
Temp
79 90 93 87 72 73 65 66 76 71 73 77 80 77 75 77 71 64 81 83 85 84 82 81 75 76 76 75 75 75 76 76 76 76 77 76 77 77 77 76 76 76 77 77 75 75 75 75 74
93 90 88 84 70 65 67 74 70 75 77 79 77 77 76 71 77 74 77 83 85 85 85 82 73 75 75 75 75 76 75 76 76 76 76 76 77 77 77 77 76 76 76 75 76 75 75 75 74
88 91 82 76 71 68 66 73 75 75 77 77 75 78 78 73 77 79 83 84 85 85 85 78 73 75 75 75 75 75 75 76 76 76 76 76 76 76 76 76 75 76 76 76 76 75 75 74 73
89 89 85 71 67 70 72 76 78 75 75 77 78 73 78 80 80 83 83 85 85 85 83 74 73 75 75 75 75 75 75 76 76 76 75 75 76 75 75 75 75 75 76 76 75 75 75 73 73
90 85 71 68 67 71 75 79 79 75 77 77 77 73 73 78 83 84 83 85 83 82 81 78 73 73 74 74 75 75 75 75 75 75 75 75 75 75 75 75 75 75 75 75 75 74 73 73 72
80 81 67 64 68 71 76 79 79 78 78 77 76 76 74 80 80 82 84 85 86 82 78 78 70 71 72 73 74 74 75 74 74 74 74 74 74 74 74 74 74 74 74 74 74 73 73 72 72
76 72 68 70 69 69 73 80 77 77 76 76 80 74 75 77 82 83 84 86 85 83 78 79 78 73 69 70 71 72 73 73 73 73 73 72 72 72 73 72 74 74 73 73 72 73 72 72 71
80 76 67 69 67 67 74 76 80 79 76 80 82 74 72 79 81 83 84 85 85 82 77 78 80 80 79 76 67 68 70 71 70 69 68 67 68 69 69 69 71 72 72 71 70 70 71 70 69
80 70 65 68 68 69 75 74 77 79 77 77 78 81 83 80 81 80 80 81 82 79 77 76 78 81 81 79 72 66 66 67 66 67 65 66 76 76 73 67 69 71 71 70 69 68 68 66 66
74 68 70 76 77 73 74 77 75 75 75 75 75 77 81 79 78 77 76 77 78 78 77 77 76 79 81 81 77 78 76 77 78 76 75 78 77 76 75 67 65 68 69 69 68 66 66 64 75
74 69 74 73 75 79 74 75 79 76 72 78 76 75 77 77 77 77 78 79 78 80 80 79 76 77 78 80 79 79 78 78 78 77 77 77 76 74 75 73 72 72 66 72 69 68 73 74 75
69 71 74 71 70 75 73 78 74 77 76 80 82 81 78 77 77 78 78 80 79 80 80 79 78 76 76 77 80 80 79 78 77 77 76 75 75 74 75 75 75 73 73 73 73 73 73 72 72
71 69 70 71 69 74 75 74 75 75 78 78 78 80 78 78 79 80 81 82 81 79 80 78 77 74 75 75 77 80 79 77 78 77 76 76 75 73 74 74 74 74 74 73 72 72 71 71 72
72 70 69 70 70 70 71 71 71 76 78 76 75 76 79 79 79 80 80 80 80 80 80 80 76 76 76 73 73 76 79 78 78 77 76 75 76 74 74 73 73 73 74 74 73 73 72 71 72
71 64 68 69 70 68 70 66 69 74 74 75 74 78 78 79 81 79 80 80 80 80 80 79 74 73 75 74 73 72 73 76 76 77 77 75 75 75 74 74 73 73 74 73 72 71 71 71 72
67 68 61 67 67 66 66 65 74 73 73 74 76 78 76 78 79 81 82 81 82 81 78 78 73 70 73 73 72 72 71 72 72 75 76 75 74 75 74 73 73 74 72 71 71 70 69 68 70
62 58 62 60 66 65 64 67 68 71 71 74 76 78 77 77 78 80 81 82 82 82 80 78 77 74 71 73 72 71 71 71 71 71 71 74 74 74 74 71 70 72 69 69 70 68 67 66 67
57 59 60 62 63 61 63 63 70 70 70 73 77 78 77 77 79 81 81 81 81 82 81 81 79 78 72 70 70 70 69 70 71 70 70 70 72 73 73 72 72 71 67 63 63 62 61 61 62
65 63 60 64 59 60 63 64 69 72 69 71 73 76 78 78 81 78 78 79 78 79 79 79 79 78 76 68 66 65 65 67 67 68 69 69 70 69 69 72 70 67 62 63 64 61 60 61 64
63 61 60 57 58 58 61 59 68 69 70 72 74 76 76 76 76 75 74 75 75 76 77 78 78 79 78 76 68 68 68 67 68 68 68 69 68 68 66 67 66 64 62 63 62 60 59 62 64
60 59 58 59 56 59 57 60 66 65 65 67 68 70 71 70 71 71 70 72 72 72 74 76 77 78 78 77 72 67 65 66 65 65 65 66 68 66 65 65 64 64 63 62 62 61 59 56 60
54 61 61 55 56 53 58 55 62 66 64 64 65 67 68 68 68 68 68 68 67 68 71 74 75 76 77 77 75 66 66 64 67 67 66 65 66 66 66 66 65 63 62 60 60 61 59 58 55
57 61 60 58 56 55 54 55 63 62 61 63 66 65 66 66 66 65 64 64 64 64 66 68 72 74 75 75 75 67 64 66 69 67 65 64 64 64 65 66 64 63 63 61 60 59 58 58 56
59 57 57 57 55 45 55 55 60 61 64 63 63 64 63 64 64 62 63 64 64 66 65 66 68 70 72 72 73 72 64 63 63 62 62 63 64 64 63 64 62 61 60 60 60 59 58 57 57
60 56 45 43 42 42 46 46 59 61 64 65 63 61 61 63 64 63 62 62 62 62 64 63 62 62 66 67 67 65 64 64 62 61 60 59 60 61 64 65 64 64 64 63 60 59 58 57 56
54 57 47 36 38 45 40 42 56 62 60 61 64 62 61 61 61 61 61 61 60 61 63 63 63 62 62 61 61 60 61 62 61 62 63 64 64 64 64 64 64 65 65 65 64 61 59 58 57
55 50 56 41 31 41 49 54 60 56 56 58 58 59 59 59 60 60 61 61 61 60 61 62 61 61 63 63 63 63 63 63 62 62 63 62 62 60 60 61 61 62 62 62 61 60 59 60 58
55 59 46 48 33 34 46 49 55 49 52 56 56 59 60 60 60 60 60 59 60 60 60 61 61 60 60 61 60 60 60 61 61 60 58 58 59 58 58 58 58 58 59 59 58 57 58 57 57
49 49 51 54 49 40 39 49 60 60 57 56 57 59 58 59 59 59 59 59 59 60 60 60 59 59 58 59 58 57 57 58 58 57 56 55 56 55 55 55 54 55 55 55 55 55 55 54 54
54 54 54 46 38 44 40 49 55 62 61 60 58 58 59 59 59 59 59 59 58 57 58 57 57 56 57 58 57 55 56 56 55 54 54 53 53 53 53 52 52 52 52 52 51 51 52 51 50

GFSSGP_sfc_temp_084.txt.gz
Temp
74 78 79 75 60 59 55 60 69 66 66 70 74 69 66 66 63 54 76 80 80 77 76 76 75 76 75 75 75 75 76 76 77 77 77 77 77 77 77 76 76 76 76 77 76 76 75 74 74
78 87 77 70 57 52 55 65 65 67 70 72 71 69 68 62 70 70 70 81 80 78 78 76 73 75 75 75 75 75 76 76 76 77 77 77 77 77 77 76 76 76 77 76 76 76 75 74 74
76 86 68 62 58 54 55 65 65 69 71 71 67 71 69 65 71 72 77 81 82 79 77 73 73 74 75 75 74 74 75 76 76 76 76 76 77 76 75 76 75 76 76 76 76 76 74 74 74
79 75 72 58 57 62 64 67 69 68 69 71 70 64 68 73 73 76 80 81 79 77 75 72 73 74 75 74 75 75 76 76 76 76 76 76 75 75 75 75 75 75 75 76 76 75 74 73 74
77 72 59 57 59 64 67 71 71 67 68 69 67 64 64 73 78 78 79 81 77 75 73 73 72 73 74 74 75 75 75 75 75 75 75 75 75 75 74 75 75 74 74 75 74 74 73 73 72
68 69 56 54 59 65 66 71 72 70 70 67 64 66 63 74 75 76 79 78 78 75 73 73 68 70 72 73 73 74 74 74 74 74 74 74 74 74 74 74 74 74 74 74 74 73 73 72 72
63 61 57 59 59 60 66 69 68 69 67 67 68 63 64 70 75 77 77 80 77 76 74 71 71 69 69 69 70 72 73 73 73 73 72 71 71 72 72 71 73 74 73 73 73 72 72 71 70
68 64 59 58 59 58 67 68 69 70 64 70 70 62 59 70 76 77 77 78 75 75 74 71 70 71 70 68 66 68 70 70 70 69 68 67 68 69 69 68 71 72 71 71 70 70 70 70 69
71 58 55 59 60 61 69 64 68 69 68 68 70 69 73 75 76 73 72 73 74 73 73 75 71 72 71 70 65 65 66 66 66 66 65 64 66 67 67 65 69 70 70 69 68 68 68 66 66
63 55 61 68 65 64 67 68 67 65 65 64 64 70 73 73 73 70 70 70 69 70 70 73 74 73 72 75 68 68 68 67 68 67 65 67 67 65 66 63 65 67 67 68 68 66 66 64 63
64 58 67 68 68 71 68 66 71 65 61 66 64 66 69 69 70 70 70 71 71 71 72 73 73 75 75 72 68 68 67 67 68 67 67 68 66 64 64 61 62 61 62 63 63 62 63 65 64
59 65 68 66 64 68 66 69 64 65 61 71 71 70 69 69 69 69 69 70 71 72 72 71 74 73 73 70 69 69 68 68 67 67 68 65 63 63 63 62 63 62 62 62 62 61 63 64 65
60 64 66 65 63 66 70 65 64 64 67 70 72 71 69 69 70 71 72 72 72 71 72 71 72 74 74 73 69 70 69 68 68 67 68 66 64 63 64 64 63 63 63 63 61 61 62 62 63
66 64 63 65 64 64 63 62 62 65 68 66 67 67 68 70 70 70 71 71 71 72 71 71 70 72 71 74 69 68 70 70 68 67 67 68 66 64 64 63 63 63 63 63 62 62 61 61 62
65 58 60 62 63 60 60 57 59 63 66 65 64 65 68 70 72 70 71 71 72 72 73 71 70 73 72 71 70 70 67 70 71 68 68 67 67 65 64 63 62 63 63 63 62 62 61 60 61
60 58 50 59 61 58 58 53 62 65 63 63 64 64 66 69 71 71 72 72 72 72 72 72 70 69 71 70 70 69 69 67 70 69 70 68 68 67 64 62 62 63 62 62 60 59 58 58 58
55 47 51 52 61 58 56 52 58 62 62 61 62 64 66 66 68 70 72 72 72 72 71 70 68 67 68 69 68 68 68 68 68 68 68 70 68 67 64 62 61 62 60 59 59 60 58 56 57
47 50 53 50 55 53 52 52 58 61 61 60 62 64 65 65 67 70 71 72 72 71 71 71 69 67 69 68 67 66 66 66 67 67 67 68 67 69 65 63 62 61 59 58 57 59 58 58 58
58 53 51 52 55 53 52 52 58 60 59 58 61 62 64 66 67 68 68 69 69 69 70 70 70 69 67 65 64 63 64 64 65 65 66 67 66 66 66 65 63 64 59 60 60 58 57 56 57
55 54 49 50 55 51 52 52 57 60 59 61 63 63 64 65 63 66 61 59 64 66 67 69 70 69 68 65 67 66 65 64 65 65 65 66 65 65 64 64 63 62 59 59 59 57 55 56 56
53 53 49 49 50 49 45 46 52 57 61 58 55 57 61 63 63 61 61 56 59 60 62 67 68 69 70 67 65 64 63 62 62 62 63 64 65 64 63 63 63 61 60 60 59 58 56 56 56
49 54 54 49 46 41 48 38 45 50 52 55 57 55 58 58 58 59 58 56 56 56 57 61 66 68 69 68 65 63 62 61 62 63 63 63 64 63 63 63 62 61 60 59 59 59 58 57 55
51 55 52 49 45 41 41 39 45 52 50 52 55 57 55 56 58 57 55 57 54 55 54 56 61 65 67 67 64 63 62 62 62 62 62 62 62 63 63 62 62 61 61 60 60 58 57 57 56
55 52 52 48 45 34 43 42 42 48 52 53 53 55 55 54 53 54 55 57 55 54 54 57 60 62 63 64 64 65 62 61 60 60 60 60 61 61 61 61 61 60 60 59 59 58 58 57 56
51 47 32 32 30 30 38 37 45 50 54 54 53 52 52 53 52 52 52 52 53 54 54 55 55 55 57 58 58 60 61 60 59 58 57 57 57 58 58 59 59 58 60 59 60 58 56 56 56
47 47 34 29 27 30 33 33 45 48 52 55 55 52 52 50 52 51 51 51 51 53 53 54 57 56 57 57 58 60 60 59 58 58 55 53 52 52 53 53 54 55 55 55 54 52 53 54 52
45 42 46 34 23 28 34 42 45 48 48 50 50 51 50 50 50 51 52 51 50 51 51 52 52 52 53 53 53 52 53 53 52 51 51 51 51 52 51 51 51 51 52 52 52 50 50 50 49
47 52 39 38 22 24 33 34 41 42 45 48 48 48 49 50 50 50 50 50 51 51 51 51 51 50 50 50 50 50 50 51 50 49 48 48 48 49 48 48 48 48 49 49 48 47 48 48 47
44 43 44 45 38 28 25 34 45 48 50 48 48 51 49 49 49 49 49 51 51 51 50 50 50 49 49 49 48 48 48 48 48 46 46 46 46 46 46 46 46 46 46 46 45 45 46 45 45
44 47 47 37 33 35 31 35 48 48 53 52 51 51 50 51 50 49 49 49 49 48 48 47 47 47 48 48 47 46 47 46 45 44 44 44 44 45 45 45 44 44 45 44 44 43 43 43 43

GFSSGP_sfc_temp_087.txt.gz
Temp
70 71 66 67 56 52 49 54 61 61 61 63 67 64 59 58 58 51 72 75 74 72 74 74 74 75 75 75 75 75 76 76 77 77 77 77 76 77 76 76 76 77 76 76 76 76 75 75 74
68 75 68 61 51 46 49 55 57 61 64 66 68 64 61 56 66 68 69 75 74 74 74 73 73 75 75 75 75 75 76 76 77 77 77 77 76 76 76 76 76 76 76 76 76 75 75 75 74
72 73 63 56 50 48 50 55 59 63 65 63 62 66 62 60 66 68 75 76 75 73 73 72 72 74 75 75 74 75 75 76 76 77 77 76 76 76 75 75 76 76 76 76 76 76 75 74 74
70 67 63 54 49 56 57 57 62 62 65 67 63 58 63 68 69 72 79 76 72 71 71 71 73 74 74 75 74 75 75 76 76 76 77 76 75 75 75 75 75 75 75 76 75 75 74 74 74
67 62 55 50 53 58 59 63 63 61 61 61 64 56 59 67 73 76 75 73 69 68 69 71 72 73 74 74 74 75 75 75 75 75 75 75 75 75 75 74 74 74 74 75 74 74 73 73 73
62 61 51 47 52 60 60 64 65 61 61 62 59 59 57 69 71 72 74 71 71 69 69 71 68 70 71 73 74 74 74 74 74 74 74 74 74 74 74 74 74 74 73 74 74 73 72 72 72
59 56 49 48 52 57 62 66 63 62 61 62 65 55 59 65 71 74 72 72 71 70 68 68 68 68 68 69 70 71 72 72 73 73 72 71 71 71 71 72 73 73 73 73 72 72 71 71 71
62 58 50 50 53 54 62 62 62 64 59 65 66 54 55 65 71 73 72 71 70 70 68 66 66 67 66 67 66 67 69 69 69 69 68 67 68 69 68 67 70 71 71 71 71 70 70 70 69
64 53 50 53 55 55 61 59 62 64 65 63 64 62 66 72 71 70 67 68 69 69 68 66 66 66 66 66 64 65 66 66 66 65 64 64 64 65 65 65 68 69 69 69 69 68 68 67 66
58 52 56 60 59 58 62 62 63 61 59 57 59 65 69 70 69 66 65 64 66 68 68 67 66 67 67 71 65 65 65 64 65 64 64 64 63 64 64 62 64 66 67 68 68 67 66 63 61
60 56 59 63 62 65 63 60 63 60 55 59 59 63 66 64 64 65 64 65 65 68 72 72 70 68 67 67 64 64 64 63 63 64 63 63 63 61 61 59 60 60 61 61 62 61 61 61 61
58 61 62 62 62 64 63 64 62 61 62 66 65 67 66 64 64 64 64 65 64 66 67 74 74 73 68 66 65 65 64 64 63 64 65 62 60 59 60 59 59 59 59 60 59 59 60 61 62
58 59 63 61 61 63 66 61 61 60 59 65 66 67 65 65 64 66 67 67 67 66 67 68 72 74 72 68 65 65 65 65 65 64 65 63 61 60 60 60 60 60 60 60 59 59 60 60 61
62 61 61 60 59 60 61 56 61 61 61 61 64 62 64 65 66 65 66 66 68 68 67 68 68 72 73 73 66 69 68 66 65 64 64 65 62 61 61 60 61 60 60 60 59 59 59 59 59
60 56 55 58 59 58 61 54 56 62 61 61 59 59 62 65 66 67 68 67 70 69 70 68 68 69 70 71 69 65 66 69 67 64 65 65 64 62 61 60 60 60 60 61 60 59 59 58 59
56 53 48 54 59 58 56 49 58 62 61 58 58 57 61 64 66 66 67 68 68 68 69 69 69 68 70 70 69 66 65 64 65 69 67 65 65 64 61 60 60 60 59 59 58 57 57 56 55
49 42 44 49 57 55 52 48 56 61 60 57 55 57 59 61 63 65 68 67 67 68 67 67 67 67 66 69 68 68 68 65 65 68 67 68 67 65 62 60 59 60 58 58 57 57 55 54 57
42 43 46 46 53 51 49 49 56 59 58 57 56 57 58 61 64 66 66 67 67 67 66 66 67 66 65 67 66 66 65 66 66 66 67 68 67 67 65 61 60 60 58 59 55 57 58 58 57
52 49 49 47 53 51 49 50 55 58 54 55 54 55 56 60 64 65 66 66 66 65 66 65 64 64 65 66 64 63 63 64 64 65 66 66 66 66 65 64 63 62 60 60 59 58 57 56 56
50 49 43 47 52 51 48 50 53 55 55 57 57 56 58 57 58 62 62 62 63 64 64 65 65 64 65 66 66 65 64 63 65 64 64 65 65 65 64 63 62 62 60 59 58 57 55 55 55
50 47 44 47 47 48 47 45 50 55 55 55 55 57 57 58 58 58 61 58 58 59 60 63 64 65 65 64 62 63 63 62 62 62 62 63 64 64 63 63 62 61 60 59 59 58 56 55 55
46 52 50 46 45 41 47 39 46 49 52 53 55 54 55 56 55 55 55 53 51 54 54 59 63 64 65 64 63 64 62 60 62 62 62 63 63 63 63 62 62 61 60 59 58 58 58 56 55
49 51 49 47 44 41 39 39 43 48 48 49 51 52 52 54 54 53 53 54 52 54 52 53 58 62 63 64 65 64 62 62 62 62 62 62 62 62 62 62 62 61 60 60 59 58 57 57 56
52 50 48 45 40 33 39 39 38 44 51 47 49 49 51 50 50 51 52 53 52 51 51 52 56 58 60 63 65 63 62 60 60 59 59 59 59 60 60 60 60 60 59 58 58 57 57 56 56
50 46 30 31 29 30 34 35 43 48 52 52 51 49 48 50 49 49 49 49 50 49 50 52 54 53 55 57 60 61 61 60 58 57 57 56 56 55 55 55 53 52 53 53 52 52 52 52 51
44 43 31 27 24 29 34 34 43 46 48 50 51 49 49 47 48 47 47 47 48 50 50 52 53 53 54 55 55 59 59 58 56 56 54 53 49 49 49 49 50 50 50 50 49 48 48 48 47
43 40 45 33 19 27 32 37 46 44 45 46 46 47 45 46 46 46 47 46 47 47 48 49 50 50 51 51 54 54 54 53 48 47 48 47 47 49 47 46 46 47 47 47 47 46 45 45 45
46 50 38 34 22 22 29 32 39 40 44 44 44 44 44 45 45 45 46 46 46 47 47 48 48 48 48 49 50 49 47 47 46 46 44 44 44 45 45 44 44 44 44 44 44 43 44 43 42
42 39 41 40 34 27 24 33 44 47 46 45 44 46 46 46 45 44 45 46 46 45 46 45 47 47 47 47 47 46 44 44 44 43 42 43 43 43 43 43 43 42 42 42 41 41 42 41 40
41 44 44 35 32 32 30 36 45 45 48 49 47 48 46 47 46 45 45 45 44 44 44 44 45 46 46 46 45 43 44 42 42 41 41 41 41 41 41 41 41 41 41 40 40 40 40 39 39